<?xml version="1.0" encoding="UTF-8" standalone="no" ?>
<gpx xmlns="http://www.topografix.com/GPX/1/1" xmlns:xsi="http://www.w3.org/2001/XMLSchema-instance" xsi:schemaLocation="http://www.topografix.com/GPX/1/1 http://www.topografix.com/GPX/1/1/gpx.xsd" version="1.1" creator="VisuGPX - https://www.visugpx.com">
  <metadata>
    <name>Beauvoir Marigny Granzay verte</name>
  </metadata>
  <trk>
    <name><![CDATA[Beauvoir Marigny Granzay verte_1]]></name>
    <trkseg>
      <trkpt lat="46.18769" lon="-0.47757">
        <ele>62.6</ele>
        <time>2021-03-27T09:51:31Z</time>
      </trkpt>
      <trkpt lat="46.1879" lon="-0.47758">
        <ele>61.6</ele>
        <time>2021-03-27T09:51:36Z</time>
      </trkpt>
      <trkpt lat="46.18795" lon="-0.47755">
        <ele>61.4</ele>
        <time>2021-03-27T09:51:37Z</time>
      </trkpt>
      <trkpt lat="46.18799" lon="-0.47752">
        <ele>61.6</ele>
        <time>2021-03-27T09:51:38Z</time>
      </trkpt>
      <trkpt lat="46.18802" lon="-0.47746">
        <ele>61.6</ele>
        <time>2021-03-27T09:51:39Z</time>
      </trkpt>
      <trkpt lat="46.18803" lon="-0.47739">
        <ele>61.8</ele>
        <time>2021-03-27T09:51:40Z</time>
      </trkpt>
      <trkpt lat="46.18803" lon="-0.47713">
        <ele>61.4</ele>
        <time>2021-03-27T09:51:43Z</time>
      </trkpt>
      <trkpt lat="46.18803" lon="-0.47703">
        <ele>61</ele>
        <time>2021-03-27T09:51:44Z</time>
      </trkpt>
      <trkpt lat="46.18802" lon="-0.47695">
        <ele>61.6</ele>
        <time>2021-03-27T09:51:45Z</time>
      </trkpt>
      <trkpt lat="46.188" lon="-0.47678">
        <ele>62.2</ele>
        <time>2021-03-27T09:51:47Z</time>
      </trkpt>
      <trkpt lat="46.18799" lon="-0.4767">
        <ele>62.4</ele>
        <time>2021-03-27T09:51:48Z</time>
      </trkpt>
      <trkpt lat="46.18799" lon="-0.47662">
        <ele>62.6</ele>
        <time>2021-03-27T09:51:49Z</time>
      </trkpt>
      <trkpt lat="46.18799" lon="-0.47654">
        <ele>62.2</ele>
        <time>2021-03-27T09:51:50Z</time>
      </trkpt>
      <trkpt lat="46.18802" lon="-0.47631">
        <ele>62</ele>
        <time>2021-03-27T09:51:53Z</time>
      </trkpt>
      <trkpt lat="46.18803" lon="-0.47623">
        <ele>62</ele>
        <time>2021-03-27T09:51:54Z</time>
      </trkpt>
      <trkpt lat="46.18805" lon="-0.47615">
        <ele>62.2</ele>
        <time>2021-03-27T09:51:55Z</time>
      </trkpt>
      <trkpt lat="46.18811" lon="-0.47581">
        <ele>62.6</ele>
        <time>2021-03-27T09:51:59Z</time>
      </trkpt>
      <trkpt lat="46.18812" lon="-0.47566">
        <ele>62.6</ele>
        <time>2021-03-27T09:52:01Z</time>
      </trkpt>
      <trkpt lat="46.18811" lon="-0.47559">
        <ele>62.6</ele>
        <time>2021-03-27T09:52:02Z</time>
      </trkpt>
      <trkpt lat="46.1881" lon="-0.47551">
        <ele>62.6</ele>
        <time>2021-03-27T09:52:03Z</time>
      </trkpt>
      <trkpt lat="46.18809" lon="-0.47544">
        <ele>62.6</ele>
        <time>2021-03-27T09:52:04Z</time>
      </trkpt>
      <trkpt lat="46.18807" lon="-0.47536">
        <ele>62.6</ele>
        <time>2021-03-27T09:52:05Z</time>
      </trkpt>
      <trkpt lat="46.18792" lon="-0.47486">
        <ele>62.6</ele>
        <time>2021-03-27T09:52:11Z</time>
      </trkpt>
      <trkpt lat="46.18791" lon="-0.47478">
        <ele>62.6</ele>
        <time>2021-03-27T09:52:12Z</time>
      </trkpt>
      <trkpt lat="46.18789" lon="-0.47471">
        <ele>62.6</ele>
        <time>2021-03-27T09:52:13Z</time>
      </trkpt>
      <trkpt lat="46.18783" lon="-0.4744">
        <ele>62.6</ele>
        <time>2021-03-27T09:52:17Z</time>
      </trkpt>
      <trkpt lat="46.18782" lon="-0.47432">
        <ele>62.6</ele>
        <time>2021-03-27T09:52:18Z</time>
      </trkpt>
      <trkpt lat="46.1878" lon="-0.47424">
        <ele>62.6</ele>
        <time>2021-03-27T09:52:19Z</time>
      </trkpt>
      <trkpt lat="46.18779" lon="-0.47419">
        <ele>62.6</ele>
        <time>2021-03-27T09:52:20Z</time>
      </trkpt>
      <trkpt lat="46.18775" lon="-0.47411">
        <ele>62.6</ele>
        <time>2021-03-27T09:52:21Z</time>
      </trkpt>
      <trkpt lat="46.18771" lon="-0.47406">
        <ele>62.6</ele>
        <time>2021-03-27T09:52:22Z</time>
      </trkpt>
      <trkpt lat="46.18765" lon="-0.47399">
        <ele>62.4</ele>
        <time>2021-03-27T09:52:23Z</time>
      </trkpt>
      <trkpt lat="46.1876" lon="-0.47395">
        <ele>62.4</ele>
        <time>2021-03-27T09:52:24Z</time>
      </trkpt>
      <trkpt lat="46.18755" lon="-0.4739">
        <ele>62.2</ele>
        <time>2021-03-27T09:52:25Z</time>
      </trkpt>
      <trkpt lat="46.1875" lon="-0.47385">
        <ele>62.2</ele>
        <time>2021-03-27T09:52:26Z</time>
      </trkpt>
      <trkpt lat="46.18744" lon="-0.47373">
        <ele>61.8</ele>
        <time>2021-03-27T09:52:28Z</time>
      </trkpt>
      <trkpt lat="46.18743" lon="-0.47368">
        <ele>61.8</ele>
        <time>2021-03-27T09:52:29Z</time>
      </trkpt>
      <trkpt lat="46.18743" lon="-0.47365">
        <ele>61.8</ele>
        <time>2021-03-27T09:52:30Z</time>
      </trkpt>
      <trkpt lat="46.18743" lon="-0.47362">
        <ele>61.8</ele>
        <time>2021-03-27T09:52:31Z</time>
      </trkpt>
      <trkpt lat="46.18743" lon="-0.47362">
        <ele>61.8</ele>
        <time>2021-03-27T09:52:32Z</time>
      </trkpt>
      <trkpt lat="46.18743" lon="-0.47362">
        <ele>61.8</ele>
        <time>2021-03-27T09:52:33Z</time>
      </trkpt>
      <trkpt lat="46.18743" lon="-0.47357">
        <ele>62.2</ele>
        <time>2021-03-27T09:52:48Z</time>
      </trkpt>
      <trkpt lat="46.18743" lon="-0.47351">
        <ele>62.2</ele>
        <time>2021-03-27T09:52:49Z</time>
      </trkpt>
      <trkpt lat="46.18743" lon="-0.47346">
        <ele>62.2</ele>
        <time>2021-03-27T09:52:50Z</time>
      </trkpt>
      <trkpt lat="46.18742" lon="-0.47326">
        <ele>62.2</ele>
        <time>2021-03-27T09:52:53Z</time>
      </trkpt>
      <trkpt lat="46.1874" lon="-0.47312">
        <ele>62.2</ele>
        <time>2021-03-27T09:52:55Z</time>
      </trkpt>
      <trkpt lat="46.18739" lon="-0.47305">
        <ele>62.2</ele>
        <time>2021-03-27T09:52:56Z</time>
      </trkpt>
      <trkpt lat="46.18738" lon="-0.47281">
        <ele>61.8</ele>
        <time>2021-03-27T09:52:59Z</time>
      </trkpt>
      <trkpt lat="46.18739" lon="-0.47272">
        <ele>61.8</ele>
        <time>2021-03-27T09:53:00Z</time>
      </trkpt>
      <trkpt lat="46.1874" lon="-0.47264">
        <ele>61.6</ele>
        <time>2021-03-27T09:53:01Z</time>
      </trkpt>
      <trkpt lat="46.18744" lon="-0.47247">
        <ele>61.4</ele>
        <time>2021-03-27T09:53:03Z</time>
      </trkpt>
      <trkpt lat="46.18746" lon="-0.47238">
        <ele>61.2</ele>
        <time>2021-03-27T09:53:04Z</time>
      </trkpt>
      <trkpt lat="46.18748" lon="-0.47228">
        <ele>61.2</ele>
        <time>2021-03-27T09:53:05Z</time>
      </trkpt>
      <trkpt lat="46.18756" lon="-0.47201">
        <ele>60.6</ele>
        <time>2021-03-27T09:53:08Z</time>
      </trkpt>
      <trkpt lat="46.18758" lon="-0.47192">
        <ele>60.4</ele>
        <time>2021-03-27T09:53:09Z</time>
      </trkpt>
      <trkpt lat="46.18761" lon="-0.47183">
        <ele>60.2</ele>
        <time>2021-03-27T09:53:10Z</time>
      </trkpt>
      <trkpt lat="46.18765" lon="-0.47164">
        <ele>59.6</ele>
        <time>2021-03-27T09:53:12Z</time>
      </trkpt>
      <trkpt lat="46.18766" lon="-0.47153">
        <ele>59.2</ele>
        <time>2021-03-27T09:53:13Z</time>
      </trkpt>
      <trkpt lat="46.18768" lon="-0.47144">
        <ele>59</ele>
        <time>2021-03-27T09:53:14Z</time>
      </trkpt>
      <trkpt lat="46.18768" lon="-0.47133">
        <ele>58.6</ele>
        <time>2021-03-27T09:53:15Z</time>
      </trkpt>
      <trkpt lat="46.18767" lon="-0.47112">
        <ele>58.2</ele>
        <time>2021-03-27T09:53:17Z</time>
      </trkpt>
      <trkpt lat="46.18766" lon="-0.47102">
        <ele>57.8</ele>
        <time>2021-03-27T09:53:18Z</time>
      </trkpt>
      <trkpt lat="46.18764" lon="-0.47083">
        <ele>57.2</ele>
        <time>2021-03-27T09:53:20Z</time>
      </trkpt>
      <trkpt lat="46.18759" lon="-0.47065">
        <ele>56.6</ele>
        <time>2021-03-27T09:53:22Z</time>
      </trkpt>
      <trkpt lat="46.18756" lon="-0.47057">
        <ele>56.2</ele>
        <time>2021-03-27T09:53:23Z</time>
      </trkpt>
      <trkpt lat="46.18753" lon="-0.47049">
        <ele>56</ele>
        <time>2021-03-27T09:53:24Z</time>
      </trkpt>
      <trkpt lat="46.1875" lon="-0.47041">
        <ele>55.6</ele>
        <time>2021-03-27T09:53:25Z</time>
      </trkpt>
      <trkpt lat="46.18748" lon="-0.47034">
        <ele>55.4</ele>
        <time>2021-03-27T09:53:26Z</time>
      </trkpt>
      <trkpt lat="46.18745" lon="-0.47026">
        <ele>55.4</ele>
        <time>2021-03-27T09:53:27Z</time>
      </trkpt>
      <trkpt lat="46.18743" lon="-0.4702">
        <ele>55.2</ele>
        <time>2021-03-27T09:53:28Z</time>
      </trkpt>
      <trkpt lat="46.1874" lon="-0.47013">
        <ele>55.2</ele>
        <time>2021-03-27T09:53:29Z</time>
      </trkpt>
      <trkpt lat="46.18738" lon="-0.47007">
        <ele>55.2</ele>
        <time>2021-03-27T09:53:30Z</time>
      </trkpt>
      <trkpt lat="46.18735" lon="-0.47">
        <ele>55.2</ele>
        <time>2021-03-27T09:53:31Z</time>
      </trkpt>
      <trkpt lat="46.18733" lon="-0.46993">
        <ele>55.2</ele>
        <time>2021-03-27T09:53:32Z</time>
      </trkpt>
      <trkpt lat="46.1873" lon="-0.46986">
        <ele>55.2</ele>
        <time>2021-03-27T09:53:33Z</time>
      </trkpt>
      <trkpt lat="46.18728" lon="-0.46978">
        <ele>55.2</ele>
        <time>2021-03-27T09:53:34Z</time>
      </trkpt>
      <trkpt lat="46.18726" lon="-0.46971">
        <ele>55.2</ele>
        <time>2021-03-27T09:53:35Z</time>
      </trkpt>
      <trkpt lat="46.18723" lon="-0.46964">
        <ele>55.2</ele>
        <time>2021-03-27T09:53:36Z</time>
      </trkpt>
      <trkpt lat="46.18717" lon="-0.46949">
        <ele>55.4</ele>
        <time>2021-03-27T09:53:38Z</time>
      </trkpt>
      <trkpt lat="46.18711" lon="-0.46933">
        <ele>55.4</ele>
        <time>2021-03-27T09:53:40Z</time>
      </trkpt>
      <trkpt lat="46.18699" lon="-0.46898">
        <ele>55.6</ele>
        <time>2021-03-27T09:53:44Z</time>
      </trkpt>
      <trkpt lat="46.18691" lon="-0.46872">
        <ele>55.6</ele>
        <time>2021-03-27T09:53:47Z</time>
      </trkpt>
      <trkpt lat="46.18675" lon="-0.4682">
        <ele>55.8</ele>
        <time>2021-03-27T09:53:53Z</time>
      </trkpt>
      <trkpt lat="46.18666" lon="-0.46795">
        <ele>55.8</ele>
        <time>2021-03-27T09:53:56Z</time>
      </trkpt>
      <trkpt lat="46.18651" lon="-0.46753">
        <ele>56</ele>
        <time>2021-03-27T09:54:01Z</time>
      </trkpt>
      <trkpt lat="46.18623" lon="-0.46688">
        <ele>55.8</ele>
        <time>2021-03-27T09:54:09Z</time>
      </trkpt>
      <trkpt lat="46.18619" lon="-0.4668">
        <ele>55.8</ele>
        <time>2021-03-27T09:54:10Z</time>
      </trkpt>
      <trkpt lat="46.18599" lon="-0.46641">
        <ele>54</ele>
        <time>2021-03-27T09:54:15Z</time>
      </trkpt>
      <trkpt lat="46.18591" lon="-0.46626">
        <ele>53.6</ele>
        <time>2021-03-27T09:54:17Z</time>
      </trkpt>
      <trkpt lat="46.18582" lon="-0.46612">
        <ele>53.4</ele>
        <time>2021-03-27T09:54:19Z</time>
      </trkpt>
      <trkpt lat="46.18574" lon="-0.46599">
        <ele>53.4</ele>
        <time>2021-03-27T09:54:21Z</time>
      </trkpt>
      <trkpt lat="46.1857" lon="-0.46593">
        <ele>53.4</ele>
        <time>2021-03-27T09:54:22Z</time>
      </trkpt>
      <trkpt lat="46.18567" lon="-0.46587">
        <ele>53.4</ele>
        <time>2021-03-27T09:54:23Z</time>
      </trkpt>
      <trkpt lat="46.18563" lon="-0.46582">
        <ele>53.4</ele>
        <time>2021-03-27T09:54:24Z</time>
      </trkpt>
      <trkpt lat="46.18561" lon="-0.46578">
        <ele>53.4</ele>
        <time>2021-03-27T09:54:25Z</time>
      </trkpt>
      <trkpt lat="46.18558" lon="-0.46574">
        <ele>53.4</ele>
        <time>2021-03-27T09:54:26Z</time>
      </trkpt>
      <trkpt lat="46.18556" lon="-0.4657">
        <ele>53.4</ele>
        <time>2021-03-27T09:54:27Z</time>
      </trkpt>
      <trkpt lat="46.18554" lon="-0.46567">
        <ele>53.4</ele>
        <time>2021-03-27T09:54:28Z</time>
      </trkpt>
      <trkpt lat="46.18553" lon="-0.46564">
        <ele>53.4</ele>
        <time>2021-03-27T09:54:29Z</time>
      </trkpt>
      <trkpt lat="46.18552" lon="-0.4656">
        <ele>53.4</ele>
        <time>2021-03-27T09:54:30Z</time>
      </trkpt>
      <trkpt lat="46.18552" lon="-0.46556">
        <ele>53.6</ele>
        <time>2021-03-27T09:54:31Z</time>
      </trkpt>
      <trkpt lat="46.18552" lon="-0.46552">
        <ele>53.8</ele>
        <time>2021-03-27T09:54:32Z</time>
      </trkpt>
      <trkpt lat="46.18553" lon="-0.46549">
        <ele>54</ele>
        <time>2021-03-27T09:54:33Z</time>
      </trkpt>
      <trkpt lat="46.18557" lon="-0.46544">
        <ele>54.4</ele>
        <time>2021-03-27T09:54:35Z</time>
      </trkpt>
      <trkpt lat="46.1856" lon="-0.46542">
        <ele>54.6</ele>
        <time>2021-03-27T09:54:36Z</time>
      </trkpt>
      <trkpt lat="46.18562" lon="-0.4654">
        <ele>54.8</ele>
        <time>2021-03-27T09:54:37Z</time>
      </trkpt>
      <trkpt lat="46.18564" lon="-0.46536">
        <ele>54.8</ele>
        <time>2021-03-27T09:54:38Z</time>
      </trkpt>
      <trkpt lat="46.18567" lon="-0.46533">
        <ele>54.8</ele>
        <time>2021-03-27T09:54:39Z</time>
      </trkpt>
      <trkpt lat="46.18569" lon="-0.46528">
        <ele>54.8</ele>
        <time>2021-03-27T09:54:40Z</time>
      </trkpt>
      <trkpt lat="46.18585" lon="-0.46507">
        <ele>54.8</ele>
        <time>2021-03-27T09:54:44Z</time>
      </trkpt>
      <trkpt lat="46.18609" lon="-0.46477">
        <ele>54.6</ele>
        <time>2021-03-27T09:54:49Z</time>
      </trkpt>
      <trkpt lat="46.18613" lon="-0.46471">
        <ele>54.6</ele>
        <time>2021-03-27T09:54:50Z</time>
      </trkpt>
      <trkpt lat="46.18617" lon="-0.46465">
        <ele>54.6</ele>
        <time>2021-03-27T09:54:51Z</time>
      </trkpt>
      <trkpt lat="46.18622" lon="-0.4646">
        <ele>54.6</ele>
        <time>2021-03-27T09:54:52Z</time>
      </trkpt>
      <trkpt lat="46.18637" lon="-0.4644">
        <ele>54.6</ele>
        <time>2021-03-27T09:54:55Z</time>
      </trkpt>
      <trkpt lat="46.18641" lon="-0.46434">
        <ele>54.6</ele>
        <time>2021-03-27T09:54:56Z</time>
      </trkpt>
      <trkpt lat="46.18645" lon="-0.46419">
        <ele>54.6</ele>
        <time>2021-03-27T09:54:58Z</time>
      </trkpt>
      <trkpt lat="46.18639" lon="-0.46404">
        <ele>55</ele>
        <time>2021-03-27T09:55:00Z</time>
      </trkpt>
      <trkpt lat="46.18635" lon="-0.46398">
        <ele>55.2</ele>
        <time>2021-03-27T09:55:01Z</time>
      </trkpt>
      <trkpt lat="46.18626" lon="-0.46387">
        <ele>55.6</ele>
        <time>2021-03-27T09:55:03Z</time>
      </trkpt>
      <trkpt lat="46.18622" lon="-0.46381">
        <ele>55.8</ele>
        <time>2021-03-27T09:55:04Z</time>
      </trkpt>
      <trkpt lat="46.18613" lon="-0.46369">
        <ele>56.2</ele>
        <time>2021-03-27T09:55:06Z</time>
      </trkpt>
      <trkpt lat="46.18591" lon="-0.46329">
        <ele>57.2</ele>
        <time>2021-03-27T09:55:12Z</time>
      </trkpt>
      <trkpt lat="46.18582" lon="-0.4631">
        <ele>57.4</ele>
        <time>2021-03-27T09:55:15Z</time>
      </trkpt>
      <trkpt lat="46.18579" lon="-0.46304">
        <ele>57.4</ele>
        <time>2021-03-27T09:55:16Z</time>
      </trkpt>
      <trkpt lat="46.18576" lon="-0.46299">
        <ele>57.6</ele>
        <time>2021-03-27T09:55:17Z</time>
      </trkpt>
      <trkpt lat="46.18573" lon="-0.46294">
        <ele>57.6</ele>
        <time>2021-03-27T09:55:18Z</time>
      </trkpt>
      <trkpt lat="46.1857" lon="-0.46288">
        <ele>57.6</ele>
        <time>2021-03-27T09:55:19Z</time>
      </trkpt>
      <trkpt lat="46.18567" lon="-0.46281">
        <ele>57.6</ele>
        <time>2021-03-27T09:55:20Z</time>
      </trkpt>
      <trkpt lat="46.18564" lon="-0.46274">
        <ele>57.6</ele>
        <time>2021-03-27T09:55:21Z</time>
      </trkpt>
      <trkpt lat="46.1856" lon="-0.46266">
        <ele>57.6</ele>
        <time>2021-03-27T09:55:22Z</time>
      </trkpt>
      <trkpt lat="46.18557" lon="-0.46258">
        <ele>57.6</ele>
        <time>2021-03-27T09:55:23Z</time>
      </trkpt>
      <trkpt lat="46.18554" lon="-0.46249">
        <ele>57.6</ele>
        <time>2021-03-27T09:55:24Z</time>
      </trkpt>
      <trkpt lat="46.18551" lon="-0.4624">
        <ele>57.6</ele>
        <time>2021-03-27T09:55:25Z</time>
      </trkpt>
      <trkpt lat="46.18547" lon="-0.46222">
        <ele>57.6</ele>
        <time>2021-03-27T09:55:27Z</time>
      </trkpt>
      <trkpt lat="46.18544" lon="-0.46203">
        <ele>57.6</ele>
        <time>2021-03-27T09:55:29Z</time>
      </trkpt>
      <trkpt lat="46.18536" lon="-0.46134">
        <ele>57.2</ele>
        <time>2021-03-27T09:55:36Z</time>
      </trkpt>
      <trkpt lat="46.18534" lon="-0.46124">
        <ele>57.2</ele>
        <time>2021-03-27T09:55:37Z</time>
      </trkpt>
      <trkpt lat="46.18515" lon="-0.4606">
        <ele>56.6</ele>
        <time>2021-03-27T09:55:44Z</time>
      </trkpt>
      <trkpt lat="46.18512" lon="-0.46051">
        <ele>56.4</ele>
        <time>2021-03-27T09:55:45Z</time>
      </trkpt>
      <trkpt lat="46.18508" lon="-0.46043">
        <ele>56.4</ele>
        <time>2021-03-27T09:55:46Z</time>
      </trkpt>
      <trkpt lat="46.18505" lon="-0.46034">
        <ele>56.4</ele>
        <time>2021-03-27T09:55:47Z</time>
      </trkpt>
      <trkpt lat="46.18502" lon="-0.46026">
        <ele>56.2</ele>
        <time>2021-03-27T09:55:48Z</time>
      </trkpt>
      <trkpt lat="46.18498" lon="-0.46019">
        <ele>56.2</ele>
        <time>2021-03-27T09:55:49Z</time>
      </trkpt>
      <trkpt lat="46.18495" lon="-0.46011">
        <ele>56.2</ele>
        <time>2021-03-27T09:55:50Z</time>
      </trkpt>
      <trkpt lat="46.18492" lon="-0.46002">
        <ele>56.2</ele>
        <time>2021-03-27T09:55:51Z</time>
      </trkpt>
      <trkpt lat="46.18488" lon="-0.45994">
        <ele>56.2</ele>
        <time>2021-03-27T09:55:52Z</time>
      </trkpt>
      <trkpt lat="46.18484" lon="-0.45986">
        <ele>56.2</ele>
        <time>2021-03-27T09:55:53Z</time>
      </trkpt>
      <trkpt lat="46.18481" lon="-0.45978">
        <ele>56.2</ele>
        <time>2021-03-27T09:55:54Z</time>
      </trkpt>
      <trkpt lat="46.18477" lon="-0.45969">
        <ele>56.2</ele>
        <time>2021-03-27T09:55:55Z</time>
      </trkpt>
      <trkpt lat="46.18459" lon="-0.45928">
        <ele>56.2</ele>
        <time>2021-03-27T09:56:00Z</time>
      </trkpt>
      <trkpt lat="46.18444" lon="-0.45896">
        <ele>56.2</ele>
        <time>2021-03-27T09:56:04Z</time>
      </trkpt>
      <trkpt lat="46.18411" lon="-0.45847">
        <ele>56.2</ele>
        <time>2021-03-27T09:56:11Z</time>
      </trkpt>
      <trkpt lat="46.18401" lon="-0.45837">
        <ele>56.4</ele>
        <time>2021-03-27T09:56:13Z</time>
      </trkpt>
      <trkpt lat="46.18396" lon="-0.45833">
        <ele>56.4</ele>
        <time>2021-03-27T09:56:14Z</time>
      </trkpt>
      <trkpt lat="46.18392" lon="-0.45829">
        <ele>56.4</ele>
        <time>2021-03-27T09:56:15Z</time>
      </trkpt>
      <trkpt lat="46.18387" lon="-0.45824">
        <ele>56.6</ele>
        <time>2021-03-27T09:56:16Z</time>
      </trkpt>
      <trkpt lat="46.18383" lon="-0.45819">
        <ele>56.6</ele>
        <time>2021-03-27T09:56:17Z</time>
      </trkpt>
      <trkpt lat="46.18364" lon="-0.45794">
        <ele>56.8</ele>
        <time>2021-03-27T09:56:21Z</time>
      </trkpt>
      <trkpt lat="46.1836" lon="-0.45787">
        <ele>56.8</ele>
        <time>2021-03-27T09:56:22Z</time>
      </trkpt>
      <trkpt lat="46.18354" lon="-0.45771">
        <ele>57.4</ele>
        <time>2021-03-27T09:56:24Z</time>
      </trkpt>
      <trkpt lat="46.18349" lon="-0.45753">
        <ele>57.6</ele>
        <time>2021-03-27T09:56:26Z</time>
      </trkpt>
      <trkpt lat="46.18346" lon="-0.45736">
        <ele>57.8</ele>
        <time>2021-03-27T09:56:28Z</time>
      </trkpt>
      <trkpt lat="46.18345" lon="-0.45728">
        <ele>58</ele>
        <time>2021-03-27T09:56:29Z</time>
      </trkpt>
      <trkpt lat="46.18343" lon="-0.4571">
        <ele>58.4</ele>
        <time>2021-03-27T09:56:31Z</time>
      </trkpt>
      <trkpt lat="46.18341" lon="-0.45694">
        <ele>58.8</ele>
        <time>2021-03-27T09:56:33Z</time>
      </trkpt>
      <trkpt lat="46.1834" lon="-0.45687">
        <ele>59</ele>
        <time>2021-03-27T09:56:34Z</time>
      </trkpt>
      <trkpt lat="46.18338" lon="-0.4568">
        <ele>59</ele>
        <time>2021-03-27T09:56:35Z</time>
      </trkpt>
      <trkpt lat="46.18337" lon="-0.45673">
        <ele>59</ele>
        <time>2021-03-27T09:56:36Z</time>
      </trkpt>
      <trkpt lat="46.18337" lon="-0.45657">
        <ele>59.6</ele>
        <time>2021-03-27T09:56:38Z</time>
      </trkpt>
      <trkpt lat="46.18337" lon="-0.4565">
        <ele>60</ele>
        <time>2021-03-27T09:56:39Z</time>
      </trkpt>
      <trkpt lat="46.18336" lon="-0.45645">
        <ele>60.6</ele>
        <time>2021-03-27T09:56:40Z</time>
      </trkpt>
      <trkpt lat="46.18336" lon="-0.45642">
        <ele>61.2</ele>
        <time>2021-03-27T09:56:41Z</time>
      </trkpt>
      <trkpt lat="46.18336" lon="-0.4564">
        <ele>61.8</ele>
        <time>2021-03-27T09:56:42Z</time>
      </trkpt>
      <trkpt lat="46.18337" lon="-0.45639">
        <ele>62.2</ele>
        <time>2021-03-27T09:56:43Z</time>
      </trkpt>
      <trkpt lat="46.18338" lon="-0.4564">
        <ele>62.4</ele>
        <time>2021-03-27T09:56:44Z</time>
      </trkpt>
      <trkpt lat="46.18339" lon="-0.45642">
        <ele>62.8</ele>
        <time>2021-03-27T09:56:45Z</time>
      </trkpt>
      <trkpt lat="46.18339" lon="-0.45644">
        <ele>63</ele>
        <time>2021-03-27T09:56:46Z</time>
      </trkpt>
      <trkpt lat="46.18339" lon="-0.45645">
        <ele>63</ele>
        <time>2021-03-27T09:56:47Z</time>
      </trkpt>
      <trkpt lat="46.18338" lon="-0.45646">
        <ele>63.4</ele>
        <time>2021-03-27T09:56:48Z</time>
      </trkpt>
      <trkpt lat="46.18337" lon="-0.45645">
        <ele>64</ele>
        <time>2021-03-27T09:56:49Z</time>
      </trkpt>
      <trkpt lat="46.18336" lon="-0.45642">
        <ele>64.4</ele>
        <time>2021-03-27T09:56:50Z</time>
      </trkpt>
      <trkpt lat="46.18335" lon="-0.45639">
        <ele>64.8</ele>
        <time>2021-03-27T09:56:51Z</time>
      </trkpt>
      <trkpt lat="46.18335" lon="-0.45635">
        <ele>64.8</ele>
        <time>2021-03-27T09:56:52Z</time>
      </trkpt>
      <trkpt lat="46.18334" lon="-0.45631">
        <ele>65</ele>
        <time>2021-03-27T09:56:53Z</time>
      </trkpt>
      <trkpt lat="46.18334" lon="-0.45627">
        <ele>65</ele>
        <time>2021-03-27T09:56:54Z</time>
      </trkpt>
      <trkpt lat="46.18334" lon="-0.45622">
        <ele>65</ele>
        <time>2021-03-27T09:56:55Z</time>
      </trkpt>
      <trkpt lat="46.18333" lon="-0.45616">
        <ele>65</ele>
        <time>2021-03-27T09:56:56Z</time>
      </trkpt>
      <trkpt lat="46.18332" lon="-0.45609">
        <ele>65</ele>
        <time>2021-03-27T09:56:57Z</time>
      </trkpt>
      <trkpt lat="46.18331" lon="-0.45602">
        <ele>65</ele>
        <time>2021-03-27T09:56:58Z</time>
      </trkpt>
      <trkpt lat="46.18329" lon="-0.45596">
        <ele>65</ele>
        <time>2021-03-27T09:56:59Z</time>
      </trkpt>
      <trkpt lat="46.18328" lon="-0.45589">
        <ele>65</ele>
        <time>2021-03-27T09:57:00Z</time>
      </trkpt>
      <trkpt lat="46.18327" lon="-0.45583">
        <ele>65</ele>
        <time>2021-03-27T09:57:01Z</time>
      </trkpt>
      <trkpt lat="46.18327" lon="-0.45577">
        <ele>65</ele>
        <time>2021-03-27T09:57:02Z</time>
      </trkpt>
      <trkpt lat="46.18326" lon="-0.45571">
        <ele>65</ele>
        <time>2021-03-27T09:57:03Z</time>
      </trkpt>
      <trkpt lat="46.18325" lon="-0.45565">
        <ele>65</ele>
        <time>2021-03-27T09:57:04Z</time>
      </trkpt>
      <trkpt lat="46.18324" lon="-0.45559">
        <ele>65</ele>
        <time>2021-03-27T09:57:05Z</time>
      </trkpt>
      <trkpt lat="46.18324" lon="-0.45554">
        <ele>64.8</ele>
        <time>2021-03-27T09:57:06Z</time>
      </trkpt>
      <trkpt lat="46.18324" lon="-0.45548">
        <ele>64.6</ele>
        <time>2021-03-27T09:57:07Z</time>
      </trkpt>
      <trkpt lat="46.18323" lon="-0.45544">
        <ele>64.4</ele>
        <time>2021-03-27T09:57:08Z</time>
      </trkpt>
      <trkpt lat="46.18323" lon="-0.45538">
        <ele>64.2</ele>
        <time>2021-03-27T09:57:09Z</time>
      </trkpt>
      <trkpt lat="46.18323" lon="-0.45532">
        <ele>64</ele>
        <time>2021-03-27T09:57:10Z</time>
      </trkpt>
      <trkpt lat="46.18322" lon="-0.45526">
        <ele>63.8</ele>
        <time>2021-03-27T09:57:11Z</time>
      </trkpt>
      <trkpt lat="46.18322" lon="-0.4552">
        <ele>63.8</ele>
        <time>2021-03-27T09:57:12Z</time>
      </trkpt>
      <trkpt lat="46.1832" lon="-0.45501">
        <ele>63.8</ele>
        <time>2021-03-27T09:57:15Z</time>
      </trkpt>
      <trkpt lat="46.18319" lon="-0.45496">
        <ele>63.8</ele>
        <time>2021-03-27T09:57:16Z</time>
      </trkpt>
      <trkpt lat="46.18318" lon="-0.4549">
        <ele>63.8</ele>
        <time>2021-03-27T09:57:17Z</time>
      </trkpt>
      <trkpt lat="46.18315" lon="-0.45463">
        <ele>63.6</ele>
        <time>2021-03-27T09:57:21Z</time>
      </trkpt>
      <trkpt lat="46.18314" lon="-0.45457">
        <ele>63.6</ele>
        <time>2021-03-27T09:57:22Z</time>
      </trkpt>
      <trkpt lat="46.18313" lon="-0.4545">
        <ele>63.6</ele>
        <time>2021-03-27T09:57:23Z</time>
      </trkpt>
      <trkpt lat="46.18309" lon="-0.45434">
        <ele>63.8</ele>
        <time>2021-03-27T09:57:26Z</time>
      </trkpt>
      <trkpt lat="46.18306" lon="-0.45428">
        <ele>63.8</ele>
        <time>2021-03-27T09:57:27Z</time>
      </trkpt>
      <trkpt lat="46.18296" lon="-0.45411">
        <ele>64</ele>
        <time>2021-03-27T09:57:30Z</time>
      </trkpt>
      <trkpt lat="46.18294" lon="-0.45405">
        <ele>64</ele>
        <time>2021-03-27T09:57:31Z</time>
      </trkpt>
      <trkpt lat="46.18287" lon="-0.45392">
        <ele>64</ele>
        <time>2021-03-27T09:57:33Z</time>
      </trkpt>
      <trkpt lat="46.18284" lon="-0.45386">
        <ele>64</ele>
        <time>2021-03-27T09:57:34Z</time>
      </trkpt>
      <trkpt lat="46.18282" lon="-0.45379">
        <ele>64</ele>
        <time>2021-03-27T09:57:35Z</time>
      </trkpt>
      <trkpt lat="46.18272" lon="-0.4535">
        <ele>64</ele>
        <time>2021-03-27T09:57:39Z</time>
      </trkpt>
      <trkpt lat="46.18271" lon="-0.45344">
        <ele>64</ele>
        <time>2021-03-27T09:57:40Z</time>
      </trkpt>
      <trkpt lat="46.18268" lon="-0.45329">
        <ele>64</ele>
        <time>2021-03-27T09:57:42Z</time>
      </trkpt>
      <trkpt lat="46.18264" lon="-0.45315">
        <ele>64</ele>
        <time>2021-03-27T09:57:44Z</time>
      </trkpt>
      <trkpt lat="46.18258" lon="-0.45297">
        <ele>63.8</ele>
        <time>2021-03-27T09:57:47Z</time>
      </trkpt>
      <trkpt lat="46.18253" lon="-0.45285">
        <ele>63.8</ele>
        <time>2021-03-27T09:57:49Z</time>
      </trkpt>
      <trkpt lat="46.18251" lon="-0.45279">
        <ele>63.8</ele>
        <time>2021-03-27T09:57:50Z</time>
      </trkpt>
      <trkpt lat="46.18244" lon="-0.4526">
        <ele>63.8</ele>
        <time>2021-03-27T09:57:53Z</time>
      </trkpt>
      <trkpt lat="46.18242" lon="-0.45254">
        <ele>63.4</ele>
        <time>2021-03-27T09:57:54Z</time>
      </trkpt>
      <trkpt lat="46.18241" lon="-0.45247">
        <ele>63.2</ele>
        <time>2021-03-27T09:57:55Z</time>
      </trkpt>
      <trkpt lat="46.1824" lon="-0.4524">
        <ele>63</ele>
        <time>2021-03-27T09:57:56Z</time>
      </trkpt>
      <trkpt lat="46.18241" lon="-0.45233">
        <ele>62.6</ele>
        <time>2021-03-27T09:57:57Z</time>
      </trkpt>
      <trkpt lat="46.18242" lon="-0.45227">
        <ele>62.4</ele>
        <time>2021-03-27T09:57:58Z</time>
      </trkpt>
      <trkpt lat="46.18245" lon="-0.45222">
        <ele>62.2</ele>
        <time>2021-03-27T09:57:59Z</time>
      </trkpt>
      <trkpt lat="46.18248" lon="-0.45219">
        <ele>62.4</ele>
        <time>2021-03-27T09:58:00Z</time>
      </trkpt>
      <trkpt lat="46.18252" lon="-0.45215">
        <ele>62.2</ele>
        <time>2021-03-27T09:58:01Z</time>
      </trkpt>
      <trkpt lat="46.18256" lon="-0.45211">
        <ele>62</ele>
        <time>2021-03-27T09:58:02Z</time>
      </trkpt>
      <trkpt lat="46.1826" lon="-0.45208">
        <ele>61.8</ele>
        <time>2021-03-27T09:58:03Z</time>
      </trkpt>
      <trkpt lat="46.18264" lon="-0.45204">
        <ele>61.6</ele>
        <time>2021-03-27T09:58:04Z</time>
      </trkpt>
      <trkpt lat="46.18267" lon="-0.45199">
        <ele>61.4</ele>
        <time>2021-03-27T09:58:05Z</time>
      </trkpt>
      <trkpt lat="46.18284" lon="-0.45182">
        <ele>61</ele>
        <time>2021-03-27T09:58:09Z</time>
      </trkpt>
      <trkpt lat="46.18287" lon="-0.45176">
        <ele>61</ele>
        <time>2021-03-27T09:58:10Z</time>
      </trkpt>
      <trkpt lat="46.18289" lon="-0.4517">
        <ele>60.8</ele>
        <time>2021-03-27T09:58:11Z</time>
      </trkpt>
      <trkpt lat="46.1829" lon="-0.45163">
        <ele>60.8</ele>
        <time>2021-03-27T09:58:12Z</time>
      </trkpt>
      <trkpt lat="46.1829" lon="-0.45156">
        <ele>60.8</ele>
        <time>2021-03-27T09:58:13Z</time>
      </trkpt>
      <trkpt lat="46.18291" lon="-0.45149">
        <ele>60.8</ele>
        <time>2021-03-27T09:58:14Z</time>
      </trkpt>
      <trkpt lat="46.18292" lon="-0.45143">
        <ele>60.8</ele>
        <time>2021-03-27T09:58:15Z</time>
      </trkpt>
      <trkpt lat="46.18297" lon="-0.45122">
        <ele>60.8</ele>
        <time>2021-03-27T09:58:18Z</time>
      </trkpt>
      <trkpt lat="46.18301" lon="-0.45105">
        <ele>60.8</ele>
        <time>2021-03-27T09:58:20Z</time>
      </trkpt>
      <trkpt lat="46.18306" lon="-0.45082">
        <ele>61.6</ele>
        <time>2021-03-27T09:58:23Z</time>
      </trkpt>
      <trkpt lat="46.18307" lon="-0.45073">
        <ele>62.2</ele>
        <time>2021-03-27T09:58:24Z</time>
      </trkpt>
      <trkpt lat="46.18308" lon="-0.45057">
        <ele>62.4</ele>
        <time>2021-03-27T09:58:26Z</time>
      </trkpt>
      <trkpt lat="46.18309" lon="-0.45049">
        <ele>62.6</ele>
        <time>2021-03-27T09:58:27Z</time>
      </trkpt>
      <trkpt lat="46.18314" lon="-0.44987">
        <ele>63.6</ele>
        <time>2021-03-27T09:58:34Z</time>
      </trkpt>
      <trkpt lat="46.18314" lon="-0.44977">
        <ele>63.6</ele>
        <time>2021-03-27T09:58:35Z</time>
      </trkpt>
      <trkpt lat="46.18315" lon="-0.44926">
        <ele>64</ele>
        <time>2021-03-27T09:58:41Z</time>
      </trkpt>
      <trkpt lat="46.18315" lon="-0.44918">
        <ele>64</ele>
        <time>2021-03-27T09:58:42Z</time>
      </trkpt>
      <trkpt lat="46.18316" lon="-0.44909">
        <ele>64.2</ele>
        <time>2021-03-27T09:58:43Z</time>
      </trkpt>
      <trkpt lat="46.18316" lon="-0.44901">
        <ele>64.2</ele>
        <time>2021-03-27T09:58:44Z</time>
      </trkpt>
      <trkpt lat="46.18317" lon="-0.44893">
        <ele>64.4</ele>
        <time>2021-03-27T09:58:45Z</time>
      </trkpt>
      <trkpt lat="46.18317" lon="-0.44885">
        <ele>64.4</ele>
        <time>2021-03-27T09:58:46Z</time>
      </trkpt>
      <trkpt lat="46.18318" lon="-0.44875">
        <ele>64.6</ele>
        <time>2021-03-27T09:58:47Z</time>
      </trkpt>
      <trkpt lat="46.18319" lon="-0.44866">
        <ele>64.6</ele>
        <time>2021-03-27T09:58:48Z</time>
      </trkpt>
      <trkpt lat="46.18319" lon="-0.44857">
        <ele>64.8</ele>
        <time>2021-03-27T09:58:49Z</time>
      </trkpt>
      <trkpt lat="46.18321" lon="-0.4484">
        <ele>64.8</ele>
        <time>2021-03-27T09:58:51Z</time>
      </trkpt>
      <trkpt lat="46.18323" lon="-0.44832">
        <ele>65</ele>
        <time>2021-03-27T09:58:52Z</time>
      </trkpt>
      <trkpt lat="46.18323" lon="-0.44824">
        <ele>65</ele>
        <time>2021-03-27T09:58:53Z</time>
      </trkpt>
      <trkpt lat="46.18331" lon="-0.44777">
        <ele>65.4</ele>
        <time>2021-03-27T09:58:59Z</time>
      </trkpt>
      <trkpt lat="46.18332" lon="-0.4477">
        <ele>65.4</ele>
        <time>2021-03-27T09:59:00Z</time>
      </trkpt>
      <trkpt lat="46.18334" lon="-0.44765">
        <ele>65.6</ele>
        <time>2021-03-27T09:59:01Z</time>
      </trkpt>
      <trkpt lat="46.18335" lon="-0.44759">
        <ele>65.6</ele>
        <time>2021-03-27T09:59:02Z</time>
      </trkpt>
      <trkpt lat="46.18335" lon="-0.44754">
        <ele>65.6</ele>
        <time>2021-03-27T09:59:03Z</time>
      </trkpt>
      <trkpt lat="46.18336" lon="-0.44748">
        <ele>65.8</ele>
        <time>2021-03-27T09:59:04Z</time>
      </trkpt>
      <trkpt lat="46.18337" lon="-0.44743">
        <ele>65.8</ele>
        <time>2021-03-27T09:59:05Z</time>
      </trkpt>
      <trkpt lat="46.18338" lon="-0.44738">
        <ele>65.8</ele>
        <time>2021-03-27T09:59:06Z</time>
      </trkpt>
      <trkpt lat="46.18341" lon="-0.44718">
        <ele>66.2</ele>
        <time>2021-03-27T09:59:09Z</time>
      </trkpt>
      <trkpt lat="46.18345" lon="-0.4468">
        <ele>66.4</ele>
        <time>2021-03-27T09:59:14Z</time>
      </trkpt>
      <trkpt lat="46.18346" lon="-0.44673">
        <ele>66.4</ele>
        <time>2021-03-27T09:59:15Z</time>
      </trkpt>
      <trkpt lat="46.18347" lon="-0.44667">
        <ele>66.6</ele>
        <time>2021-03-27T09:59:16Z</time>
      </trkpt>
      <trkpt lat="46.18348" lon="-0.44661">
        <ele>66.6</ele>
        <time>2021-03-27T09:59:17Z</time>
      </trkpt>
      <trkpt lat="46.18349" lon="-0.44655">
        <ele>66.6</ele>
        <time>2021-03-27T09:59:18Z</time>
      </trkpt>
      <trkpt lat="46.18351" lon="-0.44644">
        <ele>66.8</ele>
        <time>2021-03-27T09:59:20Z</time>
      </trkpt>
      <trkpt lat="46.18352" lon="-0.44638">
        <ele>66.8</ele>
        <time>2021-03-27T09:59:21Z</time>
      </trkpt>
      <trkpt lat="46.18352" lon="-0.44631">
        <ele>66.8</ele>
        <time>2021-03-27T09:59:22Z</time>
      </trkpt>
      <trkpt lat="46.18353" lon="-0.44624">
        <ele>66.8</ele>
        <time>2021-03-27T09:59:23Z</time>
      </trkpt>
      <trkpt lat="46.18356" lon="-0.44607">
        <ele>66.6</ele>
        <time>2021-03-27T09:59:25Z</time>
      </trkpt>
      <trkpt lat="46.18361" lon="-0.44556">
        <ele>66.4</ele>
        <time>2021-03-27T09:59:30Z</time>
      </trkpt>
      <trkpt lat="46.18364" lon="-0.44515">
        <ele>66.2</ele>
        <time>2021-03-27T09:59:34Z</time>
      </trkpt>
      <trkpt lat="46.18365" lon="-0.44506">
        <ele>66.2</ele>
        <time>2021-03-27T09:59:35Z</time>
      </trkpt>
      <trkpt lat="46.18365" lon="-0.44497">
        <ele>66</ele>
        <time>2021-03-27T09:59:36Z</time>
      </trkpt>
      <trkpt lat="46.18366" lon="-0.44487">
        <ele>66</ele>
        <time>2021-03-27T09:59:37Z</time>
      </trkpt>
      <trkpt lat="46.18367" lon="-0.44469">
        <ele>66</ele>
        <time>2021-03-27T09:59:39Z</time>
      </trkpt>
      <trkpt lat="46.18367" lon="-0.4446">
        <ele>66</ele>
        <time>2021-03-27T09:59:40Z</time>
      </trkpt>
      <trkpt lat="46.18368" lon="-0.44453">
        <ele>66</ele>
        <time>2021-03-27T09:59:41Z</time>
      </trkpt>
      <trkpt lat="46.18368" lon="-0.44446">
        <ele>66</ele>
        <time>2021-03-27T09:59:42Z</time>
      </trkpt>
      <trkpt lat="46.18368" lon="-0.44439">
        <ele>66</ele>
        <time>2021-03-27T09:59:43Z</time>
      </trkpt>
      <trkpt lat="46.18368" lon="-0.44433">
        <ele>66</ele>
        <time>2021-03-27T09:59:44Z</time>
      </trkpt>
      <trkpt lat="46.18368" lon="-0.44426">
        <ele>66</ele>
        <time>2021-03-27T09:59:45Z</time>
      </trkpt>
      <trkpt lat="46.18369" lon="-0.44419">
        <ele>66</ele>
        <time>2021-03-27T09:59:46Z</time>
      </trkpt>
      <trkpt lat="46.18369" lon="-0.44412">
        <ele>66.2</ele>
        <time>2021-03-27T09:59:47Z</time>
      </trkpt>
      <trkpt lat="46.1837" lon="-0.44399">
        <ele>66.4</ele>
        <time>2021-03-27T09:59:49Z</time>
      </trkpt>
      <trkpt lat="46.1837" lon="-0.44393">
        <ele>66.6</ele>
        <time>2021-03-27T09:59:50Z</time>
      </trkpt>
      <trkpt lat="46.1837" lon="-0.44386">
        <ele>66.6</ele>
        <time>2021-03-27T09:59:51Z</time>
      </trkpt>
      <trkpt lat="46.1837" lon="-0.4438">
        <ele>66.8</ele>
        <time>2021-03-27T09:59:52Z</time>
      </trkpt>
      <trkpt lat="46.1837" lon="-0.44373">
        <ele>66.8</ele>
        <time>2021-03-27T09:59:53Z</time>
      </trkpt>
      <trkpt lat="46.1837" lon="-0.4435">
        <ele>66.8</ele>
        <time>2021-03-27T09:59:56Z</time>
      </trkpt>
      <trkpt lat="46.18372" lon="-0.44289">
        <ele>66.8</ele>
        <time>2021-03-27T10:00:04Z</time>
      </trkpt>
      <trkpt lat="46.18373" lon="-0.44245">
        <ele>66.8</ele>
        <time>2021-03-27T10:00:09Z</time>
      </trkpt>
      <trkpt lat="46.18373" lon="-0.44236">
        <ele>66.8</ele>
        <time>2021-03-27T10:00:10Z</time>
      </trkpt>
      <trkpt lat="46.18374" lon="-0.44174">
        <ele>66.6</ele>
        <time>2021-03-27T10:00:17Z</time>
      </trkpt>
      <trkpt lat="46.18375" lon="-0.44165">
        <ele>66.6</ele>
        <time>2021-03-27T10:00:18Z</time>
      </trkpt>
      <trkpt lat="46.18375" lon="-0.44149">
        <ele>67</ele>
        <time>2021-03-27T10:00:20Z</time>
      </trkpt>
      <trkpt lat="46.18374" lon="-0.44142">
        <ele>67</ele>
        <time>2021-03-27T10:00:21Z</time>
      </trkpt>
      <trkpt lat="46.18374" lon="-0.44135">
        <ele>67.2</ele>
        <time>2021-03-27T10:00:22Z</time>
      </trkpt>
      <trkpt lat="46.18374" lon="-0.44128">
        <ele>67.2</ele>
        <time>2021-03-27T10:00:23Z</time>
      </trkpt>
      <trkpt lat="46.18374" lon="-0.44121">
        <ele>67.4</ele>
        <time>2021-03-27T10:00:24Z</time>
      </trkpt>
      <trkpt lat="46.18373" lon="-0.44113">
        <ele>67.4</ele>
        <time>2021-03-27T10:00:25Z</time>
      </trkpt>
      <trkpt lat="46.18372" lon="-0.44091">
        <ele>67.8</ele>
        <time>2021-03-27T10:00:28Z</time>
      </trkpt>
      <trkpt lat="46.18369" lon="-0.44068">
        <ele>68</ele>
        <time>2021-03-27T10:00:31Z</time>
      </trkpt>
      <trkpt lat="46.18362" lon="-0.44011">
        <ele>68.4</ele>
        <time>2021-03-27T10:00:38Z</time>
      </trkpt>
      <trkpt lat="46.18358" lon="-0.43962">
        <ele>68.6</ele>
        <time>2021-03-27T10:00:43Z</time>
      </trkpt>
      <trkpt lat="46.18358" lon="-0.43954">
        <ele>68.6</ele>
        <time>2021-03-27T10:00:44Z</time>
      </trkpt>
      <trkpt lat="46.18358" lon="-0.43946">
        <ele>68.8</ele>
        <time>2021-03-27T10:00:45Z</time>
      </trkpt>
      <trkpt lat="46.18358" lon="-0.43938">
        <ele>68.8</ele>
        <time>2021-03-27T10:00:46Z</time>
      </trkpt>
      <trkpt lat="46.18359" lon="-0.4393">
        <ele>68.8</ele>
        <time>2021-03-27T10:00:47Z</time>
      </trkpt>
      <trkpt lat="46.18359" lon="-0.43921">
        <ele>69</ele>
        <time>2021-03-27T10:00:48Z</time>
      </trkpt>
      <trkpt lat="46.18364" lon="-0.43856">
        <ele>69.4</ele>
        <time>2021-03-27T10:00:55Z</time>
      </trkpt>
      <trkpt lat="46.18363" lon="-0.43781">
        <ele>69.6</ele>
        <time>2021-03-27T10:01:03Z</time>
      </trkpt>
      <trkpt lat="46.18363" lon="-0.43764">
        <ele>69.8</ele>
        <time>2021-03-27T10:01:05Z</time>
      </trkpt>
      <trkpt lat="46.18362" lon="-0.43738">
        <ele>69.8</ele>
        <time>2021-03-27T10:01:08Z</time>
      </trkpt>
      <trkpt lat="46.18363" lon="-0.4373">
        <ele>69.8</ele>
        <time>2021-03-27T10:01:09Z</time>
      </trkpt>
      <trkpt lat="46.18363" lon="-0.43722">
        <ele>69.8</ele>
        <time>2021-03-27T10:01:10Z</time>
      </trkpt>
      <trkpt lat="46.18363" lon="-0.43714">
        <ele>70</ele>
        <time>2021-03-27T10:01:11Z</time>
      </trkpt>
      <trkpt lat="46.18363" lon="-0.43705">
        <ele>70</ele>
        <time>2021-03-27T10:01:12Z</time>
      </trkpt>
      <trkpt lat="46.18364" lon="-0.43697">
        <ele>70</ele>
        <time>2021-03-27T10:01:13Z</time>
      </trkpt>
      <trkpt lat="46.18364" lon="-0.43689">
        <ele>70.2</ele>
        <time>2021-03-27T10:01:14Z</time>
      </trkpt>
      <trkpt lat="46.18364" lon="-0.43681">
        <ele>70.2</ele>
        <time>2021-03-27T10:01:15Z</time>
      </trkpt>
      <trkpt lat="46.18364" lon="-0.43673">
        <ele>70.4</ele>
        <time>2021-03-27T10:01:16Z</time>
      </trkpt>
      <trkpt lat="46.18363" lon="-0.43664">
        <ele>70.4</ele>
        <time>2021-03-27T10:01:17Z</time>
      </trkpt>
      <trkpt lat="46.18363" lon="-0.43655">
        <ele>70.4</ele>
        <time>2021-03-27T10:01:18Z</time>
      </trkpt>
      <trkpt lat="46.18363" lon="-0.4362">
        <ele>70.8</ele>
        <time>2021-03-27T10:01:22Z</time>
      </trkpt>
      <trkpt lat="46.18362" lon="-0.43603">
        <ele>71</ele>
        <time>2021-03-27T10:01:24Z</time>
      </trkpt>
      <trkpt lat="46.18361" lon="-0.43542">
        <ele>71.6</ele>
        <time>2021-03-27T10:01:31Z</time>
      </trkpt>
      <trkpt lat="46.1836" lon="-0.43534">
        <ele>71.8</ele>
        <time>2021-03-27T10:01:32Z</time>
      </trkpt>
      <trkpt lat="46.1836" lon="-0.43525">
        <ele>71.8</ele>
        <time>2021-03-27T10:01:33Z</time>
      </trkpt>
      <trkpt lat="46.1836" lon="-0.43502">
        <ele>72</ele>
        <time>2021-03-27T10:01:36Z</time>
      </trkpt>
      <trkpt lat="46.18361" lon="-0.43495">
        <ele>72</ele>
        <time>2021-03-27T10:01:37Z</time>
      </trkpt>
      <trkpt lat="46.18361" lon="-0.43488">
        <ele>72.2</ele>
        <time>2021-03-27T10:01:38Z</time>
      </trkpt>
      <trkpt lat="46.18361" lon="-0.43481">
        <ele>72.2</ele>
        <time>2021-03-27T10:01:39Z</time>
      </trkpt>
      <trkpt lat="46.18361" lon="-0.43474">
        <ele>72.2</ele>
        <time>2021-03-27T10:01:40Z</time>
      </trkpt>
      <trkpt lat="46.1836" lon="-0.43452">
        <ele>72.2</ele>
        <time>2021-03-27T10:01:43Z</time>
      </trkpt>
      <trkpt lat="46.1836" lon="-0.43445">
        <ele>72.2</ele>
        <time>2021-03-27T10:01:44Z</time>
      </trkpt>
      <trkpt lat="46.1836" lon="-0.43438">
        <ele>72.2</ele>
        <time>2021-03-27T10:01:45Z</time>
      </trkpt>
      <trkpt lat="46.18357" lon="-0.43415">
        <ele>72.2</ele>
        <time>2021-03-27T10:01:48Z</time>
      </trkpt>
      <trkpt lat="46.18355" lon="-0.43401">
        <ele>72.4</ele>
        <time>2021-03-27T10:01:50Z</time>
      </trkpt>
      <trkpt lat="46.18353" lon="-0.43385">
        <ele>72.4</ele>
        <time>2021-03-27T10:01:52Z</time>
      </trkpt>
      <trkpt lat="46.18349" lon="-0.43358">
        <ele>72.2</ele>
        <time>2021-03-27T10:01:55Z</time>
      </trkpt>
      <trkpt lat="46.18345" lon="-0.43332">
        <ele>72</ele>
        <time>2021-03-27T10:01:58Z</time>
      </trkpt>
      <trkpt lat="46.18345" lon="-0.43323">
        <ele>71.8</ele>
        <time>2021-03-27T10:01:59Z</time>
      </trkpt>
      <trkpt lat="46.18344" lon="-0.43315">
        <ele>71.8</ele>
        <time>2021-03-27T10:02:00Z</time>
      </trkpt>
      <trkpt lat="46.18344" lon="-0.43306">
        <ele>71.8</ele>
        <time>2021-03-27T10:02:01Z</time>
      </trkpt>
      <trkpt lat="46.18344" lon="-0.43296">
        <ele>71.6</ele>
        <time>2021-03-27T10:02:02Z</time>
      </trkpt>
      <trkpt lat="46.18345" lon="-0.43261">
        <ele>71.6</ele>
        <time>2021-03-27T10:02:06Z</time>
      </trkpt>
      <trkpt lat="46.18345" lon="-0.43254">
        <ele>71.6</ele>
        <time>2021-03-27T10:02:07Z</time>
      </trkpt>
      <trkpt lat="46.18345" lon="-0.43247">
        <ele>71.6</ele>
        <time>2021-03-27T10:02:08Z</time>
      </trkpt>
      <trkpt lat="46.18345" lon="-0.4324">
        <ele>71.6</ele>
        <time>2021-03-27T10:02:09Z</time>
      </trkpt>
      <trkpt lat="46.18346" lon="-0.43233">
        <ele>71.6</ele>
        <time>2021-03-27T10:02:10Z</time>
      </trkpt>
      <trkpt lat="46.18347" lon="-0.43228">
        <ele>71.6</ele>
        <time>2021-03-27T10:02:11Z</time>
      </trkpt>
      <trkpt lat="46.18347" lon="-0.43223">
        <ele>71.6</ele>
        <time>2021-03-27T10:02:12Z</time>
      </trkpt>
      <trkpt lat="46.18347" lon="-0.43218">
        <ele>71.6</ele>
        <time>2021-03-27T10:02:13Z</time>
      </trkpt>
      <trkpt lat="46.18348" lon="-0.43214">
        <ele>71.6</ele>
        <time>2021-03-27T10:02:14Z</time>
      </trkpt>
      <trkpt lat="46.18348" lon="-0.4321">
        <ele>71.8</ele>
        <time>2021-03-27T10:02:15Z</time>
      </trkpt>
      <trkpt lat="46.1835" lon="-0.43206">
        <ele>71.8</ele>
        <time>2021-03-27T10:02:16Z</time>
      </trkpt>
      <trkpt lat="46.18363" lon="-0.43177">
        <ele>72.6</ele>
        <time>2021-03-27T10:02:22Z</time>
      </trkpt>
      <trkpt lat="46.1838" lon="-0.4314">
        <ele>73</ele>
        <time>2021-03-27T10:02:29Z</time>
      </trkpt>
      <trkpt lat="46.18394" lon="-0.43112">
        <ele>73</ele>
        <time>2021-03-27T10:02:34Z</time>
      </trkpt>
      <trkpt lat="46.18397" lon="-0.43107">
        <ele>73.2</ele>
        <time>2021-03-27T10:02:35Z</time>
      </trkpt>
      <trkpt lat="46.18405" lon="-0.43089">
        <ele>73.2</ele>
        <time>2021-03-27T10:02:38Z</time>
      </trkpt>
      <trkpt lat="46.1842" lon="-0.43051">
        <ele>73.8</ele>
        <time>2021-03-27T10:02:44Z</time>
      </trkpt>
      <trkpt lat="46.18429" lon="-0.43026">
        <ele>74</ele>
        <time>2021-03-27T10:02:48Z</time>
      </trkpt>
      <trkpt lat="46.18437" lon="-0.43009">
        <ele>74.2</ele>
        <time>2021-03-27T10:02:51Z</time>
      </trkpt>
      <trkpt lat="46.1844" lon="-0.43002">
        <ele>74.4</ele>
        <time>2021-03-27T10:02:52Z</time>
      </trkpt>
      <trkpt lat="46.18447" lon="-0.42985">
        <ele>74.8</ele>
        <time>2021-03-27T10:02:55Z</time>
      </trkpt>
      <trkpt lat="46.1845" lon="-0.42979">
        <ele>74.8</ele>
        <time>2021-03-27T10:02:56Z</time>
      </trkpt>
      <trkpt lat="46.18453" lon="-0.42973">
        <ele>75</ele>
        <time>2021-03-27T10:02:57Z</time>
      </trkpt>
      <trkpt lat="46.18456" lon="-0.42968">
        <ele>75.2</ele>
        <time>2021-03-27T10:02:58Z</time>
      </trkpt>
      <trkpt lat="46.18458" lon="-0.42962">
        <ele>75.2</ele>
        <time>2021-03-27T10:02:59Z</time>
      </trkpt>
      <trkpt lat="46.18465" lon="-0.42952">
        <ele>75.4</ele>
        <time>2021-03-27T10:03:01Z</time>
      </trkpt>
      <trkpt lat="46.18468" lon="-0.42948">
        <ele>75.6</ele>
        <time>2021-03-27T10:03:02Z</time>
      </trkpt>
      <trkpt lat="46.18472" lon="-0.42943">
        <ele>75.6</ele>
        <time>2021-03-27T10:03:03Z</time>
      </trkpt>
      <trkpt lat="46.18476" lon="-0.42938">
        <ele>75.6</ele>
        <time>2021-03-27T10:03:04Z</time>
      </trkpt>
      <trkpt lat="46.18487" lon="-0.42924">
        <ele>75.8</ele>
        <time>2021-03-27T10:03:07Z</time>
      </trkpt>
      <trkpt lat="46.18494" lon="-0.42914">
        <ele>76</ele>
        <time>2021-03-27T10:03:09Z</time>
      </trkpt>
      <trkpt lat="46.1851" lon="-0.42895">
        <ele>76.2</ele>
        <time>2021-03-27T10:03:13Z</time>
      </trkpt>
      <trkpt lat="46.18519" lon="-0.42886">
        <ele>76.4</ele>
        <time>2021-03-27T10:03:15Z</time>
      </trkpt>
      <trkpt lat="46.18534" lon="-0.42868">
        <ele>77</ele>
        <time>2021-03-27T10:03:19Z</time>
      </trkpt>
      <trkpt lat="46.18541" lon="-0.4286">
        <ele>77.2</ele>
        <time>2021-03-27T10:03:21Z</time>
      </trkpt>
      <trkpt lat="46.18544" lon="-0.42856">
        <ele>77.4</ele>
        <time>2021-03-27T10:03:22Z</time>
      </trkpt>
      <trkpt lat="46.18548" lon="-0.42853">
        <ele>77.4</ele>
        <time>2021-03-27T10:03:23Z</time>
      </trkpt>
      <trkpt lat="46.18551" lon="-0.4285">
        <ele>77.6</ele>
        <time>2021-03-27T10:03:24Z</time>
      </trkpt>
      <trkpt lat="46.18555" lon="-0.42847">
        <ele>77.6</ele>
        <time>2021-03-27T10:03:25Z</time>
      </trkpt>
      <trkpt lat="46.18557" lon="-0.42844">
        <ele>77.6</ele>
        <time>2021-03-27T10:03:26Z</time>
      </trkpt>
      <trkpt lat="46.1856" lon="-0.42841">
        <ele>77.8</ele>
        <time>2021-03-27T10:03:27Z</time>
      </trkpt>
      <trkpt lat="46.18562" lon="-0.42838">
        <ele>77.8</ele>
        <time>2021-03-27T10:03:28Z</time>
      </trkpt>
      <trkpt lat="46.18564" lon="-0.42836">
        <ele>77.8</ele>
        <time>2021-03-27T10:03:29Z</time>
      </trkpt>
      <trkpt lat="46.18567" lon="-0.42834">
        <ele>77.8</ele>
        <time>2021-03-27T10:03:30Z</time>
      </trkpt>
      <trkpt lat="46.1857" lon="-0.42832">
        <ele>77.8</ele>
        <time>2021-03-27T10:03:31Z</time>
      </trkpt>
      <trkpt lat="46.18581" lon="-0.42822">
        <ele>78</ele>
        <time>2021-03-27T10:03:34Z</time>
      </trkpt>
      <trkpt lat="46.18602" lon="-0.42804">
        <ele>78.2</ele>
        <time>2021-03-27T10:03:39Z</time>
      </trkpt>
      <trkpt lat="46.18615" lon="-0.42793">
        <ele>78.2</ele>
        <time>2021-03-27T10:03:42Z</time>
      </trkpt>
      <trkpt lat="46.18639" lon="-0.42771">
        <ele>78</ele>
        <time>2021-03-27T10:03:47Z</time>
      </trkpt>
      <trkpt lat="46.18648" lon="-0.42762">
        <ele>78</ele>
        <time>2021-03-27T10:03:49Z</time>
      </trkpt>
      <trkpt lat="46.18652" lon="-0.42757">
        <ele>77.8</ele>
        <time>2021-03-27T10:03:50Z</time>
      </trkpt>
      <trkpt lat="46.18657" lon="-0.42752">
        <ele>77.6</ele>
        <time>2021-03-27T10:03:51Z</time>
      </trkpt>
      <trkpt lat="46.18674" lon="-0.42735">
        <ele>77</ele>
        <time>2021-03-27T10:03:55Z</time>
      </trkpt>
      <trkpt lat="46.18679" lon="-0.42732">
        <ele>77</ele>
        <time>2021-03-27T10:03:56Z</time>
      </trkpt>
      <trkpt lat="46.18684" lon="-0.42728">
        <ele>77</ele>
        <time>2021-03-27T10:03:57Z</time>
      </trkpt>
      <trkpt lat="46.18688" lon="-0.42723">
        <ele>76.8</ele>
        <time>2021-03-27T10:03:58Z</time>
      </trkpt>
      <trkpt lat="46.18709" lon="-0.42699">
        <ele>76.4</ele>
        <time>2021-03-27T10:04:03Z</time>
      </trkpt>
      <trkpt lat="46.18714" lon="-0.42694">
        <ele>76.2</ele>
        <time>2021-03-27T10:04:04Z</time>
      </trkpt>
      <trkpt lat="46.18741" lon="-0.42669">
        <ele>74.6</ele>
        <time>2021-03-27T10:04:10Z</time>
      </trkpt>
      <trkpt lat="46.1875" lon="-0.42662">
        <ele>73.2</ele>
        <time>2021-03-27T10:04:12Z</time>
      </trkpt>
      <trkpt lat="46.18755" lon="-0.42659">
        <ele>72.6</ele>
        <time>2021-03-27T10:04:13Z</time>
      </trkpt>
      <trkpt lat="46.18766" lon="-0.42651">
        <ele>72</ele>
        <time>2021-03-27T10:04:15Z</time>
      </trkpt>
      <trkpt lat="46.18772" lon="-0.42646">
        <ele>72</ele>
        <time>2021-03-27T10:04:16Z</time>
      </trkpt>
      <trkpt lat="46.18777" lon="-0.42641">
        <ele>71.8</ele>
        <time>2021-03-27T10:04:17Z</time>
      </trkpt>
      <trkpt lat="46.18802" lon="-0.42618">
        <ele>70.8</ele>
        <time>2021-03-27T10:04:21Z</time>
      </trkpt>
      <trkpt lat="46.18809" lon="-0.4261">
        <ele>70.4</ele>
        <time>2021-03-27T10:04:22Z</time>
      </trkpt>
      <trkpt lat="46.18823" lon="-0.42595">
        <ele>69.8</ele>
        <time>2021-03-27T10:04:24Z</time>
      </trkpt>
      <trkpt lat="46.18839" lon="-0.42581">
        <ele>68.4</ele>
        <time>2021-03-27T10:04:26Z</time>
      </trkpt>
      <trkpt lat="46.18854" lon="-0.42567">
        <ele>67</ele>
        <time>2021-03-27T10:04:28Z</time>
      </trkpt>
      <trkpt lat="46.18862" lon="-0.4256">
        <ele>66.2</ele>
        <time>2021-03-27T10:04:29Z</time>
      </trkpt>
      <trkpt lat="46.18869" lon="-0.42553">
        <ele>65.2</ele>
        <time>2021-03-27T10:04:30Z</time>
      </trkpt>
      <trkpt lat="46.18877" lon="-0.42546">
        <ele>64.2</ele>
        <time>2021-03-27T10:04:31Z</time>
      </trkpt>
      <trkpt lat="46.18885" lon="-0.42539">
        <ele>63</ele>
        <time>2021-03-27T10:04:32Z</time>
      </trkpt>
      <trkpt lat="46.189" lon="-0.42525">
        <ele>61.4</ele>
        <time>2021-03-27T10:04:34Z</time>
      </trkpt>
      <trkpt lat="46.18907" lon="-0.42519">
        <ele>60.8</ele>
        <time>2021-03-27T10:04:35Z</time>
      </trkpt>
      <trkpt lat="46.18915" lon="-0.42513">
        <ele>59.6</ele>
        <time>2021-03-27T10:04:36Z</time>
      </trkpt>
      <trkpt lat="46.18928" lon="-0.42502">
        <ele>58.4</ele>
        <time>2021-03-27T10:04:38Z</time>
      </trkpt>
      <trkpt lat="46.18935" lon="-0.42497">
        <ele>57.8</ele>
        <time>2021-03-27T10:04:39Z</time>
      </trkpt>
      <trkpt lat="46.18941" lon="-0.42493">
        <ele>56.8</ele>
        <time>2021-03-27T10:04:40Z</time>
      </trkpt>
      <trkpt lat="46.18946" lon="-0.4249">
        <ele>56.4</ele>
        <time>2021-03-27T10:04:41Z</time>
      </trkpt>
      <trkpt lat="46.18951" lon="-0.42487">
        <ele>56</ele>
        <time>2021-03-27T10:04:42Z</time>
      </trkpt>
      <trkpt lat="46.18956" lon="-0.42484">
        <ele>55.6</ele>
        <time>2021-03-27T10:04:43Z</time>
      </trkpt>
      <trkpt lat="46.1896" lon="-0.42481">
        <ele>55.6</ele>
        <time>2021-03-27T10:04:44Z</time>
      </trkpt>
      <trkpt lat="46.18965" lon="-0.42479">
        <ele>55.4</ele>
        <time>2021-03-27T10:04:45Z</time>
      </trkpt>
      <trkpt lat="46.18969" lon="-0.42476">
        <ele>55.4</ele>
        <time>2021-03-27T10:04:46Z</time>
      </trkpt>
      <trkpt lat="46.18973" lon="-0.42473">
        <ele>55.4</ele>
        <time>2021-03-27T10:04:47Z</time>
      </trkpt>
      <trkpt lat="46.18977" lon="-0.42471">
        <ele>55.4</ele>
        <time>2021-03-27T10:04:48Z</time>
      </trkpt>
      <trkpt lat="46.18984" lon="-0.42466">
        <ele>55.4</ele>
        <time>2021-03-27T10:04:50Z</time>
      </trkpt>
      <trkpt lat="46.18987" lon="-0.42463">
        <ele>55.4</ele>
        <time>2021-03-27T10:04:51Z</time>
      </trkpt>
      <trkpt lat="46.18991" lon="-0.42461">
        <ele>55.2</ele>
        <time>2021-03-27T10:04:52Z</time>
      </trkpt>
      <trkpt lat="46.18994" lon="-0.42459">
        <ele>55.2</ele>
        <time>2021-03-27T10:04:53Z</time>
      </trkpt>
      <trkpt lat="46.18997" lon="-0.42456">
        <ele>55.2</ele>
        <time>2021-03-27T10:04:54Z</time>
      </trkpt>
      <trkpt lat="46.19" lon="-0.42454">
        <ele>55.4</ele>
        <time>2021-03-27T10:04:55Z</time>
      </trkpt>
      <trkpt lat="46.19007" lon="-0.42448">
        <ele>55.4</ele>
        <time>2021-03-27T10:04:57Z</time>
      </trkpt>
      <trkpt lat="46.19012" lon="-0.42444">
        <ele>55.4</ele>
        <time>2021-03-27T10:04:59Z</time>
      </trkpt>
      <trkpt lat="46.19015" lon="-0.42441">
        <ele>55.4</ele>
        <time>2021-03-27T10:05:00Z</time>
      </trkpt>
      <trkpt lat="46.19017" lon="-0.42439">
        <ele>55.2</ele>
        <time>2021-03-27T10:05:01Z</time>
      </trkpt>
      <trkpt lat="46.19019" lon="-0.42436">
        <ele>55.2</ele>
        <time>2021-03-27T10:05:02Z</time>
      </trkpt>
      <trkpt lat="46.19021" lon="-0.42434">
        <ele>55.2</ele>
        <time>2021-03-27T10:05:03Z</time>
      </trkpt>
      <trkpt lat="46.19024" lon="-0.42431">
        <ele>55.2</ele>
        <time>2021-03-27T10:05:04Z</time>
      </trkpt>
      <trkpt lat="46.19026" lon="-0.42428">
        <ele>55</ele>
        <time>2021-03-27T10:05:05Z</time>
      </trkpt>
      <trkpt lat="46.19029" lon="-0.42425">
        <ele>55</ele>
        <time>2021-03-27T10:05:06Z</time>
      </trkpt>
      <trkpt lat="46.19031" lon="-0.42422">
        <ele>55</ele>
        <time>2021-03-27T10:05:07Z</time>
      </trkpt>
      <trkpt lat="46.19034" lon="-0.4242">
        <ele>55</ele>
        <time>2021-03-27T10:05:08Z</time>
      </trkpt>
      <trkpt lat="46.19037" lon="-0.42417">
        <ele>55</ele>
        <time>2021-03-27T10:05:09Z</time>
      </trkpt>
      <trkpt lat="46.1906" lon="-0.42393">
        <ele>54.8</ele>
        <time>2021-03-27T10:05:17Z</time>
      </trkpt>
      <trkpt lat="46.1907" lon="-0.42381">
        <ele>54.8</ele>
        <time>2021-03-27T10:05:21Z</time>
      </trkpt>
      <trkpt lat="46.19073" lon="-0.42378">
        <ele>54.8</ele>
        <time>2021-03-27T10:05:22Z</time>
      </trkpt>
      <trkpt lat="46.19076" lon="-0.42374">
        <ele>54.6</ele>
        <time>2021-03-27T10:05:23Z</time>
      </trkpt>
      <trkpt lat="46.19079" lon="-0.42371">
        <ele>54.6</ele>
        <time>2021-03-27T10:05:24Z</time>
      </trkpt>
      <trkpt lat="46.19089" lon="-0.4236">
        <ele>54.4</ele>
        <time>2021-03-27T10:05:27Z</time>
      </trkpt>
      <trkpt lat="46.19115" lon="-0.42328">
        <ele>54</ele>
        <time>2021-03-27T10:05:34Z</time>
      </trkpt>
      <trkpt lat="46.19119" lon="-0.42324">
        <ele>53.8</ele>
        <time>2021-03-27T10:05:35Z</time>
      </trkpt>
      <trkpt lat="46.19137" lon="-0.42302">
        <ele>53.8</ele>
        <time>2021-03-27T10:05:39Z</time>
      </trkpt>
      <trkpt lat="46.19147" lon="-0.4229">
        <ele>53.6</ele>
        <time>2021-03-27T10:05:41Z</time>
      </trkpt>
      <trkpt lat="46.19163" lon="-0.42272">
        <ele>53.4</ele>
        <time>2021-03-27T10:05:44Z</time>
      </trkpt>
      <trkpt lat="46.19178" lon="-0.42254">
        <ele>53</ele>
        <time>2021-03-27T10:05:47Z</time>
      </trkpt>
      <trkpt lat="46.1922" lon="-0.42207">
        <ele>53</ele>
        <time>2021-03-27T10:05:55Z</time>
      </trkpt>
      <trkpt lat="46.19243" lon="-0.42188">
        <ele>52.8</ele>
        <time>2021-03-27T10:05:59Z</time>
      </trkpt>
      <trkpt lat="46.1926" lon="-0.42176">
        <ele>52.8</ele>
        <time>2021-03-27T10:06:02Z</time>
      </trkpt>
      <trkpt lat="46.19281" lon="-0.4216">
        <ele>52.6</ele>
        <time>2021-03-27T10:06:06Z</time>
      </trkpt>
      <trkpt lat="46.19285" lon="-0.42157">
        <ele>52.6</ele>
        <time>2021-03-27T10:06:07Z</time>
      </trkpt>
      <trkpt lat="46.19291" lon="-0.42153">
        <ele>52.6</ele>
        <time>2021-03-27T10:06:08Z</time>
      </trkpt>
      <trkpt lat="46.19296" lon="-0.4215">
        <ele>52.6</ele>
        <time>2021-03-27T10:06:09Z</time>
      </trkpt>
      <trkpt lat="46.19301" lon="-0.42147">
        <ele>52.4</ele>
        <time>2021-03-27T10:06:10Z</time>
      </trkpt>
      <trkpt lat="46.19318" lon="-0.42138">
        <ele>52.4</ele>
        <time>2021-03-27T10:06:13Z</time>
      </trkpt>
      <trkpt lat="46.19323" lon="-0.42135">
        <ele>52.4</ele>
        <time>2021-03-27T10:06:14Z</time>
      </trkpt>
      <trkpt lat="46.19328" lon="-0.42132">
        <ele>52.2</ele>
        <time>2021-03-27T10:06:15Z</time>
      </trkpt>
      <trkpt lat="46.19334" lon="-0.42129">
        <ele>52.2</ele>
        <time>2021-03-27T10:06:16Z</time>
      </trkpt>
      <trkpt lat="46.19374" lon="-0.42106">
        <ele>52</ele>
        <time>2021-03-27T10:06:23Z</time>
      </trkpt>
      <trkpt lat="46.19392" lon="-0.42094">
        <ele>51.8</ele>
        <time>2021-03-27T10:06:26Z</time>
      </trkpt>
      <trkpt lat="46.19398" lon="-0.4209">
        <ele>51.8</ele>
        <time>2021-03-27T10:06:27Z</time>
      </trkpt>
      <trkpt lat="46.19415" lon="-0.42075">
        <ele>51.4</ele>
        <time>2021-03-27T10:06:30Z</time>
      </trkpt>
      <trkpt lat="46.19432" lon="-0.42059">
        <ele>51.2</ele>
        <time>2021-03-27T10:06:33Z</time>
      </trkpt>
      <trkpt lat="46.19447" lon="-0.42043">
        <ele>51</ele>
        <time>2021-03-27T10:06:36Z</time>
      </trkpt>
      <trkpt lat="46.19452" lon="-0.42038">
        <ele>50.6</ele>
        <time>2021-03-27T10:06:37Z</time>
      </trkpt>
      <trkpt lat="46.19489" lon="-0.42">
        <ele>49.8</ele>
        <time>2021-03-27T10:06:44Z</time>
      </trkpt>
      <trkpt lat="46.19513" lon="-0.4197">
        <ele>49.6</ele>
        <time>2021-03-27T10:06:49Z</time>
      </trkpt>
      <trkpt lat="46.19523" lon="-0.41957">
        <ele>49.4</ele>
        <time>2021-03-27T10:06:51Z</time>
      </trkpt>
      <trkpt lat="46.19555" lon="-0.41911">
        <ele>49</ele>
        <time>2021-03-27T10:06:58Z</time>
      </trkpt>
      <trkpt lat="46.19584" lon="-0.41868">
        <ele>48.6</ele>
        <time>2021-03-27T10:07:04Z</time>
      </trkpt>
      <trkpt lat="46.196" lon="-0.41846">
        <ele>48.2</ele>
        <time>2021-03-27T10:07:07Z</time>
      </trkpt>
      <trkpt lat="46.19605" lon="-0.4184">
        <ele>48</ele>
        <time>2021-03-27T10:07:08Z</time>
      </trkpt>
      <trkpt lat="46.1961" lon="-0.41834">
        <ele>48</ele>
        <time>2021-03-27T10:07:09Z</time>
      </trkpt>
      <trkpt lat="46.19615" lon="-0.41829">
        <ele>47.8</ele>
        <time>2021-03-27T10:07:10Z</time>
      </trkpt>
      <trkpt lat="46.1962" lon="-0.41824">
        <ele>47.8</ele>
        <time>2021-03-27T10:07:11Z</time>
      </trkpt>
      <trkpt lat="46.19636" lon="-0.4181">
        <ele>47.6</ele>
        <time>2021-03-27T10:07:14Z</time>
      </trkpt>
      <trkpt lat="46.19642" lon="-0.41805">
        <ele>47.4</ele>
        <time>2021-03-27T10:07:15Z</time>
      </trkpt>
      <trkpt lat="46.19647" lon="-0.41801">
        <ele>47.4</ele>
        <time>2021-03-27T10:07:16Z</time>
      </trkpt>
      <trkpt lat="46.19652" lon="-0.41798">
        <ele>47.4</ele>
        <time>2021-03-27T10:07:17Z</time>
      </trkpt>
      <trkpt lat="46.19655" lon="-0.41794">
        <ele>47.4</ele>
        <time>2021-03-27T10:07:18Z</time>
      </trkpt>
      <trkpt lat="46.19659" lon="-0.41791">
        <ele>47.4</ele>
        <time>2021-03-27T10:07:19Z</time>
      </trkpt>
      <trkpt lat="46.19661" lon="-0.41788">
        <ele>47.4</ele>
        <time>2021-03-27T10:07:20Z</time>
      </trkpt>
      <trkpt lat="46.19664" lon="-0.41785">
        <ele>47.4</ele>
        <time>2021-03-27T10:07:21Z</time>
      </trkpt>
      <trkpt lat="46.19667" lon="-0.41781">
        <ele>47.4</ele>
        <time>2021-03-27T10:07:22Z</time>
      </trkpt>
      <trkpt lat="46.1967" lon="-0.41777">
        <ele>47.4</ele>
        <time>2021-03-27T10:07:23Z</time>
      </trkpt>
      <trkpt lat="46.19674" lon="-0.41772">
        <ele>47.6</ele>
        <time>2021-03-27T10:07:24Z</time>
      </trkpt>
      <trkpt lat="46.19679" lon="-0.41769">
        <ele>47.8</ele>
        <time>2021-03-27T10:07:25Z</time>
      </trkpt>
      <trkpt lat="46.19683" lon="-0.41765">
        <ele>48</ele>
        <time>2021-03-27T10:07:26Z</time>
      </trkpt>
      <trkpt lat="46.19692" lon="-0.41762">
        <ele>48.6</ele>
        <time>2021-03-27T10:07:28Z</time>
      </trkpt>
      <trkpt lat="46.19697" lon="-0.41761">
        <ele>48.6</ele>
        <time>2021-03-27T10:07:29Z</time>
      </trkpt>
      <trkpt lat="46.19701" lon="-0.41759">
        <ele>48.8</ele>
        <time>2021-03-27T10:07:30Z</time>
      </trkpt>
      <trkpt lat="46.19704" lon="-0.41756">
        <ele>49</ele>
        <time>2021-03-27T10:07:31Z</time>
      </trkpt>
      <trkpt lat="46.19708" lon="-0.41754">
        <ele>49</ele>
        <time>2021-03-27T10:07:32Z</time>
      </trkpt>
      <trkpt lat="46.19717" lon="-0.41745">
        <ele>49.4</ele>
        <time>2021-03-27T10:07:35Z</time>
      </trkpt>
      <trkpt lat="46.19719" lon="-0.41743">
        <ele>49.6</ele>
        <time>2021-03-27T10:07:36Z</time>
      </trkpt>
      <trkpt lat="46.19722" lon="-0.41741">
        <ele>49.8</ele>
        <time>2021-03-27T10:07:37Z</time>
      </trkpt>
      <trkpt lat="46.19724" lon="-0.41738">
        <ele>50</ele>
        <time>2021-03-27T10:07:38Z</time>
      </trkpt>
      <trkpt lat="46.19725" lon="-0.41736">
        <ele>50.2</ele>
        <time>2021-03-27T10:07:39Z</time>
      </trkpt>
      <trkpt lat="46.19727" lon="-0.41735">
        <ele>50.4</ele>
        <time>2021-03-27T10:07:40Z</time>
      </trkpt>
      <trkpt lat="46.19729" lon="-0.41733">
        <ele>50.6</ele>
        <time>2021-03-27T10:07:41Z</time>
      </trkpt>
      <trkpt lat="46.1973" lon="-0.41731">
        <ele>50.8</ele>
        <time>2021-03-27T10:07:42Z</time>
      </trkpt>
      <trkpt lat="46.19731" lon="-0.4173">
        <ele>51</ele>
        <time>2021-03-27T10:07:43Z</time>
      </trkpt>
      <trkpt lat="46.19733" lon="-0.41728">
        <ele>51.2</ele>
        <time>2021-03-27T10:07:44Z</time>
      </trkpt>
      <trkpt lat="46.19734" lon="-0.41727">
        <ele>51.4</ele>
        <time>2021-03-27T10:07:45Z</time>
      </trkpt>
      <trkpt lat="46.19735" lon="-0.41726">
        <ele>51.4</ele>
        <time>2021-03-27T10:07:46Z</time>
      </trkpt>
      <trkpt lat="46.19736" lon="-0.41725">
        <ele>51.6</ele>
        <time>2021-03-27T10:07:47Z</time>
      </trkpt>
      <trkpt lat="46.19738" lon="-0.41723">
        <ele>51.6</ele>
        <time>2021-03-27T10:07:48Z</time>
      </trkpt>
      <trkpt lat="46.19739" lon="-0.41723">
        <ele>51.6</ele>
        <time>2021-03-27T10:07:49Z</time>
      </trkpt>
      <trkpt lat="46.1974" lon="-0.41724">
        <ele>51.6</ele>
        <time>2021-03-27T10:07:50Z</time>
      </trkpt>
      <trkpt lat="46.1974" lon="-0.41725">
        <ele>51.6</ele>
        <time>2021-03-27T10:07:51Z</time>
      </trkpt>
      <trkpt lat="46.1974" lon="-0.41726">
        <ele>51.6</ele>
        <time>2021-03-27T10:07:52Z</time>
      </trkpt>
      <trkpt lat="46.1974" lon="-0.41727">
        <ele>51.6</ele>
        <time>2021-03-27T10:07:53Z</time>
      </trkpt>
      <trkpt lat="46.1974" lon="-0.41727">
        <ele>51.8</ele>
        <time>2021-03-27T10:07:54Z</time>
      </trkpt>
      <trkpt lat="46.1974" lon="-0.41727">
        <ele>51.8</ele>
        <time>2021-03-27T10:07:55Z</time>
      </trkpt>
      <trkpt lat="46.19744" lon="-0.4172">
        <ele>50.6</ele>
        <time>2021-03-27T10:19:46Z</time>
      </trkpt>
      <trkpt lat="46.19746" lon="-0.41717">
        <ele>50.6</ele>
        <time>2021-03-27T10:19:47Z</time>
      </trkpt>
      <trkpt lat="46.19748" lon="-0.41715">
        <ele>50.6</ele>
        <time>2021-03-27T10:19:48Z</time>
      </trkpt>
      <trkpt lat="46.19749" lon="-0.41714">
        <ele>50.6</ele>
        <time>2021-03-27T10:19:49Z</time>
      </trkpt>
      <trkpt lat="46.19749" lon="-0.41714">
        <ele>50.6</ele>
        <time>2021-03-27T10:19:50Z</time>
      </trkpt>
      <trkpt lat="46.19749" lon="-0.41713">
        <ele>50.6</ele>
        <time>2021-03-27T10:19:51Z</time>
      </trkpt>
      <trkpt lat="46.19749" lon="-0.41713">
        <ele>50.6</ele>
        <time>2021-03-27T10:19:52Z</time>
      </trkpt>
      <trkpt lat="46.19759" lon="-0.41712">
        <ele>50.4</ele>
        <time>2021-03-27T10:20:00Z</time>
      </trkpt>
      <trkpt lat="46.19763" lon="-0.41713">
        <ele>50.4</ele>
        <time>2021-03-27T10:20:01Z</time>
      </trkpt>
      <trkpt lat="46.19768" lon="-0.41714">
        <ele>50.4</ele>
        <time>2021-03-27T10:20:02Z</time>
      </trkpt>
      <trkpt lat="46.19773" lon="-0.41716">
        <ele>50.4</ele>
        <time>2021-03-27T10:20:03Z</time>
      </trkpt>
      <trkpt lat="46.19795" lon="-0.41725">
        <ele>50.4</ele>
        <time>2021-03-27T10:20:07Z</time>
      </trkpt>
      <trkpt lat="46.19806" lon="-0.41733">
        <ele>50</ele>
        <time>2021-03-27T10:20:09Z</time>
      </trkpt>
      <trkpt lat="46.1981" lon="-0.41739">
        <ele>49.6</ele>
        <time>2021-03-27T10:20:10Z</time>
      </trkpt>
      <trkpt lat="46.19812" lon="-0.41747">
        <ele>49.2</ele>
        <time>2021-03-27T10:20:11Z</time>
      </trkpt>
      <trkpt lat="46.19815" lon="-0.41754">
        <ele>48.8</ele>
        <time>2021-03-27T10:20:12Z</time>
      </trkpt>
      <trkpt lat="46.19817" lon="-0.41762">
        <ele>48.8</ele>
        <time>2021-03-27T10:20:13Z</time>
      </trkpt>
      <trkpt lat="46.19817" lon="-0.41769">
        <ele>48.4</ele>
        <time>2021-03-27T10:20:14Z</time>
      </trkpt>
      <trkpt lat="46.19818" lon="-0.41777">
        <ele>48</ele>
        <time>2021-03-27T10:20:15Z</time>
      </trkpt>
      <trkpt lat="46.19818" lon="-0.41786">
        <ele>47.8</ele>
        <time>2021-03-27T10:20:16Z</time>
      </trkpt>
      <trkpt lat="46.19816" lon="-0.41803">
        <ele>47.6</ele>
        <time>2021-03-27T10:20:18Z</time>
      </trkpt>
      <trkpt lat="46.19816" lon="-0.41811">
        <ele>47.4</ele>
        <time>2021-03-27T10:20:19Z</time>
      </trkpt>
      <trkpt lat="46.19815" lon="-0.41818">
        <ele>47.4</ele>
        <time>2021-03-27T10:20:20Z</time>
      </trkpt>
      <trkpt lat="46.19814" lon="-0.41849">
        <ele>47.4</ele>
        <time>2021-03-27T10:20:24Z</time>
      </trkpt>
      <trkpt lat="46.19813" lon="-0.41857">
        <ele>47.4</ele>
        <time>2021-03-27T10:20:25Z</time>
      </trkpt>
      <trkpt lat="46.19813" lon="-0.41865">
        <ele>47.4</ele>
        <time>2021-03-27T10:20:26Z</time>
      </trkpt>
      <trkpt lat="46.19813" lon="-0.41872">
        <ele>47.4</ele>
        <time>2021-03-27T10:20:27Z</time>
      </trkpt>
      <trkpt lat="46.19813" lon="-0.41879">
        <ele>47.4</ele>
        <time>2021-03-27T10:20:28Z</time>
      </trkpt>
      <trkpt lat="46.19814" lon="-0.41915">
        <ele>47.4</ele>
        <time>2021-03-27T10:20:33Z</time>
      </trkpt>
      <trkpt lat="46.19814" lon="-0.41921">
        <ele>47.4</ele>
        <time>2021-03-27T10:20:34Z</time>
      </trkpt>
      <trkpt lat="46.19815" lon="-0.41928">
        <ele>47.4</ele>
        <time>2021-03-27T10:20:35Z</time>
      </trkpt>
      <trkpt lat="46.19816" lon="-0.41934">
        <ele>47.4</ele>
        <time>2021-03-27T10:20:36Z</time>
      </trkpt>
      <trkpt lat="46.19817" lon="-0.4194">
        <ele>47.4</ele>
        <time>2021-03-27T10:20:37Z</time>
      </trkpt>
      <trkpt lat="46.19817" lon="-0.41946">
        <ele>47.2</ele>
        <time>2021-03-27T10:20:38Z</time>
      </trkpt>
      <trkpt lat="46.19818" lon="-0.41952">
        <ele>47.2</ele>
        <time>2021-03-27T10:20:39Z</time>
      </trkpt>
      <trkpt lat="46.19819" lon="-0.41958">
        <ele>47.2</ele>
        <time>2021-03-27T10:20:40Z</time>
      </trkpt>
      <trkpt lat="46.19819" lon="-0.41964">
        <ele>47.2</ele>
        <time>2021-03-27T10:20:41Z</time>
      </trkpt>
      <trkpt lat="46.1982" lon="-0.41972">
        <ele>47</ele>
        <time>2021-03-27T10:20:42Z</time>
      </trkpt>
      <trkpt lat="46.19821" lon="-0.41979">
        <ele>47</ele>
        <time>2021-03-27T10:20:43Z</time>
      </trkpt>
      <trkpt lat="46.19822" lon="-0.41985">
        <ele>47</ele>
        <time>2021-03-27T10:20:44Z</time>
      </trkpt>
      <trkpt lat="46.19823" lon="-0.41992">
        <ele>47</ele>
        <time>2021-03-27T10:20:45Z</time>
      </trkpt>
      <trkpt lat="46.19826" lon="-0.42028">
        <ele>46.6</ele>
        <time>2021-03-27T10:20:51Z</time>
      </trkpt>
      <trkpt lat="46.19827" lon="-0.42094">
        <ele>46.4</ele>
        <time>2021-03-27T10:21:00Z</time>
      </trkpt>
      <trkpt lat="46.19826" lon="-0.42123">
        <ele>46</ele>
        <time>2021-03-27T10:21:04Z</time>
      </trkpt>
      <trkpt lat="46.19825" lon="-0.42153">
        <ele>45.6</ele>
        <time>2021-03-27T10:21:08Z</time>
      </trkpt>
      <trkpt lat="46.19825" lon="-0.42182">
        <ele>45.4</ele>
        <time>2021-03-27T10:21:12Z</time>
      </trkpt>
      <trkpt lat="46.19825" lon="-0.42189">
        <ele>45.4</ele>
        <time>2021-03-27T10:21:13Z</time>
      </trkpt>
      <trkpt lat="46.19825" lon="-0.42196">
        <ele>45.2</ele>
        <time>2021-03-27T10:21:14Z</time>
      </trkpt>
      <trkpt lat="46.19824" lon="-0.42203">
        <ele>45.2</ele>
        <time>2021-03-27T10:21:15Z</time>
      </trkpt>
      <trkpt lat="46.19824" lon="-0.42236">
        <ele>45</ele>
        <time>2021-03-27T10:21:19Z</time>
      </trkpt>
      <trkpt lat="46.19823" lon="-0.42252">
        <ele>44.8</ele>
        <time>2021-03-27T10:21:21Z</time>
      </trkpt>
      <trkpt lat="46.19823" lon="-0.4226">
        <ele>44.8</ele>
        <time>2021-03-27T10:21:22Z</time>
      </trkpt>
      <trkpt lat="46.19823" lon="-0.42268">
        <ele>44.8</ele>
        <time>2021-03-27T10:21:23Z</time>
      </trkpt>
      <trkpt lat="46.19823" lon="-0.42276">
        <ele>44.8</ele>
        <time>2021-03-27T10:21:24Z</time>
      </trkpt>
      <trkpt lat="46.19824" lon="-0.42314">
        <ele>44.2</ele>
        <time>2021-03-27T10:21:29Z</time>
      </trkpt>
      <trkpt lat="46.19825" lon="-0.42322">
        <ele>44.2</ele>
        <time>2021-03-27T10:21:30Z</time>
      </trkpt>
      <trkpt lat="46.19825" lon="-0.4233">
        <ele>44</ele>
        <time>2021-03-27T10:21:31Z</time>
      </trkpt>
      <trkpt lat="46.19831" lon="-0.42355">
        <ele>44</ele>
        <time>2021-03-27T10:21:34Z</time>
      </trkpt>
      <trkpt lat="46.19834" lon="-0.42363">
        <ele>44</ele>
        <time>2021-03-27T10:21:35Z</time>
      </trkpt>
      <trkpt lat="46.19837" lon="-0.42371">
        <ele>44</ele>
        <time>2021-03-27T10:21:36Z</time>
      </trkpt>
      <trkpt lat="46.19843" lon="-0.42388">
        <ele>43.8</ele>
        <time>2021-03-27T10:21:38Z</time>
      </trkpt>
      <trkpt lat="46.19854" lon="-0.42411">
        <ele>43.8</ele>
        <time>2021-03-27T10:21:41Z</time>
      </trkpt>
      <trkpt lat="46.19858" lon="-0.42419">
        <ele>43.8</ele>
        <time>2021-03-27T10:21:42Z</time>
      </trkpt>
      <trkpt lat="46.19896" lon="-0.42484">
        <ele>44</ele>
        <time>2021-03-27T10:21:51Z</time>
      </trkpt>
      <trkpt lat="46.19933" lon="-0.42545">
        <ele>44.4</ele>
        <time>2021-03-27T10:21:59Z</time>
      </trkpt>
      <trkpt lat="46.19942" lon="-0.4256">
        <ele>44.6</ele>
        <time>2021-03-27T10:22:01Z</time>
      </trkpt>
      <trkpt lat="46.19951" lon="-0.42575">
        <ele>45</ele>
        <time>2021-03-27T10:22:03Z</time>
      </trkpt>
      <trkpt lat="46.19964" lon="-0.42598">
        <ele>45.4</ele>
        <time>2021-03-27T10:22:06Z</time>
      </trkpt>
      <trkpt lat="46.19972" lon="-0.42613">
        <ele>46.4</ele>
        <time>2021-03-27T10:22:08Z</time>
      </trkpt>
      <trkpt lat="46.19976" lon="-0.42621">
        <ele>46.6</ele>
        <time>2021-03-27T10:22:09Z</time>
      </trkpt>
      <trkpt lat="46.19984" lon="-0.42637">
        <ele>47</ele>
        <time>2021-03-27T10:22:11Z</time>
      </trkpt>
      <trkpt lat="46.19987" lon="-0.42645">
        <ele>47.4</ele>
        <time>2021-03-27T10:22:12Z</time>
      </trkpt>
      <trkpt lat="46.19991" lon="-0.42653">
        <ele>47.6</ele>
        <time>2021-03-27T10:22:13Z</time>
      </trkpt>
      <trkpt lat="46.19994" lon="-0.42661">
        <ele>47.8</ele>
        <time>2021-03-27T10:22:14Z</time>
      </trkpt>
      <trkpt lat="46.19997" lon="-0.42669">
        <ele>48</ele>
        <time>2021-03-27T10:22:15Z</time>
      </trkpt>
      <trkpt lat="46.2" lon="-0.42677">
        <ele>48.2</ele>
        <time>2021-03-27T10:22:16Z</time>
      </trkpt>
      <trkpt lat="46.20003" lon="-0.42684">
        <ele>48.4</ele>
        <time>2021-03-27T10:22:17Z</time>
      </trkpt>
      <trkpt lat="46.20006" lon="-0.42691">
        <ele>48.4</ele>
        <time>2021-03-27T10:22:18Z</time>
      </trkpt>
      <trkpt lat="46.20008" lon="-0.42697">
        <ele>48.6</ele>
        <time>2021-03-27T10:22:19Z</time>
      </trkpt>
      <trkpt lat="46.20011" lon="-0.42702">
        <ele>48.8</ele>
        <time>2021-03-27T10:22:20Z</time>
      </trkpt>
      <trkpt lat="46.20015" lon="-0.42706">
        <ele>49</ele>
        <time>2021-03-27T10:22:21Z</time>
      </trkpt>
      <trkpt lat="46.20019" lon="-0.42706">
        <ele>49.2</ele>
        <time>2021-03-27T10:22:22Z</time>
      </trkpt>
      <trkpt lat="46.20023" lon="-0.42704">
        <ele>49.4</ele>
        <time>2021-03-27T10:22:23Z</time>
      </trkpt>
      <trkpt lat="46.20027" lon="-0.427">
        <ele>49.4</ele>
        <time>2021-03-27T10:22:24Z</time>
      </trkpt>
      <trkpt lat="46.2003" lon="-0.42694">
        <ele>49.4</ele>
        <time>2021-03-27T10:22:25Z</time>
      </trkpt>
      <trkpt lat="46.20033" lon="-0.42686">
        <ele>49.4</ele>
        <time>2021-03-27T10:22:26Z</time>
      </trkpt>
      <trkpt lat="46.20036" lon="-0.42676">
        <ele>49.4</ele>
        <time>2021-03-27T10:22:27Z</time>
      </trkpt>
      <trkpt lat="46.20039" lon="-0.42667">
        <ele>49.4</ele>
        <time>2021-03-27T10:22:28Z</time>
      </trkpt>
      <trkpt lat="46.20042" lon="-0.42659">
        <ele>49.4</ele>
        <time>2021-03-27T10:22:29Z</time>
      </trkpt>
      <trkpt lat="46.20046" lon="-0.42651">
        <ele>49.4</ele>
        <time>2021-03-27T10:22:30Z</time>
      </trkpt>
      <trkpt lat="46.20049" lon="-0.42644">
        <ele>49.4</ele>
        <time>2021-03-27T10:22:31Z</time>
      </trkpt>
      <trkpt lat="46.20053" lon="-0.42638">
        <ele>49.4</ele>
        <time>2021-03-27T10:22:32Z</time>
      </trkpt>
      <trkpt lat="46.20057" lon="-0.42632">
        <ele>49.4</ele>
        <time>2021-03-27T10:22:33Z</time>
      </trkpt>
      <trkpt lat="46.20062" lon="-0.42625">
        <ele>49.4</ele>
        <time>2021-03-27T10:22:34Z</time>
      </trkpt>
      <trkpt lat="46.20066" lon="-0.42619">
        <ele>49.2</ele>
        <time>2021-03-27T10:22:35Z</time>
      </trkpt>
      <trkpt lat="46.2007" lon="-0.42612">
        <ele>48.4</ele>
        <time>2021-03-27T10:22:36Z</time>
      </trkpt>
      <trkpt lat="46.20074" lon="-0.42606">
        <ele>48.2</ele>
        <time>2021-03-27T10:22:37Z</time>
      </trkpt>
      <trkpt lat="46.20078" lon="-0.42599">
        <ele>48</ele>
        <time>2021-03-27T10:22:38Z</time>
      </trkpt>
      <trkpt lat="46.20086" lon="-0.42586">
        <ele>47.8</ele>
        <time>2021-03-27T10:22:40Z</time>
      </trkpt>
      <trkpt lat="46.2009" lon="-0.4258">
        <ele>47.6</ele>
        <time>2021-03-27T10:22:41Z</time>
      </trkpt>
      <trkpt lat="46.20094" lon="-0.42573">
        <ele>47.4</ele>
        <time>2021-03-27T10:22:42Z</time>
      </trkpt>
      <trkpt lat="46.20098" lon="-0.42567">
        <ele>47.4</ele>
        <time>2021-03-27T10:22:43Z</time>
      </trkpt>
      <trkpt lat="46.20105" lon="-0.42555">
        <ele>47</ele>
        <time>2021-03-27T10:22:45Z</time>
      </trkpt>
      <trkpt lat="46.20122" lon="-0.42528">
        <ele>46.4</ele>
        <time>2021-03-27T10:22:49Z</time>
      </trkpt>
      <trkpt lat="46.2015" lon="-0.42482">
        <ele>46</ele>
        <time>2021-03-27T10:22:56Z</time>
      </trkpt>
      <trkpt lat="46.20155" lon="-0.42479">
        <ele>45.8</ele>
        <time>2021-03-27T10:22:57Z</time>
      </trkpt>
      <trkpt lat="46.2016" lon="-0.42476">
        <ele>45.6</ele>
        <time>2021-03-27T10:22:58Z</time>
      </trkpt>
      <trkpt lat="46.20166" lon="-0.42475">
        <ele>45.4</ele>
        <time>2021-03-27T10:22:59Z</time>
      </trkpt>
      <trkpt lat="46.20172" lon="-0.42476">
        <ele>45.4</ele>
        <time>2021-03-27T10:23:00Z</time>
      </trkpt>
      <trkpt lat="46.20178" lon="-0.42479">
        <ele>45.2</ele>
        <time>2021-03-27T10:23:01Z</time>
      </trkpt>
      <trkpt lat="46.20183" lon="-0.42482">
        <ele>45.2</ele>
        <time>2021-03-27T10:23:02Z</time>
      </trkpt>
      <trkpt lat="46.20188" lon="-0.42487">
        <ele>45</ele>
        <time>2021-03-27T10:23:03Z</time>
      </trkpt>
      <trkpt lat="46.20192" lon="-0.42492">
        <ele>45</ele>
        <time>2021-03-27T10:23:04Z</time>
      </trkpt>
      <trkpt lat="46.20196" lon="-0.42496">
        <ele>45</ele>
        <time>2021-03-27T10:23:05Z</time>
      </trkpt>
      <trkpt lat="46.202" lon="-0.425">
        <ele>44.8</ele>
        <time>2021-03-27T10:23:06Z</time>
      </trkpt>
      <trkpt lat="46.20204" lon="-0.42505">
        <ele>44.8</ele>
        <time>2021-03-27T10:23:07Z</time>
      </trkpt>
      <trkpt lat="46.20214" lon="-0.42514">
        <ele>44.6</ele>
        <time>2021-03-27T10:23:09Z</time>
      </trkpt>
      <trkpt lat="46.20235" lon="-0.42527">
        <ele>44.4</ele>
        <time>2021-03-27T10:23:13Z</time>
      </trkpt>
      <trkpt lat="46.20252" lon="-0.42535">
        <ele>44</ele>
        <time>2021-03-27T10:23:16Z</time>
      </trkpt>
      <trkpt lat="46.20258" lon="-0.42537">
        <ele>43.8</ele>
        <time>2021-03-27T10:23:17Z</time>
      </trkpt>
      <trkpt lat="46.20302" lon="-0.42549">
        <ele>43.2</ele>
        <time>2021-03-27T10:23:24Z</time>
      </trkpt>
      <trkpt lat="46.20315" lon="-0.42552">
        <ele>42.6</ele>
        <time>2021-03-27T10:23:26Z</time>
      </trkpt>
      <trkpt lat="46.20346" lon="-0.42557">
        <ele>41.6</ele>
        <time>2021-03-27T10:23:31Z</time>
      </trkpt>
      <trkpt lat="46.20356" lon="-0.42558">
        <ele>41.2</ele>
        <time>2021-03-27T10:23:33Z</time>
      </trkpt>
      <trkpt lat="46.20361" lon="-0.42559">
        <ele>41.2</ele>
        <time>2021-03-27T10:23:34Z</time>
      </trkpt>
      <trkpt lat="46.20367" lon="-0.42561">
        <ele>41</ele>
        <time>2021-03-27T10:23:35Z</time>
      </trkpt>
      <trkpt lat="46.20372" lon="-0.42562">
        <ele>40.8</ele>
        <time>2021-03-27T10:23:36Z</time>
      </trkpt>
      <trkpt lat="46.20382" lon="-0.42564">
        <ele>40.6</ele>
        <time>2021-03-27T10:23:38Z</time>
      </trkpt>
      <trkpt lat="46.20387" lon="-0.42566">
        <ele>40.6</ele>
        <time>2021-03-27T10:23:39Z</time>
      </trkpt>
      <trkpt lat="46.20392" lon="-0.42567">
        <ele>40.6</ele>
        <time>2021-03-27T10:23:40Z</time>
      </trkpt>
      <trkpt lat="46.20397" lon="-0.42567">
        <ele>40.6</ele>
        <time>2021-03-27T10:23:41Z</time>
      </trkpt>
      <trkpt lat="46.20402" lon="-0.42568">
        <ele>40.6</ele>
        <time>2021-03-27T10:23:42Z</time>
      </trkpt>
      <trkpt lat="46.20406" lon="-0.42568">
        <ele>40.6</ele>
        <time>2021-03-27T10:23:43Z</time>
      </trkpt>
      <trkpt lat="46.20412" lon="-0.42568">
        <ele>40.4</ele>
        <time>2021-03-27T10:23:44Z</time>
      </trkpt>
      <trkpt lat="46.20417" lon="-0.42569">
        <ele>40.4</ele>
        <time>2021-03-27T10:23:45Z</time>
      </trkpt>
      <trkpt lat="46.20422" lon="-0.42569">
        <ele>40.4</ele>
        <time>2021-03-27T10:23:46Z</time>
      </trkpt>
      <trkpt lat="46.20427" lon="-0.42568">
        <ele>40.6</ele>
        <time>2021-03-27T10:23:47Z</time>
      </trkpt>
      <trkpt lat="46.20431" lon="-0.42568">
        <ele>40.6</ele>
        <time>2021-03-27T10:23:48Z</time>
      </trkpt>
      <trkpt lat="46.20436" lon="-0.42568">
        <ele>40.6</ele>
        <time>2021-03-27T10:23:49Z</time>
      </trkpt>
      <trkpt lat="46.20447" lon="-0.42569">
        <ele>40.4</ele>
        <time>2021-03-27T10:23:51Z</time>
      </trkpt>
      <trkpt lat="46.20497" lon="-0.42575">
        <ele>40.2</ele>
        <time>2021-03-27T10:23:59Z</time>
      </trkpt>
      <trkpt lat="46.20503" lon="-0.42576">
        <ele>40.2</ele>
        <time>2021-03-27T10:24:00Z</time>
      </trkpt>
      <trkpt lat="46.20539" lon="-0.42591">
        <ele>40.2</ele>
        <time>2021-03-27T10:24:06Z</time>
      </trkpt>
      <trkpt lat="46.20554" lon="-0.42601">
        <ele>40.2</ele>
        <time>2021-03-27T10:24:09Z</time>
      </trkpt>
      <trkpt lat="46.20559" lon="-0.42605">
        <ele>40.2</ele>
        <time>2021-03-27T10:24:10Z</time>
      </trkpt>
      <trkpt lat="46.20564" lon="-0.4261">
        <ele>40.2</ele>
        <time>2021-03-27T10:24:11Z</time>
      </trkpt>
      <trkpt lat="46.2057" lon="-0.42615">
        <ele>40.2</ele>
        <time>2021-03-27T10:24:12Z</time>
      </trkpt>
      <trkpt lat="46.20579" lon="-0.42628">
        <ele>40.2</ele>
        <time>2021-03-27T10:24:14Z</time>
      </trkpt>
      <trkpt lat="46.20592" lon="-0.42648">
        <ele>40.2</ele>
        <time>2021-03-27T10:24:17Z</time>
      </trkpt>
      <trkpt lat="46.20616" lon="-0.42689">
        <ele>39.2</ele>
        <time>2021-03-27T10:24:23Z</time>
      </trkpt>
      <trkpt lat="46.20629" lon="-0.4271">
        <ele>38.8</ele>
        <time>2021-03-27T10:24:26Z</time>
      </trkpt>
      <trkpt lat="46.20654" lon="-0.42753">
        <ele>38.2</ele>
        <time>2021-03-27T10:24:32Z</time>
      </trkpt>
      <trkpt lat="46.20663" lon="-0.42767">
        <ele>38</ele>
        <time>2021-03-27T10:24:34Z</time>
      </trkpt>
      <trkpt lat="46.207" lon="-0.42831">
        <ele>37.6</ele>
        <time>2021-03-27T10:24:43Z</time>
      </trkpt>
      <trkpt lat="46.20704" lon="-0.42839">
        <ele>37.6</ele>
        <time>2021-03-27T10:24:44Z</time>
      </trkpt>
      <trkpt lat="46.20728" lon="-0.42891">
        <ele>37.2</ele>
        <time>2021-03-27T10:24:51Z</time>
      </trkpt>
      <trkpt lat="46.20731" lon="-0.42898">
        <ele>37.2</ele>
        <time>2021-03-27T10:24:52Z</time>
      </trkpt>
      <trkpt lat="46.20733" lon="-0.42906">
        <ele>37</ele>
        <time>2021-03-27T10:24:53Z</time>
      </trkpt>
      <trkpt lat="46.20734" lon="-0.42915">
        <ele>37</ele>
        <time>2021-03-27T10:24:54Z</time>
      </trkpt>
      <trkpt lat="46.20736" lon="-0.42924">
        <ele>37</ele>
        <time>2021-03-27T10:24:55Z</time>
      </trkpt>
      <trkpt lat="46.20738" lon="-0.42932">
        <ele>37</ele>
        <time>2021-03-27T10:24:56Z</time>
      </trkpt>
      <trkpt lat="46.20739" lon="-0.4294">
        <ele>37</ele>
        <time>2021-03-27T10:24:57Z</time>
      </trkpt>
      <trkpt lat="46.20741" lon="-0.42948">
        <ele>37</ele>
        <time>2021-03-27T10:24:58Z</time>
      </trkpt>
      <trkpt lat="46.20744" lon="-0.42972">
        <ele>36.8</ele>
        <time>2021-03-27T10:25:01Z</time>
      </trkpt>
      <trkpt lat="46.2075" lon="-0.43006">
        <ele>36.6</ele>
        <time>2021-03-27T10:25:05Z</time>
      </trkpt>
      <trkpt lat="46.20754" lon="-0.43021">
        <ele>36.6</ele>
        <time>2021-03-27T10:25:07Z</time>
      </trkpt>
      <trkpt lat="46.20761" lon="-0.43049">
        <ele>36.6</ele>
        <time>2021-03-27T10:25:11Z</time>
      </trkpt>
      <trkpt lat="46.20763" lon="-0.43056">
        <ele>36.6</ele>
        <time>2021-03-27T10:25:12Z</time>
      </trkpt>
      <trkpt lat="46.20765" lon="-0.43063">
        <ele>36.6</ele>
        <time>2021-03-27T10:25:13Z</time>
      </trkpt>
      <trkpt lat="46.20767" lon="-0.43069">
        <ele>36.6</ele>
        <time>2021-03-27T10:25:14Z</time>
      </trkpt>
      <trkpt lat="46.2077" lon="-0.43077">
        <ele>36.6</ele>
        <time>2021-03-27T10:25:15Z</time>
      </trkpt>
      <trkpt lat="46.20772" lon="-0.43083">
        <ele>36.6</ele>
        <time>2021-03-27T10:25:16Z</time>
      </trkpt>
      <trkpt lat="46.20774" lon="-0.4309">
        <ele>36.6</ele>
        <time>2021-03-27T10:25:17Z</time>
      </trkpt>
      <trkpt lat="46.20776" lon="-0.43097">
        <ele>36.6</ele>
        <time>2021-03-27T10:25:18Z</time>
      </trkpt>
      <trkpt lat="46.20779" lon="-0.43104">
        <ele>36.6</ele>
        <time>2021-03-27T10:25:19Z</time>
      </trkpt>
      <trkpt lat="46.20784" lon="-0.43118">
        <ele>36.6</ele>
        <time>2021-03-27T10:25:21Z</time>
      </trkpt>
      <trkpt lat="46.20801" lon="-0.43177">
        <ele>36.4</ele>
        <time>2021-03-27T10:25:29Z</time>
      </trkpt>
      <trkpt lat="46.20806" lon="-0.43202">
        <ele>36.4</ele>
        <time>2021-03-27T10:25:32Z</time>
      </trkpt>
      <trkpt lat="46.20807" lon="-0.4321">
        <ele>36.4</ele>
        <time>2021-03-27T10:25:33Z</time>
      </trkpt>
      <trkpt lat="46.2081" lon="-0.43227">
        <ele>36.2</ele>
        <time>2021-03-27T10:25:35Z</time>
      </trkpt>
      <trkpt lat="46.20812" lon="-0.43235">
        <ele>36.2</ele>
        <time>2021-03-27T10:25:36Z</time>
      </trkpt>
      <trkpt lat="46.2082" lon="-0.43285">
        <ele>35.8</ele>
        <time>2021-03-27T10:25:42Z</time>
      </trkpt>
      <trkpt lat="46.20822" lon="-0.43302">
        <ele>35.6</ele>
        <time>2021-03-27T10:25:44Z</time>
      </trkpt>
      <trkpt lat="46.20822" lon="-0.43328">
        <ele>35.4</ele>
        <time>2021-03-27T10:25:47Z</time>
      </trkpt>
      <trkpt lat="46.20822" lon="-0.43336">
        <ele>35.4</ele>
        <time>2021-03-27T10:25:48Z</time>
      </trkpt>
      <trkpt lat="46.20821" lon="-0.43344">
        <ele>35.4</ele>
        <time>2021-03-27T10:25:49Z</time>
      </trkpt>
      <trkpt lat="46.2082" lon="-0.43351">
        <ele>35.2</ele>
        <time>2021-03-27T10:25:50Z</time>
      </trkpt>
      <trkpt lat="46.2082" lon="-0.43359">
        <ele>35.2</ele>
        <time>2021-03-27T10:25:51Z</time>
      </trkpt>
      <trkpt lat="46.20819" lon="-0.43373">
        <ele>35</ele>
        <time>2021-03-27T10:25:53Z</time>
      </trkpt>
      <trkpt lat="46.20819" lon="-0.43381">
        <ele>35</ele>
        <time>2021-03-27T10:25:54Z</time>
      </trkpt>
      <trkpt lat="46.20819" lon="-0.43389">
        <ele>35</ele>
        <time>2021-03-27T10:25:55Z</time>
      </trkpt>
      <trkpt lat="46.20819" lon="-0.43396">
        <ele>35</ele>
        <time>2021-03-27T10:25:56Z</time>
      </trkpt>
      <trkpt lat="46.2082" lon="-0.43403">
        <ele>35</ele>
        <time>2021-03-27T10:25:57Z</time>
      </trkpt>
      <trkpt lat="46.20821" lon="-0.4341">
        <ele>35</ele>
        <time>2021-03-27T10:25:58Z</time>
      </trkpt>
      <trkpt lat="46.20822" lon="-0.43418">
        <ele>35</ele>
        <time>2021-03-27T10:25:59Z</time>
      </trkpt>
      <trkpt lat="46.20824" lon="-0.43424">
        <ele>35</ele>
        <time>2021-03-27T10:26:00Z</time>
      </trkpt>
      <trkpt lat="46.20833" lon="-0.43449">
        <ele>35</ele>
        <time>2021-03-27T10:26:04Z</time>
      </trkpt>
      <trkpt lat="46.20857" lon="-0.4349">
        <ele>34.8</ele>
        <time>2021-03-27T10:26:11Z</time>
      </trkpt>
      <trkpt lat="46.20862" lon="-0.43503">
        <ele>34.8</ele>
        <time>2021-03-27T10:26:13Z</time>
      </trkpt>
      <trkpt lat="46.20866" lon="-0.43517">
        <ele>34.8</ele>
        <time>2021-03-27T10:26:15Z</time>
      </trkpt>
      <trkpt lat="46.20866" lon="-0.43524">
        <ele>34.8</ele>
        <time>2021-03-27T10:26:16Z</time>
      </trkpt>
      <trkpt lat="46.20866" lon="-0.4353">
        <ele>34.8</ele>
        <time>2021-03-27T10:26:17Z</time>
      </trkpt>
      <trkpt lat="46.20866" lon="-0.43537">
        <ele>34.8</ele>
        <time>2021-03-27T10:26:18Z</time>
      </trkpt>
      <trkpt lat="46.20867" lon="-0.43543">
        <ele>34.6</ele>
        <time>2021-03-27T10:26:19Z</time>
      </trkpt>
      <trkpt lat="46.20867" lon="-0.43549">
        <ele>34.6</ele>
        <time>2021-03-27T10:26:20Z</time>
      </trkpt>
      <trkpt lat="46.20867" lon="-0.43556">
        <ele>34.6</ele>
        <time>2021-03-27T10:26:21Z</time>
      </trkpt>
      <trkpt lat="46.20867" lon="-0.43564">
        <ele>34.6</ele>
        <time>2021-03-27T10:26:22Z</time>
      </trkpt>
      <trkpt lat="46.20875" lon="-0.43615">
        <ele>34.2</ele>
        <time>2021-03-27T10:26:29Z</time>
      </trkpt>
      <trkpt lat="46.2088" lon="-0.43641">
        <ele>34.2</ele>
        <time>2021-03-27T10:26:33Z</time>
      </trkpt>
      <trkpt lat="46.20881" lon="-0.43647">
        <ele>34.2</ele>
        <time>2021-03-27T10:26:34Z</time>
      </trkpt>
      <trkpt lat="46.20882" lon="-0.43653">
        <ele>34.2</ele>
        <time>2021-03-27T10:26:35Z</time>
      </trkpt>
      <trkpt lat="46.20883" lon="-0.43659">
        <ele>34.2</ele>
        <time>2021-03-27T10:26:36Z</time>
      </trkpt>
      <trkpt lat="46.20884" lon="-0.43665">
        <ele>34.2</ele>
        <time>2021-03-27T10:26:37Z</time>
      </trkpt>
      <trkpt lat="46.20885" lon="-0.43671">
        <ele>34.2</ele>
        <time>2021-03-27T10:26:38Z</time>
      </trkpt>
      <trkpt lat="46.20887" lon="-0.43678">
        <ele>34.2</ele>
        <time>2021-03-27T10:26:39Z</time>
      </trkpt>
      <trkpt lat="46.20888" lon="-0.43684">
        <ele>34.4</ele>
        <time>2021-03-27T10:26:40Z</time>
      </trkpt>
      <trkpt lat="46.20889" lon="-0.43691">
        <ele>34.4</ele>
        <time>2021-03-27T10:26:41Z</time>
      </trkpt>
      <trkpt lat="46.20897" lon="-0.43729">
        <ele>34.4</ele>
        <time>2021-03-27T10:26:47Z</time>
      </trkpt>
      <trkpt lat="46.20901" lon="-0.43751">
        <ele>34.4</ele>
        <time>2021-03-27T10:26:51Z</time>
      </trkpt>
      <trkpt lat="46.20903" lon="-0.43757">
        <ele>34.6</ele>
        <time>2021-03-27T10:26:52Z</time>
      </trkpt>
      <trkpt lat="46.20906" lon="-0.4377">
        <ele>34.4</ele>
        <time>2021-03-27T10:26:54Z</time>
      </trkpt>
      <trkpt lat="46.20923" lon="-0.43828">
        <ele>34.4</ele>
        <time>2021-03-27T10:27:03Z</time>
      </trkpt>
      <trkpt lat="46.20925" lon="-0.43833">
        <ele>34.4</ele>
        <time>2021-03-27T10:27:04Z</time>
      </trkpt>
      <trkpt lat="46.20932" lon="-0.43844">
        <ele>34.4</ele>
        <time>2021-03-27T10:27:06Z</time>
      </trkpt>
      <trkpt lat="46.20936" lon="-0.43848">
        <ele>34.4</ele>
        <time>2021-03-27T10:27:07Z</time>
      </trkpt>
      <trkpt lat="46.2094" lon="-0.43852">
        <ele>34.4</ele>
        <time>2021-03-27T10:27:08Z</time>
      </trkpt>
      <trkpt lat="46.20945" lon="-0.43854">
        <ele>34.4</ele>
        <time>2021-03-27T10:27:09Z</time>
      </trkpt>
      <trkpt lat="46.2095" lon="-0.43856">
        <ele>34.4</ele>
        <time>2021-03-27T10:27:10Z</time>
      </trkpt>
      <trkpt lat="46.20955" lon="-0.43857">
        <ele>34.4</ele>
        <time>2021-03-27T10:27:11Z</time>
      </trkpt>
      <trkpt lat="46.20965" lon="-0.43857">
        <ele>34.4</ele>
        <time>2021-03-27T10:27:13Z</time>
      </trkpt>
      <trkpt lat="46.20985" lon="-0.43852">
        <ele>34.4</ele>
        <time>2021-03-27T10:27:17Z</time>
      </trkpt>
      <trkpt lat="46.20989" lon="-0.43851">
        <ele>34.4</ele>
        <time>2021-03-27T10:27:18Z</time>
      </trkpt>
      <trkpt lat="46.20998" lon="-0.43851">
        <ele>34.6</ele>
        <time>2021-03-27T10:27:20Z</time>
      </trkpt>
      <trkpt lat="46.21007" lon="-0.43853">
        <ele>34.6</ele>
        <time>2021-03-27T10:27:22Z</time>
      </trkpt>
      <trkpt lat="46.21012" lon="-0.43855">
        <ele>34.6</ele>
        <time>2021-03-27T10:27:23Z</time>
      </trkpt>
      <trkpt lat="46.21021" lon="-0.43858">
        <ele>34.6</ele>
        <time>2021-03-27T10:27:25Z</time>
      </trkpt>
      <trkpt lat="46.21025" lon="-0.43859">
        <ele>34.8</ele>
        <time>2021-03-27T10:27:26Z</time>
      </trkpt>
      <trkpt lat="46.2103" lon="-0.43861">
        <ele>34.8</ele>
        <time>2021-03-27T10:27:27Z</time>
      </trkpt>
      <trkpt lat="46.21034" lon="-0.43863">
        <ele>34.8</ele>
        <time>2021-03-27T10:27:28Z</time>
      </trkpt>
      <trkpt lat="46.2107" lon="-0.43875">
        <ele>35</ele>
        <time>2021-03-27T10:27:36Z</time>
      </trkpt>
      <trkpt lat="46.21112" lon="-0.4389">
        <ele>35</ele>
        <time>2021-03-27T10:27:45Z</time>
      </trkpt>
      <trkpt lat="46.21125" lon="-0.43895">
        <ele>35</ele>
        <time>2021-03-27T10:27:48Z</time>
      </trkpt>
      <trkpt lat="46.21129" lon="-0.43897">
        <ele>35</ele>
        <time>2021-03-27T10:27:49Z</time>
      </trkpt>
      <trkpt lat="46.21133" lon="-0.43899">
        <ele>35</ele>
        <time>2021-03-27T10:27:50Z</time>
      </trkpt>
      <trkpt lat="46.21136" lon="-0.439">
        <ele>35</ele>
        <time>2021-03-27T10:27:51Z</time>
      </trkpt>
      <trkpt lat="46.2114" lon="-0.43901">
        <ele>35</ele>
        <time>2021-03-27T10:27:52Z</time>
      </trkpt>
      <trkpt lat="46.21145" lon="-0.43903">
        <ele>35</ele>
        <time>2021-03-27T10:27:54Z</time>
      </trkpt>
      <trkpt lat="46.21146" lon="-0.43905">
        <ele>35</ele>
        <time>2021-03-27T10:27:55Z</time>
      </trkpt>
      <trkpt lat="46.21146" lon="-0.43906">
        <ele>35</ele>
        <time>2021-03-27T10:27:56Z</time>
      </trkpt>
      <trkpt lat="46.21145" lon="-0.43906">
        <ele>35</ele>
        <time>2021-03-27T10:27:57Z</time>
      </trkpt>
      <trkpt lat="46.21144" lon="-0.43906">
        <ele>35</ele>
        <time>2021-03-27T10:27:58Z</time>
      </trkpt>
      <trkpt lat="46.21142" lon="-0.43905">
        <ele>35</ele>
        <time>2021-03-27T10:27:59Z</time>
      </trkpt>
      <trkpt lat="46.21141" lon="-0.43904">
        <ele>35</ele>
        <time>2021-03-27T10:28:00Z</time>
      </trkpt>
      <trkpt lat="46.21138" lon="-0.43902">
        <ele>35</ele>
        <time>2021-03-27T10:28:01Z</time>
      </trkpt>
      <trkpt lat="46.21135" lon="-0.43901">
        <ele>35</ele>
        <time>2021-03-27T10:28:02Z</time>
      </trkpt>
      <trkpt lat="46.21131" lon="-0.439">
        <ele>35</ele>
        <time>2021-03-27T10:28:03Z</time>
      </trkpt>
      <trkpt lat="46.21124" lon="-0.43898">
        <ele>34.8</ele>
        <time>2021-03-27T10:28:05Z</time>
      </trkpt>
      <trkpt lat="46.2112" lon="-0.43901">
        <ele>34.8</ele>
        <time>2021-03-27T10:28:07Z</time>
      </trkpt>
      <trkpt lat="46.21119" lon="-0.43903">
        <ele>34.8</ele>
        <time>2021-03-27T10:28:08Z</time>
      </trkpt>
      <trkpt lat="46.21119" lon="-0.43906">
        <ele>34.8</ele>
        <time>2021-03-27T10:28:09Z</time>
      </trkpt>
      <trkpt lat="46.21118" lon="-0.43909">
        <ele>34.8</ele>
        <time>2021-03-27T10:28:10Z</time>
      </trkpt>
      <trkpt lat="46.21118" lon="-0.43914">
        <ele>34.8</ele>
        <time>2021-03-27T10:28:11Z</time>
      </trkpt>
      <trkpt lat="46.21118" lon="-0.43919">
        <ele>34.8</ele>
        <time>2021-03-27T10:28:12Z</time>
      </trkpt>
      <trkpt lat="46.21117" lon="-0.43926">
        <ele>34.8</ele>
        <time>2021-03-27T10:28:13Z</time>
      </trkpt>
      <trkpt lat="46.21116" lon="-0.43933">
        <ele>34.8</ele>
        <time>2021-03-27T10:28:14Z</time>
      </trkpt>
      <trkpt lat="46.21112" lon="-0.43948">
        <ele>34.6</ele>
        <time>2021-03-27T10:28:17Z</time>
      </trkpt>
      <trkpt lat="46.2111" lon="-0.43952">
        <ele>34.6</ele>
        <time>2021-03-27T10:28:18Z</time>
      </trkpt>
      <trkpt lat="46.21107" lon="-0.43957">
        <ele>34.4</ele>
        <time>2021-03-27T10:28:19Z</time>
      </trkpt>
      <trkpt lat="46.21104" lon="-0.43962">
        <ele>34.4</ele>
        <time>2021-03-27T10:28:20Z</time>
      </trkpt>
      <trkpt lat="46.21101" lon="-0.43967">
        <ele>34.4</ele>
        <time>2021-03-27T10:28:21Z</time>
      </trkpt>
      <trkpt lat="46.21094" lon="-0.43978">
        <ele>34</ele>
        <time>2021-03-27T10:28:23Z</time>
      </trkpt>
      <trkpt lat="46.21088" lon="-0.43989">
        <ele>33.8</ele>
        <time>2021-03-27T10:28:25Z</time>
      </trkpt>
      <trkpt lat="46.21085" lon="-0.43995">
        <ele>33.8</ele>
        <time>2021-03-27T10:28:26Z</time>
      </trkpt>
      <trkpt lat="46.21082" lon="-0.44009">
        <ele>33.6</ele>
        <time>2021-03-27T10:28:28Z</time>
      </trkpt>
      <trkpt lat="46.2108" lon="-0.44015">
        <ele>33.6</ele>
        <time>2021-03-27T10:28:29Z</time>
      </trkpt>
      <trkpt lat="46.21078" lon="-0.44021">
        <ele>33.6</ele>
        <time>2021-03-27T10:28:30Z</time>
      </trkpt>
      <trkpt lat="46.21071" lon="-0.44046">
        <ele>33.4</ele>
        <time>2021-03-27T10:28:34Z</time>
      </trkpt>
      <trkpt lat="46.21068" lon="-0.44053">
        <ele>33.4</ele>
        <time>2021-03-27T10:28:35Z</time>
      </trkpt>
      <trkpt lat="46.21055" lon="-0.44089">
        <ele>33.4</ele>
        <time>2021-03-27T10:28:40Z</time>
      </trkpt>
      <trkpt lat="46.21052" lon="-0.44095">
        <ele>33.4</ele>
        <time>2021-03-27T10:28:41Z</time>
      </trkpt>
      <trkpt lat="46.21041" lon="-0.44133">
        <ele>33.4</ele>
        <time>2021-03-27T10:28:47Z</time>
      </trkpt>
      <trkpt lat="46.21039" lon="-0.44139">
        <ele>33.4</ele>
        <time>2021-03-27T10:28:48Z</time>
      </trkpt>
      <trkpt lat="46.21037" lon="-0.44145">
        <ele>33.6</ele>
        <time>2021-03-27T10:28:49Z</time>
      </trkpt>
      <trkpt lat="46.21035" lon="-0.44152">
        <ele>33.6</ele>
        <time>2021-03-27T10:28:50Z</time>
      </trkpt>
      <trkpt lat="46.21032" lon="-0.44159">
        <ele>33.6</ele>
        <time>2021-03-27T10:28:51Z</time>
      </trkpt>
      <trkpt lat="46.2103" lon="-0.44165">
        <ele>33.6</ele>
        <time>2021-03-27T10:28:52Z</time>
      </trkpt>
      <trkpt lat="46.21028" lon="-0.44171">
        <ele>33.6</ele>
        <time>2021-03-27T10:28:53Z</time>
      </trkpt>
      <trkpt lat="46.21026" lon="-0.44176">
        <ele>33.6</ele>
        <time>2021-03-27T10:28:54Z</time>
      </trkpt>
      <trkpt lat="46.21024" lon="-0.44181">
        <ele>33.6</ele>
        <time>2021-03-27T10:28:55Z</time>
      </trkpt>
      <trkpt lat="46.21022" lon="-0.44187">
        <ele>33.6</ele>
        <time>2021-03-27T10:28:56Z</time>
      </trkpt>
      <trkpt lat="46.2102" lon="-0.44191">
        <ele>33.6</ele>
        <time>2021-03-27T10:28:57Z</time>
      </trkpt>
      <trkpt lat="46.21016" lon="-0.44196">
        <ele>33.6</ele>
        <time>2021-03-27T10:28:58Z</time>
      </trkpt>
      <trkpt lat="46.21014" lon="-0.44201">
        <ele>33.6</ele>
        <time>2021-03-27T10:28:59Z</time>
      </trkpt>
      <trkpt lat="46.21011" lon="-0.44207">
        <ele>33.6</ele>
        <time>2021-03-27T10:29:00Z</time>
      </trkpt>
      <trkpt lat="46.21006" lon="-0.44217">
        <ele>33.6</ele>
        <time>2021-03-27T10:29:02Z</time>
      </trkpt>
      <trkpt lat="46.20984" lon="-0.44253">
        <ele>33.6</ele>
        <time>2021-03-27T10:29:09Z</time>
      </trkpt>
      <trkpt lat="46.20976" lon="-0.44267">
        <ele>33.6</ele>
        <time>2021-03-27T10:29:12Z</time>
      </trkpt>
      <trkpt lat="46.20974" lon="-0.4427">
        <ele>33.8</ele>
        <time>2021-03-27T10:29:13Z</time>
      </trkpt>
      <trkpt lat="46.20971" lon="-0.44273">
        <ele>33.8</ele>
        <time>2021-03-27T10:29:14Z</time>
      </trkpt>
      <trkpt lat="46.20967" lon="-0.44275">
        <ele>33.8</ele>
        <time>2021-03-27T10:29:15Z</time>
      </trkpt>
      <trkpt lat="46.20963" lon="-0.44278">
        <ele>33.8</ele>
        <time>2021-03-27T10:29:16Z</time>
      </trkpt>
      <trkpt lat="46.2096" lon="-0.44281">
        <ele>33.8</ele>
        <time>2021-03-27T10:29:17Z</time>
      </trkpt>
      <trkpt lat="46.20953" lon="-0.44292">
        <ele>33.8</ele>
        <time>2021-03-27T10:29:19Z</time>
      </trkpt>
      <trkpt lat="46.20939" lon="-0.44315">
        <ele>33.8</ele>
        <time>2021-03-27T10:29:23Z</time>
      </trkpt>
      <trkpt lat="46.20924" lon="-0.4434">
        <ele>34</ele>
        <time>2021-03-27T10:29:27Z</time>
      </trkpt>
      <trkpt lat="46.20902" lon="-0.44374">
        <ele>33.6</ele>
        <time>2021-03-27T10:29:33Z</time>
      </trkpt>
      <trkpt lat="46.20892" lon="-0.44385">
        <ele>33.4</ele>
        <time>2021-03-27T10:29:35Z</time>
      </trkpt>
      <trkpt lat="46.2088" lon="-0.44402">
        <ele>33.4</ele>
        <time>2021-03-27T10:29:38Z</time>
      </trkpt>
      <trkpt lat="46.20877" lon="-0.44408">
        <ele>33.4</ele>
        <time>2021-03-27T10:29:39Z</time>
      </trkpt>
      <trkpt lat="46.20873" lon="-0.44413">
        <ele>33.4</ele>
        <time>2021-03-27T10:29:40Z</time>
      </trkpt>
      <trkpt lat="46.2087" lon="-0.44418">
        <ele>33.2</ele>
        <time>2021-03-27T10:29:41Z</time>
      </trkpt>
      <trkpt lat="46.20867" lon="-0.44424">
        <ele>33.2</ele>
        <time>2021-03-27T10:29:42Z</time>
      </trkpt>
      <trkpt lat="46.20859" lon="-0.44434">
        <ele>33.2</ele>
        <time>2021-03-27T10:29:44Z</time>
      </trkpt>
      <trkpt lat="46.20855" lon="-0.44438">
        <ele>33.2</ele>
        <time>2021-03-27T10:29:45Z</time>
      </trkpt>
      <trkpt lat="46.20851" lon="-0.44443">
        <ele>33.2</ele>
        <time>2021-03-27T10:29:46Z</time>
      </trkpt>
      <trkpt lat="46.20848" lon="-0.44448">
        <ele>33.4</ele>
        <time>2021-03-27T10:29:47Z</time>
      </trkpt>
      <trkpt lat="46.20845" lon="-0.44452">
        <ele>33.4</ele>
        <time>2021-03-27T10:29:48Z</time>
      </trkpt>
      <trkpt lat="46.20844" lon="-0.44457">
        <ele>33.4</ele>
        <time>2021-03-27T10:29:49Z</time>
      </trkpt>
      <trkpt lat="46.20844" lon="-0.44462">
        <ele>33.4</ele>
        <time>2021-03-27T10:29:50Z</time>
      </trkpt>
      <trkpt lat="46.20842" lon="-0.44468">
        <ele>33.4</ele>
        <time>2021-03-27T10:29:51Z</time>
      </trkpt>
      <trkpt lat="46.2084" lon="-0.44474">
        <ele>33.4</ele>
        <time>2021-03-27T10:29:52Z</time>
      </trkpt>
      <trkpt lat="46.20837" lon="-0.4448">
        <ele>33.6</ele>
        <time>2021-03-27T10:29:53Z</time>
      </trkpt>
      <trkpt lat="46.20832" lon="-0.44489">
        <ele>33.6</ele>
        <time>2021-03-27T10:29:55Z</time>
      </trkpt>
      <trkpt lat="46.20829" lon="-0.44494">
        <ele>33.6</ele>
        <time>2021-03-27T10:29:56Z</time>
      </trkpt>
      <trkpt lat="46.20811" lon="-0.44528">
        <ele>34.2</ele>
        <time>2021-03-27T10:30:03Z</time>
      </trkpt>
      <trkpt lat="46.20804" lon="-0.44545">
        <ele>34.2</ele>
        <time>2021-03-27T10:30:06Z</time>
      </trkpt>
      <trkpt lat="46.20799" lon="-0.44565">
        <ele>34.2</ele>
        <time>2021-03-27T10:30:09Z</time>
      </trkpt>
      <trkpt lat="46.20789" lon="-0.44625">
        <ele>34</ele>
        <time>2021-03-27T10:30:18Z</time>
      </trkpt>
      <trkpt lat="46.20779" lon="-0.44676">
        <ele>33.4</ele>
        <time>2021-03-27T10:30:25Z</time>
      </trkpt>
      <trkpt lat="46.2077" lon="-0.44731">
        <ele>33</ele>
        <time>2021-03-27T10:30:32Z</time>
      </trkpt>
      <trkpt lat="46.20768" lon="-0.44755">
        <ele>33</ele>
        <time>2021-03-27T10:30:35Z</time>
      </trkpt>
      <trkpt lat="46.20767" lon="-0.44762">
        <ele>33</ele>
        <time>2021-03-27T10:30:36Z</time>
      </trkpt>
      <trkpt lat="46.20767" lon="-0.4477">
        <ele>33</ele>
        <time>2021-03-27T10:30:37Z</time>
      </trkpt>
      <trkpt lat="46.20766" lon="-0.44778">
        <ele>33.2</ele>
        <time>2021-03-27T10:30:38Z</time>
      </trkpt>
      <trkpt lat="46.20762" lon="-0.44819">
        <ele>33.4</ele>
        <time>2021-03-27T10:30:43Z</time>
      </trkpt>
      <trkpt lat="46.20761" lon="-0.44827">
        <ele>33.4</ele>
        <time>2021-03-27T10:30:44Z</time>
      </trkpt>
      <trkpt lat="46.20759" lon="-0.44851">
        <ele>33.4</ele>
        <time>2021-03-27T10:30:47Z</time>
      </trkpt>
      <trkpt lat="46.20756" lon="-0.44891">
        <ele>33.8</ele>
        <time>2021-03-27T10:30:52Z</time>
      </trkpt>
      <trkpt lat="46.20756" lon="-0.44898">
        <ele>33.8</ele>
        <time>2021-03-27T10:30:53Z</time>
      </trkpt>
      <trkpt lat="46.20756" lon="-0.44906">
        <ele>33.8</ele>
        <time>2021-03-27T10:30:54Z</time>
      </trkpt>
      <trkpt lat="46.20756" lon="-0.44914">
        <ele>33.8</ele>
        <time>2021-03-27T10:30:55Z</time>
      </trkpt>
      <trkpt lat="46.20755" lon="-0.44922">
        <ele>33.8</ele>
        <time>2021-03-27T10:30:56Z</time>
      </trkpt>
      <trkpt lat="46.20756" lon="-0.44938">
        <ele>33.6</ele>
        <time>2021-03-27T10:30:58Z</time>
      </trkpt>
      <trkpt lat="46.20756" lon="-0.44946">
        <ele>33.6</ele>
        <time>2021-03-27T10:30:59Z</time>
      </trkpt>
      <trkpt lat="46.20757" lon="-0.44998">
        <ele>33.6</ele>
        <time>2021-03-27T10:31:05Z</time>
      </trkpt>
      <trkpt lat="46.20765" lon="-0.45057">
        <ele>33.6</ele>
        <time>2021-03-27T10:31:12Z</time>
      </trkpt>
      <trkpt lat="46.20772" lon="-0.45088">
        <ele>33.8</ele>
        <time>2021-03-27T10:31:16Z</time>
      </trkpt>
      <trkpt lat="46.20774" lon="-0.45096">
        <ele>33.8</ele>
        <time>2021-03-27T10:31:17Z</time>
      </trkpt>
      <trkpt lat="46.20776" lon="-0.45104">
        <ele>34</ele>
        <time>2021-03-27T10:31:18Z</time>
      </trkpt>
      <trkpt lat="46.20778" lon="-0.45112">
        <ele>34</ele>
        <time>2021-03-27T10:31:19Z</time>
      </trkpt>
      <trkpt lat="46.2078" lon="-0.4512">
        <ele>34</ele>
        <time>2021-03-27T10:31:20Z</time>
      </trkpt>
      <trkpt lat="46.20785" lon="-0.45145">
        <ele>34</ele>
        <time>2021-03-27T10:31:23Z</time>
      </trkpt>
      <trkpt lat="46.2079" lon="-0.45167">
        <ele>34.4</ele>
        <time>2021-03-27T10:31:26Z</time>
      </trkpt>
      <trkpt lat="46.20791" lon="-0.45173">
        <ele>34.4</ele>
        <time>2021-03-27T10:31:27Z</time>
      </trkpt>
      <trkpt lat="46.20793" lon="-0.45179">
        <ele>34.4</ele>
        <time>2021-03-27T10:31:28Z</time>
      </trkpt>
      <trkpt lat="46.20796" lon="-0.45185">
        <ele>34.4</ele>
        <time>2021-03-27T10:31:29Z</time>
      </trkpt>
      <trkpt lat="46.20798" lon="-0.4519">
        <ele>34.4</ele>
        <time>2021-03-27T10:31:30Z</time>
      </trkpt>
      <trkpt lat="46.20816" lon="-0.45226">
        <ele>34.4</ele>
        <time>2021-03-27T10:31:36Z</time>
      </trkpt>
      <trkpt lat="46.20836" lon="-0.45262">
        <ele>34.4</ele>
        <time>2021-03-27T10:31:43Z</time>
      </trkpt>
      <trkpt lat="46.20839" lon="-0.45265">
        <ele>34.4</ele>
        <time>2021-03-27T10:31:44Z</time>
      </trkpt>
      <trkpt lat="46.20842" lon="-0.45267">
        <ele>34.4</ele>
        <time>2021-03-27T10:31:45Z</time>
      </trkpt>
      <trkpt lat="46.20846" lon="-0.45268">
        <ele>34.4</ele>
        <time>2021-03-27T10:31:46Z</time>
      </trkpt>
      <trkpt lat="46.2085" lon="-0.45269">
        <ele>34.4</ele>
        <time>2021-03-27T10:31:47Z</time>
      </trkpt>
      <trkpt lat="46.20854" lon="-0.45271">
        <ele>34.4</ele>
        <time>2021-03-27T10:31:48Z</time>
      </trkpt>
      <trkpt lat="46.20862" lon="-0.45277">
        <ele>34.4</ele>
        <time>2021-03-27T10:31:50Z</time>
      </trkpt>
      <trkpt lat="46.20868" lon="-0.45285">
        <ele>34.2</ele>
        <time>2021-03-27T10:31:52Z</time>
      </trkpt>
      <trkpt lat="46.20871" lon="-0.45289">
        <ele>34.2</ele>
        <time>2021-03-27T10:31:53Z</time>
      </trkpt>
      <trkpt lat="46.20879" lon="-0.45296">
        <ele>34.2</ele>
        <time>2021-03-27T10:31:55Z</time>
      </trkpt>
      <trkpt lat="46.20888" lon="-0.45301">
        <ele>34.2</ele>
        <time>2021-03-27T10:31:57Z</time>
      </trkpt>
      <trkpt lat="46.20892" lon="-0.45303">
        <ele>34.2</ele>
        <time>2021-03-27T10:31:58Z</time>
      </trkpt>
      <trkpt lat="46.20897" lon="-0.45304">
        <ele>34.2</ele>
        <time>2021-03-27T10:31:59Z</time>
      </trkpt>
      <trkpt lat="46.20935" lon="-0.4531">
        <ele>33.8</ele>
        <time>2021-03-27T10:32:07Z</time>
      </trkpt>
      <trkpt lat="46.20959" lon="-0.45313">
        <ele>33.6</ele>
        <time>2021-03-27T10:32:12Z</time>
      </trkpt>
      <trkpt lat="46.20969" lon="-0.45314">
        <ele>33.6</ele>
        <time>2021-03-27T10:32:14Z</time>
      </trkpt>
      <trkpt lat="46.20987" lon="-0.45316">
        <ele>33.4</ele>
        <time>2021-03-27T10:32:18Z</time>
      </trkpt>
      <trkpt lat="46.2099" lon="-0.45317">
        <ele>33.4</ele>
        <time>2021-03-27T10:32:19Z</time>
      </trkpt>
      <trkpt lat="46.20992" lon="-0.45318">
        <ele>33.4</ele>
        <time>2021-03-27T10:32:20Z</time>
      </trkpt>
      <trkpt lat="46.20993" lon="-0.45319">
        <ele>33.4</ele>
        <time>2021-03-27T10:32:21Z</time>
      </trkpt>
      <trkpt lat="46.20994" lon="-0.45319">
        <ele>33.6</ele>
        <time>2021-03-27T10:32:22Z</time>
      </trkpt>
      <trkpt lat="46.20994" lon="-0.45319">
        <ele>33.6</ele>
        <time>2021-03-27T10:32:23Z</time>
      </trkpt>
      <trkpt lat="46.20999" lon="-0.45319">
        <ele>34.2</ele>
        <time>2021-03-27T10:32:50Z</time>
      </trkpt>
      <trkpt lat="46.21005" lon="-0.45318">
        <ele>34.2</ele>
        <time>2021-03-27T10:32:52Z</time>
      </trkpt>
      <trkpt lat="46.21025" lon="-0.45311">
        <ele>34</ele>
        <time>2021-03-27T10:32:57Z</time>
      </trkpt>
      <trkpt lat="46.21042" lon="-0.45303">
        <ele>33.8</ele>
        <time>2021-03-27T10:33:01Z</time>
      </trkpt>
      <trkpt lat="46.21046" lon="-0.45302">
        <ele>33.8</ele>
        <time>2021-03-27T10:33:02Z</time>
      </trkpt>
      <trkpt lat="46.2105" lon="-0.453">
        <ele>33.6</ele>
        <time>2021-03-27T10:33:03Z</time>
      </trkpt>
      <trkpt lat="46.21058" lon="-0.45298">
        <ele>33.6</ele>
        <time>2021-03-27T10:33:05Z</time>
      </trkpt>
      <trkpt lat="46.21071" lon="-0.45294">
        <ele>33.6</ele>
        <time>2021-03-27T10:33:08Z</time>
      </trkpt>
      <trkpt lat="46.21074" lon="-0.45293">
        <ele>33.6</ele>
        <time>2021-03-27T10:33:09Z</time>
      </trkpt>
      <trkpt lat="46.21078" lon="-0.45291">
        <ele>33.6</ele>
        <time>2021-03-27T10:33:10Z</time>
      </trkpt>
      <trkpt lat="46.21082" lon="-0.4529">
        <ele>33.6</ele>
        <time>2021-03-27T10:33:11Z</time>
      </trkpt>
      <trkpt lat="46.21111" lon="-0.45279">
        <ele>33.6</ele>
        <time>2021-03-27T10:33:18Z</time>
      </trkpt>
      <trkpt lat="46.21116" lon="-0.45277">
        <ele>33.6</ele>
        <time>2021-03-27T10:33:19Z</time>
      </trkpt>
      <trkpt lat="46.21129" lon="-0.45272">
        <ele>33.6</ele>
        <time>2021-03-27T10:33:22Z</time>
      </trkpt>
      <trkpt lat="46.21142" lon="-0.45267">
        <ele>33.6</ele>
        <time>2021-03-27T10:33:25Z</time>
      </trkpt>
      <trkpt lat="46.21151" lon="-0.45264">
        <ele>33.6</ele>
        <time>2021-03-27T10:33:27Z</time>
      </trkpt>
      <trkpt lat="46.21155" lon="-0.45262">
        <ele>33.6</ele>
        <time>2021-03-27T10:33:28Z</time>
      </trkpt>
      <trkpt lat="46.21163" lon="-0.4526">
        <ele>33.6</ele>
        <time>2021-03-27T10:33:30Z</time>
      </trkpt>
      <trkpt lat="46.21167" lon="-0.45258">
        <ele>33.4</ele>
        <time>2021-03-27T10:33:31Z</time>
      </trkpt>
      <trkpt lat="46.21171" lon="-0.45257">
        <ele>33.4</ele>
        <time>2021-03-27T10:33:32Z</time>
      </trkpt>
      <trkpt lat="46.21175" lon="-0.45255">
        <ele>33.8</ele>
        <time>2021-03-27T10:33:33Z</time>
      </trkpt>
      <trkpt lat="46.21205" lon="-0.45243">
        <ele>33.8</ele>
        <time>2021-03-27T10:33:40Z</time>
      </trkpt>
      <trkpt lat="46.21213" lon="-0.45239">
        <ele>33.6</ele>
        <time>2021-03-27T10:33:42Z</time>
      </trkpt>
      <trkpt lat="46.21221" lon="-0.45235">
        <ele>33.4</ele>
        <time>2021-03-27T10:33:44Z</time>
      </trkpt>
      <trkpt lat="46.21269" lon="-0.45214">
        <ele>33.2</ele>
        <time>2021-03-27T10:33:55Z</time>
      </trkpt>
      <trkpt lat="46.21277" lon="-0.4521">
        <ele>33</ele>
        <time>2021-03-27T10:33:57Z</time>
      </trkpt>
      <trkpt lat="46.21285" lon="-0.45206">
        <ele>33</ele>
        <time>2021-03-27T10:33:59Z</time>
      </trkpt>
      <trkpt lat="46.21289" lon="-0.45204">
        <ele>33</ele>
        <time>2021-03-27T10:34:00Z</time>
      </trkpt>
      <trkpt lat="46.21294" lon="-0.45203">
        <ele>32.8</ele>
        <time>2021-03-27T10:34:01Z</time>
      </trkpt>
      <trkpt lat="46.21299" lon="-0.45201">
        <ele>32.8</ele>
        <time>2021-03-27T10:34:02Z</time>
      </trkpt>
      <trkpt lat="46.21303" lon="-0.45199">
        <ele>32.8</ele>
        <time>2021-03-27T10:34:03Z</time>
      </trkpt>
      <trkpt lat="46.21308" lon="-0.45197">
        <ele>33</ele>
        <time>2021-03-27T10:34:04Z</time>
      </trkpt>
      <trkpt lat="46.21313" lon="-0.45195">
        <ele>33</ele>
        <time>2021-03-27T10:34:05Z</time>
      </trkpt>
      <trkpt lat="46.2134" lon="-0.45186">
        <ele>32.8</ele>
        <time>2021-03-27T10:34:10Z</time>
      </trkpt>
      <trkpt lat="46.21345" lon="-0.45184">
        <ele>32.8</ele>
        <time>2021-03-27T10:34:11Z</time>
      </trkpt>
      <trkpt lat="46.2135" lon="-0.45182">
        <ele>32.8</ele>
        <time>2021-03-27T10:34:12Z</time>
      </trkpt>
      <trkpt lat="46.21356" lon="-0.45178">
        <ele>32.8</ele>
        <time>2021-03-27T10:34:13Z</time>
      </trkpt>
      <trkpt lat="46.21376" lon="-0.45168">
        <ele>32.6</ele>
        <time>2021-03-27T10:34:17Z</time>
      </trkpt>
      <trkpt lat="46.21385" lon="-0.45165">
        <ele>32.6</ele>
        <time>2021-03-27T10:34:19Z</time>
      </trkpt>
      <trkpt lat="46.21389" lon="-0.45163">
        <ele>32.6</ele>
        <time>2021-03-27T10:34:20Z</time>
      </trkpt>
      <trkpt lat="46.21392" lon="-0.45162">
        <ele>32.6</ele>
        <time>2021-03-27T10:34:21Z</time>
      </trkpt>
      <trkpt lat="46.21394" lon="-0.45161">
        <ele>32.8</ele>
        <time>2021-03-27T10:34:22Z</time>
      </trkpt>
      <trkpt lat="46.21395" lon="-0.45161">
        <ele>32.8</ele>
        <time>2021-03-27T10:34:23Z</time>
      </trkpt>
      <trkpt lat="46.21396" lon="-0.45161">
        <ele>32.8</ele>
        <time>2021-03-27T10:34:24Z</time>
      </trkpt>
      <trkpt lat="46.21396" lon="-0.45161">
        <ele>33</ele>
        <time>2021-03-27T10:34:25Z</time>
      </trkpt>
      <trkpt lat="46.21396" lon="-0.45161">
        <ele>33</ele>
        <time>2021-03-27T10:34:26Z</time>
      </trkpt>
      <trkpt lat="46.21398" lon="-0.45164">
        <ele>33.6</ele>
        <time>2021-03-27T10:34:59Z</time>
      </trkpt>
      <trkpt lat="46.21398" lon="-0.4517">
        <ele>33.6</ele>
        <time>2021-03-27T10:35:02Z</time>
      </trkpt>
      <trkpt lat="46.21398" lon="-0.45172">
        <ele>33.6</ele>
        <time>2021-03-27T10:35:03Z</time>
      </trkpt>
      <trkpt lat="46.21397" lon="-0.45188">
        <ele>33.4</ele>
        <time>2021-03-27T10:35:08Z</time>
      </trkpt>
      <trkpt lat="46.21394" lon="-0.4521">
        <ele>33.4</ele>
        <time>2021-03-27T10:35:13Z</time>
      </trkpt>
      <trkpt lat="46.21394" lon="-0.45214">
        <ele>33.2</ele>
        <time>2021-03-27T10:35:14Z</time>
      </trkpt>
      <trkpt lat="46.21393" lon="-0.45218">
        <ele>33.2</ele>
        <time>2021-03-27T10:35:15Z</time>
      </trkpt>
      <trkpt lat="46.21393" lon="-0.45221">
        <ele>33.2</ele>
        <time>2021-03-27T10:35:16Z</time>
      </trkpt>
      <trkpt lat="46.21391" lon="-0.45239">
        <ele>33</ele>
        <time>2021-03-27T10:35:19Z</time>
      </trkpt>
      <trkpt lat="46.2139" lon="-0.45248">
        <ele>33</ele>
        <time>2021-03-27T10:35:20Z</time>
      </trkpt>
      <trkpt lat="46.21386" lon="-0.45277">
        <ele>33</ele>
        <time>2021-03-27T10:35:23Z</time>
      </trkpt>
      <trkpt lat="46.21382" lon="-0.45304">
        <ele>32.8</ele>
        <time>2021-03-27T10:35:26Z</time>
      </trkpt>
      <trkpt lat="46.21381" lon="-0.45314">
        <ele>32.8</ele>
        <time>2021-03-27T10:35:27Z</time>
      </trkpt>
      <trkpt lat="46.21378" lon="-0.45336">
        <ele>32.6</ele>
        <time>2021-03-27T10:35:29Z</time>
      </trkpt>
      <trkpt lat="46.21375" lon="-0.45367">
        <ele>32.4</ele>
        <time>2021-03-27T10:35:32Z</time>
      </trkpt>
      <trkpt lat="46.21374" lon="-0.45377">
        <ele>32.4</ele>
        <time>2021-03-27T10:35:33Z</time>
      </trkpt>
      <trkpt lat="46.21373" lon="-0.45386">
        <ele>32.4</ele>
        <time>2021-03-27T10:35:34Z</time>
      </trkpt>
      <trkpt lat="46.21372" lon="-0.45395">
        <ele>32.4</ele>
        <time>2021-03-27T10:35:35Z</time>
      </trkpt>
      <trkpt lat="46.21371" lon="-0.45404">
        <ele>32.4</ele>
        <time>2021-03-27T10:35:36Z</time>
      </trkpt>
      <trkpt lat="46.2137" lon="-0.45414">
        <ele>32.4</ele>
        <time>2021-03-27T10:35:37Z</time>
      </trkpt>
      <trkpt lat="46.21366" lon="-0.45451">
        <ele>32.6</ele>
        <time>2021-03-27T10:35:41Z</time>
      </trkpt>
      <trkpt lat="46.21365" lon="-0.45458">
        <ele>32.8</ele>
        <time>2021-03-27T10:35:42Z</time>
      </trkpt>
      <trkpt lat="46.21364" lon="-0.45464">
        <ele>33</ele>
        <time>2021-03-27T10:35:43Z</time>
      </trkpt>
      <trkpt lat="46.21364" lon="-0.4547">
        <ele>33.2</ele>
        <time>2021-03-27T10:35:44Z</time>
      </trkpt>
      <trkpt lat="46.21364" lon="-0.45475">
        <ele>33.4</ele>
        <time>2021-03-27T10:35:45Z</time>
      </trkpt>
      <trkpt lat="46.21365" lon="-0.4548">
        <ele>33.6</ele>
        <time>2021-03-27T10:35:46Z</time>
      </trkpt>
      <trkpt lat="46.21366" lon="-0.45486">
        <ele>34</ele>
        <time>2021-03-27T10:35:47Z</time>
      </trkpt>
      <trkpt lat="46.21366" lon="-0.45493">
        <ele>34.4</ele>
        <time>2021-03-27T10:35:48Z</time>
      </trkpt>
      <trkpt lat="46.21368" lon="-0.45517">
        <ele>35.2</ele>
        <time>2021-03-27T10:35:51Z</time>
      </trkpt>
      <trkpt lat="46.21369" lon="-0.45527">
        <ele>36</ele>
        <time>2021-03-27T10:35:52Z</time>
      </trkpt>
      <trkpt lat="46.21371" lon="-0.45536">
        <ele>36.4</ele>
        <time>2021-03-27T10:35:53Z</time>
      </trkpt>
      <trkpt lat="46.21377" lon="-0.45553">
        <ele>37</ele>
        <time>2021-03-27T10:35:55Z</time>
      </trkpt>
      <trkpt lat="46.2138" lon="-0.45562">
        <ele>37</ele>
        <time>2021-03-27T10:35:56Z</time>
      </trkpt>
      <trkpt lat="46.21384" lon="-0.4557">
        <ele>37.2</ele>
        <time>2021-03-27T10:35:57Z</time>
      </trkpt>
      <trkpt lat="46.21387" lon="-0.45578">
        <ele>37.2</ele>
        <time>2021-03-27T10:35:58Z</time>
      </trkpt>
      <trkpt lat="46.21391" lon="-0.45587">
        <ele>37.4</ele>
        <time>2021-03-27T10:35:59Z</time>
      </trkpt>
      <trkpt lat="46.21396" lon="-0.45595">
        <ele>37.6</ele>
        <time>2021-03-27T10:36:00Z</time>
      </trkpt>
      <trkpt lat="46.214" lon="-0.45603">
        <ele>37.6</ele>
        <time>2021-03-27T10:36:01Z</time>
      </trkpt>
      <trkpt lat="46.21405" lon="-0.45611">
        <ele>37.8</ele>
        <time>2021-03-27T10:36:02Z</time>
      </trkpt>
      <trkpt lat="46.21409" lon="-0.45617">
        <ele>38.2</ele>
        <time>2021-03-27T10:36:03Z</time>
      </trkpt>
      <trkpt lat="46.21413" lon="-0.45624">
        <ele>38.4</ele>
        <time>2021-03-27T10:36:04Z</time>
      </trkpt>
      <trkpt lat="46.21417" lon="-0.4563">
        <ele>38.8</ele>
        <time>2021-03-27T10:36:05Z</time>
      </trkpt>
      <trkpt lat="46.2142" lon="-0.45636">
        <ele>39.2</ele>
        <time>2021-03-27T10:36:06Z</time>
      </trkpt>
      <trkpt lat="46.21423" lon="-0.45641">
        <ele>39.4</ele>
        <time>2021-03-27T10:36:07Z</time>
      </trkpt>
      <trkpt lat="46.21426" lon="-0.45646">
        <ele>39.8</ele>
        <time>2021-03-27T10:36:08Z</time>
      </trkpt>
      <trkpt lat="46.21429" lon="-0.4565">
        <ele>40</ele>
        <time>2021-03-27T10:36:09Z</time>
      </trkpt>
      <trkpt lat="46.21432" lon="-0.45654">
        <ele>40</ele>
        <time>2021-03-27T10:36:10Z</time>
      </trkpt>
      <trkpt lat="46.21435" lon="-0.4566">
        <ele>40.6</ele>
        <time>2021-03-27T10:36:11Z</time>
      </trkpt>
      <trkpt lat="46.21439" lon="-0.45666">
        <ele>41</ele>
        <time>2021-03-27T10:36:12Z</time>
      </trkpt>
      <trkpt lat="46.21442" lon="-0.45673">
        <ele>41</ele>
        <time>2021-03-27T10:36:13Z</time>
      </trkpt>
      <trkpt lat="46.21445" lon="-0.45679">
        <ele>41.2</ele>
        <time>2021-03-27T10:36:14Z</time>
      </trkpt>
      <trkpt lat="46.21448" lon="-0.45685">
        <ele>41.2</ele>
        <time>2021-03-27T10:36:15Z</time>
      </trkpt>
      <trkpt lat="46.21449" lon="-0.45692">
        <ele>41.2</ele>
        <time>2021-03-27T10:36:16Z</time>
      </trkpt>
      <trkpt lat="46.21451" lon="-0.45699">
        <ele>41.2</ele>
        <time>2021-03-27T10:36:17Z</time>
      </trkpt>
      <trkpt lat="46.21453" lon="-0.45706">
        <ele>41.2</ele>
        <time>2021-03-27T10:36:18Z</time>
      </trkpt>
      <trkpt lat="46.21453" lon="-0.45715">
        <ele>41.2</ele>
        <time>2021-03-27T10:36:19Z</time>
      </trkpt>
      <trkpt lat="46.21452" lon="-0.45723">
        <ele>41.2</ele>
        <time>2021-03-27T10:36:20Z</time>
      </trkpt>
      <trkpt lat="46.21451" lon="-0.45732">
        <ele>41.2</ele>
        <time>2021-03-27T10:36:21Z</time>
      </trkpt>
      <trkpt lat="46.21449" lon="-0.45741">
        <ele>41.2</ele>
        <time>2021-03-27T10:36:22Z</time>
      </trkpt>
      <trkpt lat="46.21446" lon="-0.4575">
        <ele>41.2</ele>
        <time>2021-03-27T10:36:23Z</time>
      </trkpt>
      <trkpt lat="46.21442" lon="-0.45758">
        <ele>41.2</ele>
        <time>2021-03-27T10:36:24Z</time>
      </trkpt>
      <trkpt lat="46.21439" lon="-0.45766">
        <ele>41.2</ele>
        <time>2021-03-27T10:36:25Z</time>
      </trkpt>
      <trkpt lat="46.21435" lon="-0.45774">
        <ele>41</ele>
        <time>2021-03-27T10:36:26Z</time>
      </trkpt>
      <trkpt lat="46.21432" lon="-0.45782">
        <ele>41</ele>
        <time>2021-03-27T10:36:27Z</time>
      </trkpt>
      <trkpt lat="46.21429" lon="-0.45791">
        <ele>40.8</ele>
        <time>2021-03-27T10:36:28Z</time>
      </trkpt>
      <trkpt lat="46.21425" lon="-0.45799">
        <ele>40.6</ele>
        <time>2021-03-27T10:36:29Z</time>
      </trkpt>
      <trkpt lat="46.21423" lon="-0.45808">
        <ele>40.2</ele>
        <time>2021-03-27T10:36:30Z</time>
      </trkpt>
      <trkpt lat="46.21419" lon="-0.45817">
        <ele>39.8</ele>
        <time>2021-03-27T10:36:31Z</time>
      </trkpt>
      <trkpt lat="46.21416" lon="-0.45826">
        <ele>39.4</ele>
        <time>2021-03-27T10:36:32Z</time>
      </trkpt>
      <trkpt lat="46.2141" lon="-0.45836">
        <ele>39</ele>
        <time>2021-03-27T10:36:33Z</time>
      </trkpt>
      <trkpt lat="46.21407" lon="-0.45844">
        <ele>38.4</ele>
        <time>2021-03-27T10:36:34Z</time>
      </trkpt>
      <trkpt lat="46.21393" lon="-0.45876">
        <ele>37</ele>
        <time>2021-03-27T10:36:38Z</time>
      </trkpt>
      <trkpt lat="46.21382" lon="-0.45902">
        <ele>36.6</ele>
        <time>2021-03-27T10:36:41Z</time>
      </trkpt>
      <trkpt lat="46.21379" lon="-0.4591">
        <ele>36</ele>
        <time>2021-03-27T10:36:42Z</time>
      </trkpt>
      <trkpt lat="46.21374" lon="-0.45929">
        <ele>34.2</ele>
        <time>2021-03-27T10:36:44Z</time>
      </trkpt>
      <trkpt lat="46.21372" lon="-0.45949">
        <ele>33.8</ele>
        <time>2021-03-27T10:36:46Z</time>
      </trkpt>
      <trkpt lat="46.21369" lon="-0.45985">
        <ele>33</ele>
        <time>2021-03-27T10:36:50Z</time>
      </trkpt>
      <trkpt lat="46.21369" lon="-0.45992">
        <ele>32.8</ele>
        <time>2021-03-27T10:36:51Z</time>
      </trkpt>
      <trkpt lat="46.21368" lon="-0.46001">
        <ele>32.6</ele>
        <time>2021-03-27T10:36:52Z</time>
      </trkpt>
      <trkpt lat="46.21367" lon="-0.4601">
        <ele>32.6</ele>
        <time>2021-03-27T10:36:53Z</time>
      </trkpt>
      <trkpt lat="46.21359" lon="-0.46055">
        <ele>32.4</ele>
        <time>2021-03-27T10:36:58Z</time>
      </trkpt>
      <trkpt lat="46.21358" lon="-0.46064">
        <ele>32.4</ele>
        <time>2021-03-27T10:36:59Z</time>
      </trkpt>
      <trkpt lat="46.21358" lon="-0.46073">
        <ele>32.4</ele>
        <time>2021-03-27T10:37:00Z</time>
      </trkpt>
      <trkpt lat="46.21359" lon="-0.46103">
        <ele>32.2</ele>
        <time>2021-03-27T10:37:03Z</time>
      </trkpt>
      <trkpt lat="46.21371" lon="-0.46149">
        <ele>32.4</ele>
        <time>2021-03-27T10:37:08Z</time>
      </trkpt>
      <trkpt lat="46.21382" lon="-0.46184">
        <ele>32.2</ele>
        <time>2021-03-27T10:37:12Z</time>
      </trkpt>
      <trkpt lat="46.21384" lon="-0.46194">
        <ele>32.2</ele>
        <time>2021-03-27T10:37:13Z</time>
      </trkpt>
      <trkpt lat="46.21386" lon="-0.46214">
        <ele>32.2</ele>
        <time>2021-03-27T10:37:15Z</time>
      </trkpt>
      <trkpt lat="46.21387" lon="-0.46233">
        <ele>32.2</ele>
        <time>2021-03-27T10:37:17Z</time>
      </trkpt>
      <trkpt lat="46.21386" lon="-0.46262">
        <ele>32.2</ele>
        <time>2021-03-27T10:37:20Z</time>
      </trkpt>
      <trkpt lat="46.21377" lon="-0.46309">
        <ele>32.2</ele>
        <time>2021-03-27T10:37:25Z</time>
      </trkpt>
      <trkpt lat="46.21372" lon="-0.46327">
        <ele>32</ele>
        <time>2021-03-27T10:37:27Z</time>
      </trkpt>
      <trkpt lat="46.21367" lon="-0.46344">
        <ele>32</ele>
        <time>2021-03-27T10:37:29Z</time>
      </trkpt>
      <trkpt lat="46.21361" lon="-0.46362">
        <ele>32</ele>
        <time>2021-03-27T10:37:31Z</time>
      </trkpt>
      <trkpt lat="46.21358" lon="-0.46371">
        <ele>32</ele>
        <time>2021-03-27T10:37:32Z</time>
      </trkpt>
      <trkpt lat="46.2135" lon="-0.46398">
        <ele>31.8</ele>
        <time>2021-03-27T10:37:35Z</time>
      </trkpt>
      <trkpt lat="46.21343" lon="-0.46427">
        <ele>31.6</ele>
        <time>2021-03-27T10:37:38Z</time>
      </trkpt>
      <trkpt lat="46.21341" lon="-0.46435">
        <ele>31.6</ele>
        <time>2021-03-27T10:37:39Z</time>
      </trkpt>
      <trkpt lat="46.2134" lon="-0.46442">
        <ele>31.6</ele>
        <time>2021-03-27T10:37:40Z</time>
      </trkpt>
      <trkpt lat="46.21338" lon="-0.4645">
        <ele>31.6</ele>
        <time>2021-03-27T10:37:41Z</time>
      </trkpt>
      <trkpt lat="46.21337" lon="-0.46457">
        <ele>31.4</ele>
        <time>2021-03-27T10:37:42Z</time>
      </trkpt>
      <trkpt lat="46.21336" lon="-0.46464">
        <ele>31.4</ele>
        <time>2021-03-27T10:37:43Z</time>
      </trkpt>
      <trkpt lat="46.21337" lon="-0.4647">
        <ele>31.4</ele>
        <time>2021-03-27T10:37:44Z</time>
      </trkpt>
      <trkpt lat="46.21339" lon="-0.46476">
        <ele>31.4</ele>
        <time>2021-03-27T10:37:45Z</time>
      </trkpt>
      <trkpt lat="46.21343" lon="-0.4648">
        <ele>31.4</ele>
        <time>2021-03-27T10:37:46Z</time>
      </trkpt>
      <trkpt lat="46.21347" lon="-0.46483">
        <ele>31.4</ele>
        <time>2021-03-27T10:37:47Z</time>
      </trkpt>
      <trkpt lat="46.21363" lon="-0.46489">
        <ele>31.4</ele>
        <time>2021-03-27T10:37:50Z</time>
      </trkpt>
      <trkpt lat="46.21369" lon="-0.46491">
        <ele>31.4</ele>
        <time>2021-03-27T10:37:51Z</time>
      </trkpt>
      <trkpt lat="46.21375" lon="-0.46493">
        <ele>31.4</ele>
        <time>2021-03-27T10:37:52Z</time>
      </trkpt>
      <trkpt lat="46.21393" lon="-0.46499">
        <ele>31.8</ele>
        <time>2021-03-27T10:37:55Z</time>
      </trkpt>
      <trkpt lat="46.21399" lon="-0.46501">
        <ele>32</ele>
        <time>2021-03-27T10:37:56Z</time>
      </trkpt>
      <trkpt lat="46.21404" lon="-0.46503">
        <ele>32</ele>
        <time>2021-03-27T10:37:57Z</time>
      </trkpt>
      <trkpt lat="46.2141" lon="-0.46505">
        <ele>32.2</ele>
        <time>2021-03-27T10:37:58Z</time>
      </trkpt>
      <trkpt lat="46.21415" lon="-0.46507">
        <ele>32.2</ele>
        <time>2021-03-27T10:37:59Z</time>
      </trkpt>
      <trkpt lat="46.21444" lon="-0.46517">
        <ele>33.2</ele>
        <time>2021-03-27T10:38:04Z</time>
      </trkpt>
      <trkpt lat="46.21449" lon="-0.46519">
        <ele>33.6</ele>
        <time>2021-03-27T10:38:05Z</time>
      </trkpt>
      <trkpt lat="46.21453" lon="-0.46521">
        <ele>34</ele>
        <time>2021-03-27T10:38:06Z</time>
      </trkpt>
      <trkpt lat="46.21458" lon="-0.46522">
        <ele>34.4</ele>
        <time>2021-03-27T10:38:07Z</time>
      </trkpt>
      <trkpt lat="46.21462" lon="-0.46523">
        <ele>34.4</ele>
        <time>2021-03-27T10:38:08Z</time>
      </trkpt>
      <trkpt lat="46.21465" lon="-0.46522">
        <ele>34.6</ele>
        <time>2021-03-27T10:38:09Z</time>
      </trkpt>
      <trkpt lat="46.21468" lon="-0.4652">
        <ele>34.8</ele>
        <time>2021-03-27T10:38:10Z</time>
      </trkpt>
      <trkpt lat="46.21471" lon="-0.46517">
        <ele>35.2</ele>
        <time>2021-03-27T10:38:11Z</time>
      </trkpt>
      <trkpt lat="46.21474" lon="-0.46511">
        <ele>35.6</ele>
        <time>2021-03-27T10:38:12Z</time>
      </trkpt>
      <trkpt lat="46.21476" lon="-0.46506">
        <ele>36</ele>
        <time>2021-03-27T10:38:13Z</time>
      </trkpt>
      <trkpt lat="46.21478" lon="-0.46497">
        <ele>36.4</ele>
        <time>2021-03-27T10:38:14Z</time>
      </trkpt>
      <trkpt lat="46.2148" lon="-0.46491">
        <ele>36.6</ele>
        <time>2021-03-27T10:38:15Z</time>
      </trkpt>
      <trkpt lat="46.21482" lon="-0.46483">
        <ele>37</ele>
        <time>2021-03-27T10:38:16Z</time>
      </trkpt>
      <trkpt lat="46.21485" lon="-0.46473">
        <ele>37.2</ele>
        <time>2021-03-27T10:38:17Z</time>
      </trkpt>
      <trkpt lat="46.21488" lon="-0.46465">
        <ele>37.4</ele>
        <time>2021-03-27T10:38:18Z</time>
      </trkpt>
      <trkpt lat="46.2149" lon="-0.46459">
        <ele>37.6</ele>
        <time>2021-03-27T10:38:19Z</time>
      </trkpt>
      <trkpt lat="46.21493" lon="-0.46451">
        <ele>37.6</ele>
        <time>2021-03-27T10:38:20Z</time>
      </trkpt>
      <trkpt lat="46.21496" lon="-0.46441">
        <ele>37.6</ele>
        <time>2021-03-27T10:38:21Z</time>
      </trkpt>
      <trkpt lat="46.21499" lon="-0.46434">
        <ele>37.8</ele>
        <time>2021-03-27T10:38:22Z</time>
      </trkpt>
      <trkpt lat="46.21503" lon="-0.46424">
        <ele>37.8</ele>
        <time>2021-03-27T10:38:23Z</time>
      </trkpt>
      <trkpt lat="46.21506" lon="-0.46415">
        <ele>38</ele>
        <time>2021-03-27T10:38:24Z</time>
      </trkpt>
      <trkpt lat="46.21509" lon="-0.46408">
        <ele>38.2</ele>
        <time>2021-03-27T10:38:25Z</time>
      </trkpt>
      <trkpt lat="46.21514" lon="-0.46397">
        <ele>38.4</ele>
        <time>2021-03-27T10:38:26Z</time>
      </trkpt>
      <trkpt lat="46.21517" lon="-0.4639">
        <ele>38.4</ele>
        <time>2021-03-27T10:38:27Z</time>
      </trkpt>
      <trkpt lat="46.2152" lon="-0.46382">
        <ele>38.6</ele>
        <time>2021-03-27T10:38:28Z</time>
      </trkpt>
      <trkpt lat="46.21524" lon="-0.46373">
        <ele>38.6</ele>
        <time>2021-03-27T10:38:29Z</time>
      </trkpt>
      <trkpt lat="46.21527" lon="-0.46364">
        <ele>38.8</ele>
        <time>2021-03-27T10:38:30Z</time>
      </trkpt>
      <trkpt lat="46.21531" lon="-0.46356">
        <ele>39</ele>
        <time>2021-03-27T10:38:31Z</time>
      </trkpt>
      <trkpt lat="46.21535" lon="-0.46346">
        <ele>39.2</ele>
        <time>2021-03-27T10:38:32Z</time>
      </trkpt>
      <trkpt lat="46.21538" lon="-0.46337">
        <ele>39.4</ele>
        <time>2021-03-27T10:38:33Z</time>
      </trkpt>
      <trkpt lat="46.21541" lon="-0.4633">
        <ele>39.6</ele>
        <time>2021-03-27T10:38:34Z</time>
      </trkpt>
      <trkpt lat="46.21546" lon="-0.46322">
        <ele>39.6</ele>
        <time>2021-03-27T10:38:35Z</time>
      </trkpt>
      <trkpt lat="46.21551" lon="-0.46312">
        <ele>39.8</ele>
        <time>2021-03-27T10:38:36Z</time>
      </trkpt>
      <trkpt lat="46.21554" lon="-0.46303">
        <ele>40</ele>
        <time>2021-03-27T10:38:37Z</time>
      </trkpt>
      <trkpt lat="46.21557" lon="-0.46297">
        <ele>40.4</ele>
        <time>2021-03-27T10:38:38Z</time>
      </trkpt>
      <trkpt lat="46.2156" lon="-0.46288">
        <ele>40.6</ele>
        <time>2021-03-27T10:38:39Z</time>
      </trkpt>
      <trkpt lat="46.21563" lon="-0.46278">
        <ele>40.8</ele>
        <time>2021-03-27T10:38:40Z</time>
      </trkpt>
      <trkpt lat="46.21566" lon="-0.46269">
        <ele>41.2</ele>
        <time>2021-03-27T10:38:41Z</time>
      </trkpt>
      <trkpt lat="46.21569" lon="-0.46262">
        <ele>41.6</ele>
        <time>2021-03-27T10:38:42Z</time>
      </trkpt>
      <trkpt lat="46.21572" lon="-0.46253">
        <ele>41.8</ele>
        <time>2021-03-27T10:38:43Z</time>
      </trkpt>
      <trkpt lat="46.21576" lon="-0.46243">
        <ele>42</ele>
        <time>2021-03-27T10:38:44Z</time>
      </trkpt>
      <trkpt lat="46.21579" lon="-0.46236">
        <ele>42.2</ele>
        <time>2021-03-27T10:38:45Z</time>
      </trkpt>
      <trkpt lat="46.21582" lon="-0.46225">
        <ele>42.6</ele>
        <time>2021-03-27T10:38:46Z</time>
      </trkpt>
      <trkpt lat="46.21585" lon="-0.46217">
        <ele>42.6</ele>
        <time>2021-03-27T10:38:47Z</time>
      </trkpt>
      <trkpt lat="46.21588" lon="-0.4621">
        <ele>43</ele>
        <time>2021-03-27T10:38:48Z</time>
      </trkpt>
      <trkpt lat="46.2159" lon="-0.46202">
        <ele>43.2</ele>
        <time>2021-03-27T10:38:49Z</time>
      </trkpt>
      <trkpt lat="46.21594" lon="-0.46193">
        <ele>43.4</ele>
        <time>2021-03-27T10:38:50Z</time>
      </trkpt>
      <trkpt lat="46.21596" lon="-0.46187">
        <ele>43.4</ele>
        <time>2021-03-27T10:38:51Z</time>
      </trkpt>
      <trkpt lat="46.21599" lon="-0.4618">
        <ele>43.6</ele>
        <time>2021-03-27T10:38:52Z</time>
      </trkpt>
      <trkpt lat="46.21601" lon="-0.46173">
        <ele>43.8</ele>
        <time>2021-03-27T10:38:53Z</time>
      </trkpt>
      <trkpt lat="46.21604" lon="-0.46166">
        <ele>43.8</ele>
        <time>2021-03-27T10:38:54Z</time>
      </trkpt>
      <trkpt lat="46.21606" lon="-0.46159">
        <ele>43.8</ele>
        <time>2021-03-27T10:38:55Z</time>
      </trkpt>
      <trkpt lat="46.21609" lon="-0.46151">
        <ele>44</ele>
        <time>2021-03-27T10:38:56Z</time>
      </trkpt>
      <trkpt lat="46.21611" lon="-0.46146">
        <ele>44</ele>
        <time>2021-03-27T10:38:57Z</time>
      </trkpt>
      <trkpt lat="46.21614" lon="-0.46138">
        <ele>44.2</ele>
        <time>2021-03-27T10:38:58Z</time>
      </trkpt>
      <trkpt lat="46.21616" lon="-0.46132">
        <ele>44.2</ele>
        <time>2021-03-27T10:38:59Z</time>
      </trkpt>
      <trkpt lat="46.21619" lon="-0.46125">
        <ele>44.4</ele>
        <time>2021-03-27T10:39:00Z</time>
      </trkpt>
      <trkpt lat="46.21622" lon="-0.46119">
        <ele>44.4</ele>
        <time>2021-03-27T10:39:01Z</time>
      </trkpt>
      <trkpt lat="46.21625" lon="-0.46112">
        <ele>44.4</ele>
        <time>2021-03-27T10:39:02Z</time>
      </trkpt>
      <trkpt lat="46.21628" lon="-0.46103">
        <ele>44.6</ele>
        <time>2021-03-27T10:39:03Z</time>
      </trkpt>
      <trkpt lat="46.21631" lon="-0.46095">
        <ele>44.8</ele>
        <time>2021-03-27T10:39:04Z</time>
      </trkpt>
      <trkpt lat="46.21634" lon="-0.46087">
        <ele>44.8</ele>
        <time>2021-03-27T10:39:05Z</time>
      </trkpt>
      <trkpt lat="46.21637" lon="-0.46079">
        <ele>45</ele>
        <time>2021-03-27T10:39:06Z</time>
      </trkpt>
      <trkpt lat="46.2164" lon="-0.4607">
        <ele>45</ele>
        <time>2021-03-27T10:39:07Z</time>
      </trkpt>
      <trkpt lat="46.21643" lon="-0.46062">
        <ele>45</ele>
        <time>2021-03-27T10:39:08Z</time>
      </trkpt>
      <trkpt lat="46.21646" lon="-0.46053">
        <ele>45</ele>
        <time>2021-03-27T10:39:09Z</time>
      </trkpt>
      <trkpt lat="46.21649" lon="-0.46045">
        <ele>45</ele>
        <time>2021-03-27T10:39:10Z</time>
      </trkpt>
      <trkpt lat="46.21652" lon="-0.46036">
        <ele>45</ele>
        <time>2021-03-27T10:39:11Z</time>
      </trkpt>
      <trkpt lat="46.21655" lon="-0.46028">
        <ele>45.2</ele>
        <time>2021-03-27T10:39:12Z</time>
      </trkpt>
      <trkpt lat="46.21657" lon="-0.46019">
        <ele>45.2</ele>
        <time>2021-03-27T10:39:13Z</time>
      </trkpt>
      <trkpt lat="46.2166" lon="-0.46009">
        <ele>45.2</ele>
        <time>2021-03-27T10:39:14Z</time>
      </trkpt>
      <trkpt lat="46.21663" lon="-0.46">
        <ele>45.2</ele>
        <time>2021-03-27T10:39:15Z</time>
      </trkpt>
      <trkpt lat="46.21665" lon="-0.45991">
        <ele>45.2</ele>
        <time>2021-03-27T10:39:16Z</time>
      </trkpt>
      <trkpt lat="46.21668" lon="-0.45982">
        <ele>45.2</ele>
        <time>2021-03-27T10:39:17Z</time>
      </trkpt>
      <trkpt lat="46.21671" lon="-0.45973">
        <ele>45.2</ele>
        <time>2021-03-27T10:39:18Z</time>
      </trkpt>
      <trkpt lat="46.21691" lon="-0.45904">
        <ele>45.2</ele>
        <time>2021-03-27T10:39:26Z</time>
      </trkpt>
      <trkpt lat="46.21694" lon="-0.45895">
        <ele>45.4</ele>
        <time>2021-03-27T10:39:27Z</time>
      </trkpt>
      <trkpt lat="46.21697" lon="-0.45887">
        <ele>45.4</ele>
        <time>2021-03-27T10:39:28Z</time>
      </trkpt>
      <trkpt lat="46.217" lon="-0.45879">
        <ele>45.4</ele>
        <time>2021-03-27T10:39:29Z</time>
      </trkpt>
      <trkpt lat="46.21703" lon="-0.45872">
        <ele>45.4</ele>
        <time>2021-03-27T10:39:30Z</time>
      </trkpt>
      <trkpt lat="46.21707" lon="-0.45864">
        <ele>45.4</ele>
        <time>2021-03-27T10:39:31Z</time>
      </trkpt>
      <trkpt lat="46.21713" lon="-0.45848">
        <ele>45.4</ele>
        <time>2021-03-27T10:39:33Z</time>
      </trkpt>
      <trkpt lat="46.21716" lon="-0.4584">
        <ele>45.4</ele>
        <time>2021-03-27T10:39:34Z</time>
      </trkpt>
      <trkpt lat="46.2172" lon="-0.45832">
        <ele>45.4</ele>
        <time>2021-03-27T10:39:35Z</time>
      </trkpt>
      <trkpt lat="46.21723" lon="-0.45824">
        <ele>45.4</ele>
        <time>2021-03-27T10:39:36Z</time>
      </trkpt>
      <trkpt lat="46.21725" lon="-0.45816">
        <ele>45.4</ele>
        <time>2021-03-27T10:39:37Z</time>
      </trkpt>
      <trkpt lat="46.21728" lon="-0.4581">
        <ele>45.4</ele>
        <time>2021-03-27T10:39:38Z</time>
      </trkpt>
      <trkpt lat="46.2173" lon="-0.45803">
        <ele>45.4</ele>
        <time>2021-03-27T10:39:39Z</time>
      </trkpt>
      <trkpt lat="46.21732" lon="-0.45796">
        <ele>45.4</ele>
        <time>2021-03-27T10:39:40Z</time>
      </trkpt>
      <trkpt lat="46.21734" lon="-0.45788">
        <ele>45.4</ele>
        <time>2021-03-27T10:39:41Z</time>
      </trkpt>
      <trkpt lat="46.21738" lon="-0.45762">
        <ele>45.4</ele>
        <time>2021-03-27T10:39:44Z</time>
      </trkpt>
      <trkpt lat="46.21749" lon="-0.457">
        <ele>45</ele>
        <time>2021-03-27T10:39:51Z</time>
      </trkpt>
      <trkpt lat="46.21767" lon="-0.45657">
        <ele>44.8</ele>
        <time>2021-03-27T10:39:56Z</time>
      </trkpt>
      <trkpt lat="46.21771" lon="-0.45648">
        <ele>44.8</ele>
        <time>2021-03-27T10:39:57Z</time>
      </trkpt>
      <trkpt lat="46.21775" lon="-0.45639">
        <ele>44.8</ele>
        <time>2021-03-27T10:39:58Z</time>
      </trkpt>
      <trkpt lat="46.21795" lon="-0.45589">
        <ele>44.8</ele>
        <time>2021-03-27T10:40:04Z</time>
      </trkpt>
      <trkpt lat="46.21802" lon="-0.45573">
        <ele>44.8</ele>
        <time>2021-03-27T10:40:06Z</time>
      </trkpt>
      <trkpt lat="46.21805" lon="-0.45565">
        <ele>44.8</ele>
        <time>2021-03-27T10:40:07Z</time>
      </trkpt>
      <trkpt lat="46.21808" lon="-0.45557">
        <ele>44.8</ele>
        <time>2021-03-27T10:40:08Z</time>
      </trkpt>
      <trkpt lat="46.21814" lon="-0.45543">
        <ele>44.8</ele>
        <time>2021-03-27T10:40:10Z</time>
      </trkpt>
      <trkpt lat="46.21817" lon="-0.45535">
        <ele>45</ele>
        <time>2021-03-27T10:40:11Z</time>
      </trkpt>
      <trkpt lat="46.21835" lon="-0.45484">
        <ele>44.8</ele>
        <time>2021-03-27T10:40:17Z</time>
      </trkpt>
      <trkpt lat="46.21857" lon="-0.45428">
        <ele>44</ele>
        <time>2021-03-27T10:40:24Z</time>
      </trkpt>
      <trkpt lat="46.2186" lon="-0.4542">
        <ele>43.8</ele>
        <time>2021-03-27T10:40:25Z</time>
      </trkpt>
      <trkpt lat="46.21862" lon="-0.45413">
        <ele>43.4</ele>
        <time>2021-03-27T10:40:26Z</time>
      </trkpt>
      <trkpt lat="46.21865" lon="-0.45405">
        <ele>43.2</ele>
        <time>2021-03-27T10:40:27Z</time>
      </trkpt>
      <trkpt lat="46.21867" lon="-0.45397">
        <ele>43</ele>
        <time>2021-03-27T10:40:28Z</time>
      </trkpt>
      <trkpt lat="46.2187" lon="-0.4539">
        <ele>42.8</ele>
        <time>2021-03-27T10:40:29Z</time>
      </trkpt>
      <trkpt lat="46.21872" lon="-0.45382">
        <ele>42.6</ele>
        <time>2021-03-27T10:40:30Z</time>
      </trkpt>
      <trkpt lat="46.21875" lon="-0.45375">
        <ele>42.2</ele>
        <time>2021-03-27T10:40:31Z</time>
      </trkpt>
      <trkpt lat="46.21878" lon="-0.45367">
        <ele>42</ele>
        <time>2021-03-27T10:40:32Z</time>
      </trkpt>
      <trkpt lat="46.21882" lon="-0.45361">
        <ele>42</ele>
        <time>2021-03-27T10:40:33Z</time>
      </trkpt>
      <trkpt lat="46.21886" lon="-0.45354">
        <ele>41.6</ele>
        <time>2021-03-27T10:40:34Z</time>
      </trkpt>
      <trkpt lat="46.21898" lon="-0.45334">
        <ele>41.4</ele>
        <time>2021-03-27T10:40:37Z</time>
      </trkpt>
      <trkpt lat="46.21903" lon="-0.45328">
        <ele>41.2</ele>
        <time>2021-03-27T10:40:38Z</time>
      </trkpt>
      <trkpt lat="46.21927" lon="-0.45297">
        <ele>40.6</ele>
        <time>2021-03-27T10:40:43Z</time>
      </trkpt>
      <trkpt lat="46.21936" lon="-0.45285">
        <ele>40.2</ele>
        <time>2021-03-27T10:40:45Z</time>
      </trkpt>
      <trkpt lat="46.21948" lon="-0.4527">
        <ele>39.8</ele>
        <time>2021-03-27T10:40:48Z</time>
      </trkpt>
      <trkpt lat="46.21952" lon="-0.45266">
        <ele>39.6</ele>
        <time>2021-03-27T10:40:49Z</time>
      </trkpt>
      <trkpt lat="46.21957" lon="-0.45263">
        <ele>39.6</ele>
        <time>2021-03-27T10:40:50Z</time>
      </trkpt>
      <trkpt lat="46.21961" lon="-0.45262">
        <ele>39.6</ele>
        <time>2021-03-27T10:40:51Z</time>
      </trkpt>
      <trkpt lat="46.21965" lon="-0.45262">
        <ele>39.4</ele>
        <time>2021-03-27T10:40:52Z</time>
      </trkpt>
      <trkpt lat="46.21969" lon="-0.45263">
        <ele>39.4</ele>
        <time>2021-03-27T10:40:53Z</time>
      </trkpt>
      <trkpt lat="46.21974" lon="-0.45264">
        <ele>39.4</ele>
        <time>2021-03-27T10:40:54Z</time>
      </trkpt>
      <trkpt lat="46.21978" lon="-0.45264">
        <ele>39.4</ele>
        <time>2021-03-27T10:40:55Z</time>
      </trkpt>
      <trkpt lat="46.21998" lon="-0.45264">
        <ele>39.4</ele>
        <time>2021-03-27T10:40:59Z</time>
      </trkpt>
      <trkpt lat="46.22013" lon="-0.45264">
        <ele>39.4</ele>
        <time>2021-03-27T10:41:02Z</time>
      </trkpt>
      <trkpt lat="46.22017" lon="-0.45264">
        <ele>39.4</ele>
        <time>2021-03-27T10:41:03Z</time>
      </trkpt>
      <trkpt lat="46.22031" lon="-0.45263">
        <ele>39.4</ele>
        <time>2021-03-27T10:41:06Z</time>
      </trkpt>
      <trkpt lat="46.22063" lon="-0.45263">
        <ele>39</ele>
        <time>2021-03-27T10:41:12Z</time>
      </trkpt>
      <trkpt lat="46.22068" lon="-0.45263">
        <ele>39</ele>
        <time>2021-03-27T10:41:13Z</time>
      </trkpt>
      <trkpt lat="46.22073" lon="-0.45263">
        <ele>38.8</ele>
        <time>2021-03-27T10:41:14Z</time>
      </trkpt>
      <trkpt lat="46.22077" lon="-0.45263">
        <ele>38.8</ele>
        <time>2021-03-27T10:41:15Z</time>
      </trkpt>
      <trkpt lat="46.2208" lon="-0.45265">
        <ele>38.6</ele>
        <time>2021-03-27T10:41:16Z</time>
      </trkpt>
      <trkpt lat="46.22084" lon="-0.45269">
        <ele>38.6</ele>
        <time>2021-03-27T10:41:17Z</time>
      </trkpt>
      <trkpt lat="46.22086" lon="-0.45274">
        <ele>38.6</ele>
        <time>2021-03-27T10:41:18Z</time>
      </trkpt>
      <trkpt lat="46.22086" lon="-0.4528">
        <ele>38.4</ele>
        <time>2021-03-27T10:41:19Z</time>
      </trkpt>
      <trkpt lat="46.22086" lon="-0.45286">
        <ele>38.2</ele>
        <time>2021-03-27T10:41:20Z</time>
      </trkpt>
      <trkpt lat="46.22085" lon="-0.45292">
        <ele>38</ele>
        <time>2021-03-27T10:41:21Z</time>
      </trkpt>
      <trkpt lat="46.22081" lon="-0.45328">
        <ele>37.4</ele>
        <time>2021-03-27T10:41:26Z</time>
      </trkpt>
      <trkpt lat="46.2208" lon="-0.45336">
        <ele>37.2</ele>
        <time>2021-03-27T10:41:27Z</time>
      </trkpt>
      <trkpt lat="46.22078" lon="-0.45352">
        <ele>37</ele>
        <time>2021-03-27T10:41:29Z</time>
      </trkpt>
      <trkpt lat="46.22077" lon="-0.4536">
        <ele>37</ele>
        <time>2021-03-27T10:41:30Z</time>
      </trkpt>
      <trkpt lat="46.22076" lon="-0.45369">
        <ele>36.8</ele>
        <time>2021-03-27T10:41:31Z</time>
      </trkpt>
      <trkpt lat="46.22073" lon="-0.45403">
        <ele>36.6</ele>
        <time>2021-03-27T10:41:35Z</time>
      </trkpt>
      <trkpt lat="46.22071" lon="-0.45412">
        <ele>36.6</ele>
        <time>2021-03-27T10:41:36Z</time>
      </trkpt>
      <trkpt lat="46.22068" lon="-0.45438">
        <ele>36.4</ele>
        <time>2021-03-27T10:41:39Z</time>
      </trkpt>
      <trkpt lat="46.22064" lon="-0.45472">
        <ele>36.2</ele>
        <time>2021-03-27T10:41:43Z</time>
      </trkpt>
      <trkpt lat="46.22059" lon="-0.45508">
        <ele>36</ele>
        <time>2021-03-27T10:41:47Z</time>
      </trkpt>
      <trkpt lat="46.22051" lon="-0.45581">
        <ele>36</ele>
        <time>2021-03-27T10:41:55Z</time>
      </trkpt>
      <trkpt lat="46.22049" lon="-0.45599">
        <ele>36</ele>
        <time>2021-03-27T10:41:57Z</time>
      </trkpt>
      <trkpt lat="46.22042" lon="-0.45656">
        <ele>35.2</ele>
        <time>2021-03-27T10:42:03Z</time>
      </trkpt>
      <trkpt lat="46.22038" lon="-0.4569">
        <ele>35.4</ele>
        <time>2021-03-27T10:42:07Z</time>
      </trkpt>
      <trkpt lat="46.22036" lon="-0.45698">
        <ele>35.6</ele>
        <time>2021-03-27T10:42:08Z</time>
      </trkpt>
      <trkpt lat="46.22034" lon="-0.45705">
        <ele>35.6</ele>
        <time>2021-03-27T10:42:09Z</time>
      </trkpt>
      <trkpt lat="46.22031" lon="-0.45713">
        <ele>35.6</ele>
        <time>2021-03-27T10:42:10Z</time>
      </trkpt>
      <trkpt lat="46.22026" lon="-0.45719">
        <ele>35.6</ele>
        <time>2021-03-27T10:42:11Z</time>
      </trkpt>
      <trkpt lat="46.22022" lon="-0.45726">
        <ele>35.6</ele>
        <time>2021-03-27T10:42:12Z</time>
      </trkpt>
      <trkpt lat="46.21997" lon="-0.45768">
        <ele>36.2</ele>
        <time>2021-03-27T10:42:18Z</time>
      </trkpt>
      <trkpt lat="46.21993" lon="-0.45782">
        <ele>36.4</ele>
        <time>2021-03-27T10:42:20Z</time>
      </trkpt>
      <trkpt lat="46.21992" lon="-0.45787">
        <ele>36.4</ele>
        <time>2021-03-27T10:42:21Z</time>
      </trkpt>
      <trkpt lat="46.21991" lon="-0.4579">
        <ele>36.6</ele>
        <time>2021-03-27T10:42:22Z</time>
      </trkpt>
      <trkpt lat="46.2199" lon="-0.45792">
        <ele>36.8</ele>
        <time>2021-03-27T10:42:23Z</time>
      </trkpt>
      <trkpt lat="46.2199" lon="-0.45792">
        <ele>36.8</ele>
        <time>2021-03-27T10:42:24Z</time>
      </trkpt>
      <trkpt lat="46.2199" lon="-0.45792">
        <ele>37</ele>
        <time>2021-03-27T10:42:25Z</time>
      </trkpt>
      <trkpt lat="46.2199" lon="-0.45792">
        <ele>37.2</ele>
        <time>2021-03-27T10:42:26Z</time>
      </trkpt>
      <trkpt lat="46.21989" lon="-0.45799">
        <ele>39</ele>
        <time>2021-03-27T10:42:31Z</time>
      </trkpt>
      <trkpt lat="46.21988" lon="-0.45809">
        <ele>39.4</ele>
        <time>2021-03-27T10:42:33Z</time>
      </trkpt>
      <trkpt lat="46.21987" lon="-0.45814">
        <ele>39.4</ele>
        <time>2021-03-27T10:42:34Z</time>
      </trkpt>
      <trkpt lat="46.21986" lon="-0.4582">
        <ele>39.4</ele>
        <time>2021-03-27T10:42:35Z</time>
      </trkpt>
      <trkpt lat="46.21986" lon="-0.45826">
        <ele>39.4</ele>
        <time>2021-03-27T10:42:36Z</time>
      </trkpt>
      <trkpt lat="46.21985" lon="-0.45832">
        <ele>39.6</ele>
        <time>2021-03-27T10:42:37Z</time>
      </trkpt>
      <trkpt lat="46.21985" lon="-0.45838">
        <ele>39.6</ele>
        <time>2021-03-27T10:42:38Z</time>
      </trkpt>
      <trkpt lat="46.21984" lon="-0.45844">
        <ele>39.6</ele>
        <time>2021-03-27T10:42:39Z</time>
      </trkpt>
      <trkpt lat="46.21984" lon="-0.45851">
        <ele>39.6</ele>
        <time>2021-03-27T10:42:40Z</time>
      </trkpt>
      <trkpt lat="46.21983" lon="-0.45857">
        <ele>39.6</ele>
        <time>2021-03-27T10:42:41Z</time>
      </trkpt>
      <trkpt lat="46.21983" lon="-0.45862">
        <ele>39.6</ele>
        <time>2021-03-27T10:42:42Z</time>
      </trkpt>
      <trkpt lat="46.21981" lon="-0.45867">
        <ele>39.6</ele>
        <time>2021-03-27T10:42:43Z</time>
      </trkpt>
      <trkpt lat="46.2198" lon="-0.45872">
        <ele>39.6</ele>
        <time>2021-03-27T10:42:44Z</time>
      </trkpt>
      <trkpt lat="46.21979" lon="-0.45877">
        <ele>39.4</ele>
        <time>2021-03-27T10:42:45Z</time>
      </trkpt>
      <trkpt lat="46.21978" lon="-0.45881">
        <ele>39.4</ele>
        <time>2021-03-27T10:42:46Z</time>
      </trkpt>
      <trkpt lat="46.21976" lon="-0.45885">
        <ele>39.4</ele>
        <time>2021-03-27T10:42:47Z</time>
      </trkpt>
      <trkpt lat="46.21975" lon="-0.4589">
        <ele>39.4</ele>
        <time>2021-03-27T10:42:48Z</time>
      </trkpt>
      <trkpt lat="46.21973" lon="-0.45895">
        <ele>39.4</ele>
        <time>2021-03-27T10:42:49Z</time>
      </trkpt>
      <trkpt lat="46.21971" lon="-0.45901">
        <ele>39.4</ele>
        <time>2021-03-27T10:42:50Z</time>
      </trkpt>
      <trkpt lat="46.21969" lon="-0.45907">
        <ele>39.4</ele>
        <time>2021-03-27T10:42:51Z</time>
      </trkpt>
      <trkpt lat="46.21967" lon="-0.45912">
        <ele>39.4</ele>
        <time>2021-03-27T10:42:52Z</time>
      </trkpt>
      <trkpt lat="46.21962" lon="-0.45931">
        <ele>39.4</ele>
        <time>2021-03-27T10:42:56Z</time>
      </trkpt>
      <trkpt lat="46.21961" lon="-0.45935">
        <ele>39.4</ele>
        <time>2021-03-27T10:42:57Z</time>
      </trkpt>
      <trkpt lat="46.2196" lon="-0.45938">
        <ele>39.4</ele>
        <time>2021-03-27T10:42:58Z</time>
      </trkpt>
      <trkpt lat="46.21959" lon="-0.45941">
        <ele>39.4</ele>
        <time>2021-03-27T10:42:59Z</time>
      </trkpt>
      <trkpt lat="46.21958" lon="-0.45945">
        <ele>39.6</ele>
        <time>2021-03-27T10:43:00Z</time>
      </trkpt>
      <trkpt lat="46.21952" lon="-0.45963">
        <ele>39.8</ele>
        <time>2021-03-27T10:43:03Z</time>
      </trkpt>
      <trkpt lat="46.21945" lon="-0.45991">
        <ele>40</ele>
        <time>2021-03-27T10:43:07Z</time>
      </trkpt>
      <trkpt lat="46.21943" lon="-0.45996">
        <ele>40.2</ele>
        <time>2021-03-27T10:43:08Z</time>
      </trkpt>
      <trkpt lat="46.21942" lon="-0.46002">
        <ele>40.4</ele>
        <time>2021-03-27T10:43:09Z</time>
      </trkpt>
      <trkpt lat="46.2194" lon="-0.46009">
        <ele>40.6</ele>
        <time>2021-03-27T10:43:10Z</time>
      </trkpt>
      <trkpt lat="46.21938" lon="-0.46022">
        <ele>40.8</ele>
        <time>2021-03-27T10:43:12Z</time>
      </trkpt>
      <trkpt lat="46.21936" lon="-0.46032">
        <ele>40.8</ele>
        <time>2021-03-27T10:43:14Z</time>
      </trkpt>
      <trkpt lat="46.21936" lon="-0.46033">
        <ele>41</ele>
        <time>2021-03-27T10:43:15Z</time>
      </trkpt>
      <trkpt lat="46.21936" lon="-0.46033">
        <ele>41</ele>
        <time>2021-03-27T10:43:16Z</time>
      </trkpt>
      <trkpt lat="46.21936" lon="-0.46032">
        <ele>41.2</ele>
        <time>2021-03-27T10:43:17Z</time>
      </trkpt>
      <trkpt lat="46.21934" lon="-0.46038">
        <ele>42.8</ele>
        <time>2021-03-27T10:44:10Z</time>
      </trkpt>
      <trkpt lat="46.21932" lon="-0.46047">
        <ele>42.8</ele>
        <time>2021-03-27T10:44:12Z</time>
      </trkpt>
      <trkpt lat="46.21927" lon="-0.46063">
        <ele>42.8</ele>
        <time>2021-03-27T10:44:15Z</time>
      </trkpt>
      <trkpt lat="46.21923" lon="-0.46076">
        <ele>42.8</ele>
        <time>2021-03-27T10:44:17Z</time>
      </trkpt>
      <trkpt lat="46.2192" lon="-0.46087">
        <ele>42.8</ele>
        <time>2021-03-27T10:44:19Z</time>
      </trkpt>
      <trkpt lat="46.21919" lon="-0.46092">
        <ele>42.8</ele>
        <time>2021-03-27T10:44:20Z</time>
      </trkpt>
      <trkpt lat="46.21917" lon="-0.46097">
        <ele>42.8</ele>
        <time>2021-03-27T10:44:21Z</time>
      </trkpt>
      <trkpt lat="46.21916" lon="-0.46101">
        <ele>42.8</ele>
        <time>2021-03-27T10:44:22Z</time>
      </trkpt>
      <trkpt lat="46.21915" lon="-0.46107">
        <ele>42.8</ele>
        <time>2021-03-27T10:44:23Z</time>
      </trkpt>
      <trkpt lat="46.21911" lon="-0.46123">
        <ele>42.8</ele>
        <time>2021-03-27T10:44:26Z</time>
      </trkpt>
      <trkpt lat="46.2191" lon="-0.46128">
        <ele>42.8</ele>
        <time>2021-03-27T10:44:27Z</time>
      </trkpt>
      <trkpt lat="46.21908" lon="-0.46133">
        <ele>42.8</ele>
        <time>2021-03-27T10:44:28Z</time>
      </trkpt>
      <trkpt lat="46.21907" lon="-0.46138">
        <ele>42.8</ele>
        <time>2021-03-27T10:44:29Z</time>
      </trkpt>
      <trkpt lat="46.21906" lon="-0.46143">
        <ele>43.2</ele>
        <time>2021-03-27T10:44:30Z</time>
      </trkpt>
      <trkpt lat="46.21905" lon="-0.46149">
        <ele>43.2</ele>
        <time>2021-03-27T10:44:31Z</time>
      </trkpt>
      <trkpt lat="46.21904" lon="-0.46154">
        <ele>43.2</ele>
        <time>2021-03-27T10:44:32Z</time>
      </trkpt>
      <trkpt lat="46.21899" lon="-0.46177">
        <ele>43.4</ele>
        <time>2021-03-27T10:44:36Z</time>
      </trkpt>
      <trkpt lat="46.21896" lon="-0.46193">
        <ele>43.2</ele>
        <time>2021-03-27T10:44:38Z</time>
      </trkpt>
      <trkpt lat="46.21889" lon="-0.46223">
        <ele>43</ele>
        <time>2021-03-27T10:44:42Z</time>
      </trkpt>
      <trkpt lat="46.21885" lon="-0.46239">
        <ele>42.8</ele>
        <time>2021-03-27T10:44:44Z</time>
      </trkpt>
      <trkpt lat="46.21882" lon="-0.46255">
        <ele>42.6</ele>
        <time>2021-03-27T10:44:46Z</time>
      </trkpt>
      <trkpt lat="46.21871" lon="-0.46313">
        <ele>42.2</ele>
        <time>2021-03-27T10:44:53Z</time>
      </trkpt>
      <trkpt lat="46.21865" lon="-0.46329">
        <ele>42.2</ele>
        <time>2021-03-27T10:44:55Z</time>
      </trkpt>
      <trkpt lat="46.21853" lon="-0.46349">
        <ele>42</ele>
        <time>2021-03-27T10:44:58Z</time>
      </trkpt>
      <trkpt lat="46.21843" lon="-0.4636">
        <ele>42</ele>
        <time>2021-03-27T10:45:00Z</time>
      </trkpt>
      <trkpt lat="46.21821" lon="-0.46377">
        <ele>41.8</ele>
        <time>2021-03-27T10:45:04Z</time>
      </trkpt>
      <trkpt lat="46.21816" lon="-0.4638">
        <ele>41.4</ele>
        <time>2021-03-27T10:45:05Z</time>
      </trkpt>
      <trkpt lat="46.21812" lon="-0.46383">
        <ele>41.4</ele>
        <time>2021-03-27T10:45:06Z</time>
      </trkpt>
      <trkpt lat="46.21808" lon="-0.46386">
        <ele>41.2</ele>
        <time>2021-03-27T10:45:07Z</time>
      </trkpt>
      <trkpt lat="46.21803" lon="-0.4639">
        <ele>41.2</ele>
        <time>2021-03-27T10:45:08Z</time>
      </trkpt>
      <trkpt lat="46.21799" lon="-0.46393">
        <ele>41.2</ele>
        <time>2021-03-27T10:45:09Z</time>
      </trkpt>
      <trkpt lat="46.21796" lon="-0.46396">
        <ele>41.2</ele>
        <time>2021-03-27T10:45:10Z</time>
      </trkpt>
      <trkpt lat="46.21792" lon="-0.46399">
        <ele>41.2</ele>
        <time>2021-03-27T10:45:11Z</time>
      </trkpt>
      <trkpt lat="46.21788" lon="-0.46402">
        <ele>41.2</ele>
        <time>2021-03-27T10:45:12Z</time>
      </trkpt>
      <trkpt lat="46.21775" lon="-0.46409">
        <ele>41.2</ele>
        <time>2021-03-27T10:45:15Z</time>
      </trkpt>
      <trkpt lat="46.21765" lon="-0.46415">
        <ele>41.4</ele>
        <time>2021-03-27T10:45:17Z</time>
      </trkpt>
      <trkpt lat="46.21732" lon="-0.46437">
        <ele>41.8</ele>
        <time>2021-03-27T10:45:24Z</time>
      </trkpt>
      <trkpt lat="46.21727" lon="-0.46441">
        <ele>42</ele>
        <time>2021-03-27T10:45:25Z</time>
      </trkpt>
      <trkpt lat="46.21703" lon="-0.46457">
        <ele>42.2</ele>
        <time>2021-03-27T10:45:30Z</time>
      </trkpt>
      <trkpt lat="46.21682" lon="-0.46476">
        <ele>42.8</ele>
        <time>2021-03-27T10:45:35Z</time>
      </trkpt>
      <trkpt lat="46.21678" lon="-0.46479">
        <ele>43</ele>
        <time>2021-03-27T10:45:36Z</time>
      </trkpt>
      <trkpt lat="46.21674" lon="-0.46483">
        <ele>43.2</ele>
        <time>2021-03-27T10:45:37Z</time>
      </trkpt>
      <trkpt lat="46.21669" lon="-0.46487">
        <ele>43.2</ele>
        <time>2021-03-27T10:45:38Z</time>
      </trkpt>
      <trkpt lat="46.21665" lon="-0.46491">
        <ele>43.4</ele>
        <time>2021-03-27T10:45:39Z</time>
      </trkpt>
      <trkpt lat="46.21661" lon="-0.46495">
        <ele>43.4</ele>
        <time>2021-03-27T10:45:40Z</time>
      </trkpt>
      <trkpt lat="46.21644" lon="-0.46513">
        <ele>43.4</ele>
        <time>2021-03-27T10:45:44Z</time>
      </trkpt>
      <trkpt lat="46.21639" lon="-0.46516">
        <ele>43.4</ele>
        <time>2021-03-27T10:45:45Z</time>
      </trkpt>
      <trkpt lat="46.21622" lon="-0.46531">
        <ele>43.4</ele>
        <time>2021-03-27T10:45:49Z</time>
      </trkpt>
      <trkpt lat="46.21618" lon="-0.46535">
        <ele>43.4</ele>
        <time>2021-03-27T10:45:50Z</time>
      </trkpt>
      <trkpt lat="46.21613" lon="-0.46539">
        <ele>43.4</ele>
        <time>2021-03-27T10:45:51Z</time>
      </trkpt>
      <trkpt lat="46.21601" lon="-0.4655">
        <ele>43.4</ele>
        <time>2021-03-27T10:45:54Z</time>
      </trkpt>
      <trkpt lat="46.21597" lon="-0.46554">
        <ele>43.2</ele>
        <time>2021-03-27T10:45:55Z</time>
      </trkpt>
      <trkpt lat="46.21593" lon="-0.46558">
        <ele>43.2</ele>
        <time>2021-03-27T10:45:56Z</time>
      </trkpt>
      <trkpt lat="46.2159" lon="-0.46562">
        <ele>43</ele>
        <time>2021-03-27T10:45:57Z</time>
      </trkpt>
      <trkpt lat="46.21586" lon="-0.46566">
        <ele>43</ele>
        <time>2021-03-27T10:45:58Z</time>
      </trkpt>
      <trkpt lat="46.21582" lon="-0.46569">
        <ele>43</ele>
        <time>2021-03-27T10:45:59Z</time>
      </trkpt>
      <trkpt lat="46.21555" lon="-0.46594">
        <ele>42.4</ele>
        <time>2021-03-27T10:46:05Z</time>
      </trkpt>
      <trkpt lat="46.21541" lon="-0.46607">
        <ele>41.8</ele>
        <time>2021-03-27T10:46:08Z</time>
      </trkpt>
      <trkpt lat="46.21528" lon="-0.4662">
        <ele>40.8</ele>
        <time>2021-03-27T10:46:11Z</time>
      </trkpt>
      <trkpt lat="46.21524" lon="-0.46625">
        <ele>40.6</ele>
        <time>2021-03-27T10:46:12Z</time>
      </trkpt>
      <trkpt lat="46.21507" lon="-0.46645">
        <ele>39.6</ele>
        <time>2021-03-27T10:46:16Z</time>
      </trkpt>
      <trkpt lat="46.21499" lon="-0.46656">
        <ele>39.2</ele>
        <time>2021-03-27T10:46:18Z</time>
      </trkpt>
      <trkpt lat="46.2149" lon="-0.46665">
        <ele>38.8</ele>
        <time>2021-03-27T10:46:20Z</time>
      </trkpt>
      <trkpt lat="46.21481" lon="-0.46675">
        <ele>38.6</ele>
        <time>2021-03-27T10:46:22Z</time>
      </trkpt>
      <trkpt lat="46.21461" lon="-0.46699">
        <ele>37.2</ele>
        <time>2021-03-27T10:46:27Z</time>
      </trkpt>
      <trkpt lat="46.21457" lon="-0.46702">
        <ele>36.8</ele>
        <time>2021-03-27T10:46:28Z</time>
      </trkpt>
      <trkpt lat="46.21453" lon="-0.46707">
        <ele>36.4</ele>
        <time>2021-03-27T10:46:29Z</time>
      </trkpt>
      <trkpt lat="46.21448" lon="-0.46711">
        <ele>36</ele>
        <time>2021-03-27T10:46:30Z</time>
      </trkpt>
      <trkpt lat="46.21444" lon="-0.46714">
        <ele>35.6</ele>
        <time>2021-03-27T10:46:31Z</time>
      </trkpt>
      <trkpt lat="46.21439" lon="-0.46717">
        <ele>35.6</ele>
        <time>2021-03-27T10:46:32Z</time>
      </trkpt>
      <trkpt lat="46.21436" lon="-0.4672">
        <ele>35.4</ele>
        <time>2021-03-27T10:46:33Z</time>
      </trkpt>
      <trkpt lat="46.21433" lon="-0.46725">
        <ele>35.2</ele>
        <time>2021-03-27T10:46:34Z</time>
      </trkpt>
      <trkpt lat="46.21432" lon="-0.46729">
        <ele>35.2</ele>
        <time>2021-03-27T10:46:35Z</time>
      </trkpt>
      <trkpt lat="46.21432" lon="-0.46734">
        <ele>34.8</ele>
        <time>2021-03-27T10:46:36Z</time>
      </trkpt>
      <trkpt lat="46.21432" lon="-0.46739">
        <ele>34.6</ele>
        <time>2021-03-27T10:46:37Z</time>
      </trkpt>
      <trkpt lat="46.21432" lon="-0.46745">
        <ele>34.6</ele>
        <time>2021-03-27T10:46:39Z</time>
      </trkpt>
      <trkpt lat="46.21431" lon="-0.46747">
        <ele>34.6</ele>
        <time>2021-03-27T10:46:40Z</time>
      </trkpt>
      <trkpt lat="46.21431" lon="-0.46748">
        <ele>34.6</ele>
        <time>2021-03-27T10:46:41Z</time>
      </trkpt>
      <trkpt lat="46.21431" lon="-0.46748">
        <ele>34.6</ele>
        <time>2021-03-27T10:46:42Z</time>
      </trkpt>
      <trkpt lat="46.21431" lon="-0.46748">
        <ele>34.6</ele>
        <time>2021-03-27T10:46:43Z</time>
      </trkpt>
      <trkpt lat="46.21429" lon="-0.46754">
        <ele>34.8</ele>
        <time>2021-03-27T10:46:49Z</time>
      </trkpt>
      <trkpt lat="46.21427" lon="-0.46756">
        <ele>34.8</ele>
        <time>2021-03-27T10:46:50Z</time>
      </trkpt>
      <trkpt lat="46.21422" lon="-0.46767">
        <ele>34.8</ele>
        <time>2021-03-27T10:46:53Z</time>
      </trkpt>
      <trkpt lat="46.21423" lon="-0.46773">
        <ele>34.8</ele>
        <time>2021-03-27T10:46:54Z</time>
      </trkpt>
      <trkpt lat="46.21425" lon="-0.4678">
        <ele>34.8</ele>
        <time>2021-03-27T10:46:55Z</time>
      </trkpt>
      <trkpt lat="46.21434" lon="-0.46797">
        <ele>34.6</ele>
        <time>2021-03-27T10:46:58Z</time>
      </trkpt>
      <trkpt lat="46.21438" lon="-0.46803">
        <ele>34.4</ele>
        <time>2021-03-27T10:46:59Z</time>
      </trkpt>
      <trkpt lat="46.21458" lon="-0.46839">
        <ele>34.4</ele>
        <time>2021-03-27T10:47:04Z</time>
      </trkpt>
      <trkpt lat="46.21466" lon="-0.46853">
        <ele>34.2</ele>
        <time>2021-03-27T10:47:06Z</time>
      </trkpt>
      <trkpt lat="46.21469" lon="-0.46859">
        <ele>34.4</ele>
        <time>2021-03-27T10:47:07Z</time>
      </trkpt>
      <trkpt lat="46.21472" lon="-0.46866">
        <ele>34.2</ele>
        <time>2021-03-27T10:47:08Z</time>
      </trkpt>
      <trkpt lat="46.21475" lon="-0.46873">
        <ele>34.2</ele>
        <time>2021-03-27T10:47:09Z</time>
      </trkpt>
      <trkpt lat="46.21481" lon="-0.46887">
        <ele>34.2</ele>
        <time>2021-03-27T10:47:11Z</time>
      </trkpt>
      <trkpt lat="46.21483" lon="-0.46894">
        <ele>34</ele>
        <time>2021-03-27T10:47:12Z</time>
      </trkpt>
      <trkpt lat="46.21486" lon="-0.46901">
        <ele>34</ele>
        <time>2021-03-27T10:47:13Z</time>
      </trkpt>
      <trkpt lat="46.21489" lon="-0.46907">
        <ele>34.2</ele>
        <time>2021-03-27T10:47:14Z</time>
      </trkpt>
      <trkpt lat="46.21491" lon="-0.46914">
        <ele>34.2</ele>
        <time>2021-03-27T10:47:15Z</time>
      </trkpt>
      <trkpt lat="46.21494" lon="-0.46921">
        <ele>34.4</ele>
        <time>2021-03-27T10:47:16Z</time>
      </trkpt>
      <trkpt lat="46.21496" lon="-0.46927">
        <ele>34.4</ele>
        <time>2021-03-27T10:47:17Z</time>
      </trkpt>
      <trkpt lat="46.21499" lon="-0.46934">
        <ele>34.4</ele>
        <time>2021-03-27T10:47:18Z</time>
      </trkpt>
      <trkpt lat="46.21501" lon="-0.4694">
        <ele>34.2</ele>
        <time>2021-03-27T10:47:19Z</time>
      </trkpt>
      <trkpt lat="46.21504" lon="-0.46946">
        <ele>34</ele>
        <time>2021-03-27T10:47:20Z</time>
      </trkpt>
      <trkpt lat="46.21507" lon="-0.46951">
        <ele>34</ele>
        <time>2021-03-27T10:47:21Z</time>
      </trkpt>
      <trkpt lat="46.21509" lon="-0.46957">
        <ele>34</ele>
        <time>2021-03-27T10:47:22Z</time>
      </trkpt>
      <trkpt lat="46.21512" lon="-0.46963">
        <ele>33.8</ele>
        <time>2021-03-27T10:47:23Z</time>
      </trkpt>
      <trkpt lat="46.21514" lon="-0.46969">
        <ele>33.8</ele>
        <time>2021-03-27T10:47:24Z</time>
      </trkpt>
      <trkpt lat="46.21516" lon="-0.46976">
        <ele>33.8</ele>
        <time>2021-03-27T10:47:25Z</time>
      </trkpt>
      <trkpt lat="46.21519" lon="-0.46982">
        <ele>33.8</ele>
        <time>2021-03-27T10:47:26Z</time>
      </trkpt>
      <trkpt lat="46.21524" lon="-0.46995">
        <ele>33.6</ele>
        <time>2021-03-27T10:47:28Z</time>
      </trkpt>
      <trkpt lat="46.21537" lon="-0.47027">
        <ele>33.2</ele>
        <time>2021-03-27T10:47:33Z</time>
      </trkpt>
      <trkpt lat="46.21539" lon="-0.47035">
        <ele>33.2</ele>
        <time>2021-03-27T10:47:34Z</time>
      </trkpt>
      <trkpt lat="46.2156" lon="-0.47092">
        <ele>32.8</ele>
        <time>2021-03-27T10:47:42Z</time>
      </trkpt>
      <trkpt lat="46.21573" lon="-0.47124">
        <ele>32.6</ele>
        <time>2021-03-27T10:47:46Z</time>
      </trkpt>
      <trkpt lat="46.21579" lon="-0.4714">
        <ele>32.6</ele>
        <time>2021-03-27T10:47:48Z</time>
      </trkpt>
      <trkpt lat="46.21582" lon="-0.47149">
        <ele>32.4</ele>
        <time>2021-03-27T10:47:49Z</time>
      </trkpt>
      <trkpt lat="46.21602" lon="-0.47198">
        <ele>32</ele>
        <time>2021-03-27T10:47:55Z</time>
      </trkpt>
      <trkpt lat="46.21612" lon="-0.47222">
        <ele>31.4</ele>
        <time>2021-03-27T10:47:58Z</time>
      </trkpt>
      <trkpt lat="46.21625" lon="-0.47254">
        <ele>31.2</ele>
        <time>2021-03-27T10:48:02Z</time>
      </trkpt>
      <trkpt lat="46.21655" lon="-0.47325">
        <ele>31</ele>
        <time>2021-03-27T10:48:11Z</time>
      </trkpt>
      <trkpt lat="46.21658" lon="-0.47332">
        <ele>30.8</ele>
        <time>2021-03-27T10:48:12Z</time>
      </trkpt>
      <trkpt lat="46.21661" lon="-0.47338">
        <ele>30.8</ele>
        <time>2021-03-27T10:48:13Z</time>
      </trkpt>
      <trkpt lat="46.21663" lon="-0.47343">
        <ele>30.6</ele>
        <time>2021-03-27T10:48:14Z</time>
      </trkpt>
      <trkpt lat="46.21666" lon="-0.47348">
        <ele>30.8</ele>
        <time>2021-03-27T10:48:15Z</time>
      </trkpt>
      <trkpt lat="46.21668" lon="-0.47352">
        <ele>30.8</ele>
        <time>2021-03-27T10:48:16Z</time>
      </trkpt>
      <trkpt lat="46.21669" lon="-0.47356">
        <ele>30.8</ele>
        <time>2021-03-27T10:48:17Z</time>
      </trkpt>
      <trkpt lat="46.21671" lon="-0.47361">
        <ele>30.6</ele>
        <time>2021-03-27T10:48:18Z</time>
      </trkpt>
      <trkpt lat="46.21672" lon="-0.47366">
        <ele>30.6</ele>
        <time>2021-03-27T10:48:19Z</time>
      </trkpt>
      <trkpt lat="46.21673" lon="-0.47368">
        <ele>30.8</ele>
        <time>2021-03-27T10:48:20Z</time>
      </trkpt>
      <trkpt lat="46.21674" lon="-0.47369">
        <ele>30.8</ele>
        <time>2021-03-27T10:48:21Z</time>
      </trkpt>
      <trkpt lat="46.21674" lon="-0.47369">
        <ele>30.8</ele>
        <time>2021-03-27T10:48:22Z</time>
      </trkpt>
      <trkpt lat="46.21674" lon="-0.47369">
        <ele>30.8</ele>
        <time>2021-03-27T10:48:23Z</time>
      </trkpt>
      <trkpt lat="46.21675" lon="-0.47362">
        <ele>32.2</ele>
        <time>2021-03-27T10:48:33Z</time>
      </trkpt>
      <trkpt lat="46.21677" lon="-0.47357">
        <ele>32.2</ele>
        <time>2021-03-27T10:48:35Z</time>
      </trkpt>
      <trkpt lat="46.2169" lon="-0.47358">
        <ele>32.2</ele>
        <time>2021-03-27T10:48:40Z</time>
      </trkpt>
      <trkpt lat="46.21699" lon="-0.47358">
        <ele>32.2</ele>
        <time>2021-03-27T10:48:43Z</time>
      </trkpt>
      <trkpt lat="46.21702" lon="-0.47357">
        <ele>32</ele>
        <time>2021-03-27T10:48:44Z</time>
      </trkpt>
      <trkpt lat="46.21711" lon="-0.47357">
        <ele>32</ele>
        <time>2021-03-27T10:48:47Z</time>
      </trkpt>
      <trkpt lat="46.21732" lon="-0.47356">
        <ele>31.8</ele>
        <time>2021-03-27T10:48:52Z</time>
      </trkpt>
      <trkpt lat="46.21736" lon="-0.47355">
        <ele>31.8</ele>
        <time>2021-03-27T10:48:53Z</time>
      </trkpt>
      <trkpt lat="46.21766" lon="-0.47354">
        <ele>31.6</ele>
        <time>2021-03-27T10:49:00Z</time>
      </trkpt>
      <trkpt lat="46.21774" lon="-0.4735">
        <ele>31.6</ele>
        <time>2021-03-27T10:49:02Z</time>
      </trkpt>
      <trkpt lat="46.21777" lon="-0.47348">
        <ele>31.4</ele>
        <time>2021-03-27T10:49:03Z</time>
      </trkpt>
      <trkpt lat="46.2178" lon="-0.47346">
        <ele>31.4</ele>
        <time>2021-03-27T10:49:04Z</time>
      </trkpt>
      <trkpt lat="46.21783" lon="-0.47345">
        <ele>31.4</ele>
        <time>2021-03-27T10:49:05Z</time>
      </trkpt>
      <trkpt lat="46.21787" lon="-0.47344">
        <ele>31.4</ele>
        <time>2021-03-27T10:49:06Z</time>
      </trkpt>
      <trkpt lat="46.21789" lon="-0.47345">
        <ele>31.4</ele>
        <time>2021-03-27T10:49:07Z</time>
      </trkpt>
      <trkpt lat="46.21792" lon="-0.47346">
        <ele>31.6</ele>
        <time>2021-03-27T10:49:08Z</time>
      </trkpt>
      <trkpt lat="46.21795" lon="-0.47349">
        <ele>31.6</ele>
        <time>2021-03-27T10:49:09Z</time>
      </trkpt>
      <trkpt lat="46.21797" lon="-0.47353">
        <ele>31.6</ele>
        <time>2021-03-27T10:49:10Z</time>
      </trkpt>
      <trkpt lat="46.21801" lon="-0.47368">
        <ele>31.6</ele>
        <time>2021-03-27T10:49:13Z</time>
      </trkpt>
      <trkpt lat="46.21802" lon="-0.47374">
        <ele>31.6</ele>
        <time>2021-03-27T10:49:14Z</time>
      </trkpt>
      <trkpt lat="46.21806" lon="-0.47389">
        <ele>31.6</ele>
        <time>2021-03-27T10:49:17Z</time>
      </trkpt>
      <trkpt lat="46.21813" lon="-0.47412">
        <ele>30.4</ele>
        <time>2021-03-27T10:49:22Z</time>
      </trkpt>
      <trkpt lat="46.21816" lon="-0.47422">
        <ele>30.2</ele>
        <time>2021-03-27T10:49:24Z</time>
      </trkpt>
      <trkpt lat="46.21817" lon="-0.47426">
        <ele>30</ele>
        <time>2021-03-27T10:49:25Z</time>
      </trkpt>
      <trkpt lat="46.21818" lon="-0.47431">
        <ele>30.2</ele>
        <time>2021-03-27T10:49:26Z</time>
      </trkpt>
      <trkpt lat="46.21819" lon="-0.47436">
        <ele>30</ele>
        <time>2021-03-27T10:49:27Z</time>
      </trkpt>
      <trkpt lat="46.2182" lon="-0.47442">
        <ele>30</ele>
        <time>2021-03-27T10:49:28Z</time>
      </trkpt>
      <trkpt lat="46.21823" lon="-0.47453">
        <ele>29.8</ele>
        <time>2021-03-27T10:49:30Z</time>
      </trkpt>
      <trkpt lat="46.21832" lon="-0.47485">
        <ele>30</ele>
        <time>2021-03-27T10:49:36Z</time>
      </trkpt>
      <trkpt lat="46.21834" lon="-0.4749">
        <ele>30</ele>
        <time>2021-03-27T10:49:37Z</time>
      </trkpt>
      <trkpt lat="46.21839" lon="-0.47499">
        <ele>30</ele>
        <time>2021-03-27T10:49:39Z</time>
      </trkpt>
      <trkpt lat="46.21843" lon="-0.475">
        <ele>30</ele>
        <time>2021-03-27T10:49:40Z</time>
      </trkpt>
      <trkpt lat="46.21847" lon="-0.47501">
        <ele>30</ele>
        <time>2021-03-27T10:49:41Z</time>
      </trkpt>
      <trkpt lat="46.2185" lon="-0.475">
        <ele>30</ele>
        <time>2021-03-27T10:49:42Z</time>
      </trkpt>
      <trkpt lat="46.21854" lon="-0.47499">
        <ele>30</ele>
        <time>2021-03-27T10:49:43Z</time>
      </trkpt>
      <trkpt lat="46.21857" lon="-0.47498">
        <ele>30</ele>
        <time>2021-03-27T10:49:44Z</time>
      </trkpt>
      <trkpt lat="46.2186" lon="-0.47497">
        <ele>30</ele>
        <time>2021-03-27T10:49:45Z</time>
      </trkpt>
      <trkpt lat="46.21863" lon="-0.47496">
        <ele>30</ele>
        <time>2021-03-27T10:49:46Z</time>
      </trkpt>
      <trkpt lat="46.21887" lon="-0.47488">
        <ele>29.8</ele>
        <time>2021-03-27T10:49:51Z</time>
      </trkpt>
      <trkpt lat="46.21902" lon="-0.47484">
        <ele>29.8</ele>
        <time>2021-03-27T10:49:54Z</time>
      </trkpt>
      <trkpt lat="46.21908" lon="-0.47482">
        <ele>29.8</ele>
        <time>2021-03-27T10:49:55Z</time>
      </trkpt>
      <trkpt lat="46.21918" lon="-0.47479">
        <ele>29.8</ele>
        <time>2021-03-27T10:49:57Z</time>
      </trkpt>
      <trkpt lat="46.21942" lon="-0.47474">
        <ele>29.8</ele>
        <time>2021-03-27T10:50:02Z</time>
      </trkpt>
      <trkpt lat="46.21947" lon="-0.47472">
        <ele>29.8</ele>
        <time>2021-03-27T10:50:03Z</time>
      </trkpt>
      <trkpt lat="46.21951" lon="-0.47471">
        <ele>29.8</ele>
        <time>2021-03-27T10:50:04Z</time>
      </trkpt>
      <trkpt lat="46.21955" lon="-0.47471">
        <ele>29.8</ele>
        <time>2021-03-27T10:50:05Z</time>
      </trkpt>
      <trkpt lat="46.21957" lon="-0.47472">
        <ele>29.8</ele>
        <time>2021-03-27T10:50:06Z</time>
      </trkpt>
      <trkpt lat="46.2196" lon="-0.47474">
        <ele>29.8</ele>
        <time>2021-03-27T10:50:07Z</time>
      </trkpt>
      <trkpt lat="46.21962" lon="-0.47478">
        <ele>29.8</ele>
        <time>2021-03-27T10:50:08Z</time>
      </trkpt>
      <trkpt lat="46.21964" lon="-0.47484">
        <ele>29.8</ele>
        <time>2021-03-27T10:50:09Z</time>
      </trkpt>
      <trkpt lat="46.21965" lon="-0.4749">
        <ele>30</ele>
        <time>2021-03-27T10:50:10Z</time>
      </trkpt>
      <trkpt lat="46.21967" lon="-0.47502">
        <ele>30.2</ele>
        <time>2021-03-27T10:50:12Z</time>
      </trkpt>
      <trkpt lat="46.21968" lon="-0.47508">
        <ele>30.4</ele>
        <time>2021-03-27T10:50:13Z</time>
      </trkpt>
      <trkpt lat="46.21973" lon="-0.4754">
        <ele>30.6</ele>
        <time>2021-03-27T10:50:18Z</time>
      </trkpt>
      <trkpt lat="46.21974" lon="-0.47554">
        <ele>30.6</ele>
        <time>2021-03-27T10:50:20Z</time>
      </trkpt>
      <trkpt lat="46.21975" lon="-0.47581">
        <ele>30.6</ele>
        <time>2021-03-27T10:50:24Z</time>
      </trkpt>
      <trkpt lat="46.21973" lon="-0.476">
        <ele>30.6</ele>
        <time>2021-03-27T10:50:27Z</time>
      </trkpt>
      <trkpt lat="46.21973" lon="-0.47606">
        <ele>30.6</ele>
        <time>2021-03-27T10:50:28Z</time>
      </trkpt>
      <trkpt lat="46.21972" lon="-0.47611">
        <ele>30.6</ele>
        <time>2021-03-27T10:50:29Z</time>
      </trkpt>
      <trkpt lat="46.21972" lon="-0.47617">
        <ele>30.4</ele>
        <time>2021-03-27T10:50:30Z</time>
      </trkpt>
      <trkpt lat="46.21971" lon="-0.47624">
        <ele>30.4</ele>
        <time>2021-03-27T10:50:31Z</time>
      </trkpt>
      <trkpt lat="46.2197" lon="-0.47658">
        <ele>30.4</ele>
        <time>2021-03-27T10:50:36Z</time>
      </trkpt>
      <trkpt lat="46.2197" lon="-0.47678">
        <ele>30.4</ele>
        <time>2021-03-27T10:50:39Z</time>
      </trkpt>
      <trkpt lat="46.21973" lon="-0.47707">
        <ele>30.4</ele>
        <time>2021-03-27T10:50:44Z</time>
      </trkpt>
      <trkpt lat="46.21974" lon="-0.47714">
        <ele>30.4</ele>
        <time>2021-03-27T10:50:45Z</time>
      </trkpt>
      <trkpt lat="46.21975" lon="-0.47722">
        <ele>30.4</ele>
        <time>2021-03-27T10:50:46Z</time>
      </trkpt>
      <trkpt lat="46.21983" lon="-0.47758">
        <ele>30.4</ele>
        <time>2021-03-27T10:50:51Z</time>
      </trkpt>
      <trkpt lat="46.21985" lon="-0.47765">
        <ele>30.4</ele>
        <time>2021-03-27T10:50:52Z</time>
      </trkpt>
      <trkpt lat="46.21988" lon="-0.47772">
        <ele>30.4</ele>
        <time>2021-03-27T10:50:53Z</time>
      </trkpt>
      <trkpt lat="46.21998" lon="-0.47799">
        <ele>30</ele>
        <time>2021-03-27T10:50:57Z</time>
      </trkpt>
      <trkpt lat="46.22001" lon="-0.47804">
        <ele>30.2</ele>
        <time>2021-03-27T10:50:58Z</time>
      </trkpt>
      <trkpt lat="46.22003" lon="-0.47809">
        <ele>30</ele>
        <time>2021-03-27T10:50:59Z</time>
      </trkpt>
      <trkpt lat="46.22005" lon="-0.47814">
        <ele>30</ele>
        <time>2021-03-27T10:51:00Z</time>
      </trkpt>
      <trkpt lat="46.22007" lon="-0.47818">
        <ele>30</ele>
        <time>2021-03-27T10:51:01Z</time>
      </trkpt>
      <trkpt lat="46.22009" lon="-0.47821">
        <ele>30</ele>
        <time>2021-03-27T10:51:02Z</time>
      </trkpt>
      <trkpt lat="46.2201" lon="-0.47825">
        <ele>30</ele>
        <time>2021-03-27T10:51:03Z</time>
      </trkpt>
      <trkpt lat="46.2201" lon="-0.47827">
        <ele>30</ele>
        <time>2021-03-27T10:51:04Z</time>
      </trkpt>
      <trkpt lat="46.2201" lon="-0.47829">
        <ele>29.8</ele>
        <time>2021-03-27T10:51:05Z</time>
      </trkpt>
      <trkpt lat="46.22012" lon="-0.4783">
        <ele>29.8</ele>
        <time>2021-03-27T10:51:06Z</time>
      </trkpt>
      <trkpt lat="46.22013" lon="-0.47831">
        <ele>30.2</ele>
        <time>2021-03-27T10:51:07Z</time>
      </trkpt>
      <trkpt lat="46.22015" lon="-0.47833">
        <ele>30.2</ele>
        <time>2021-03-27T10:51:08Z</time>
      </trkpt>
      <trkpt lat="46.22015" lon="-0.47835">
        <ele>30.2</ele>
        <time>2021-03-27T10:51:09Z</time>
      </trkpt>
      <trkpt lat="46.22015" lon="-0.47837">
        <ele>30.2</ele>
        <time>2021-03-27T10:51:10Z</time>
      </trkpt>
      <trkpt lat="46.22016" lon="-0.47838">
        <ele>30.2</ele>
        <time>2021-03-27T10:51:11Z</time>
      </trkpt>
      <trkpt lat="46.22017" lon="-0.4784">
        <ele>30.2</ele>
        <time>2021-03-27T10:51:12Z</time>
      </trkpt>
      <trkpt lat="46.22018" lon="-0.47842">
        <ele>30.2</ele>
        <time>2021-03-27T10:51:13Z</time>
      </trkpt>
      <trkpt lat="46.2202" lon="-0.47843">
        <ele>30.2</ele>
        <time>2021-03-27T10:51:14Z</time>
      </trkpt>
      <trkpt lat="46.22022" lon="-0.47844">
        <ele>30.2</ele>
        <time>2021-03-27T10:51:15Z</time>
      </trkpt>
      <trkpt lat="46.22023" lon="-0.47845">
        <ele>30.2</ele>
        <time>2021-03-27T10:51:16Z</time>
      </trkpt>
      <trkpt lat="46.22025" lon="-0.47846">
        <ele>30.2</ele>
        <time>2021-03-27T10:51:17Z</time>
      </trkpt>
      <trkpt lat="46.22035" lon="-0.47856">
        <ele>30.2</ele>
        <time>2021-03-27T10:51:21Z</time>
      </trkpt>
      <trkpt lat="46.22046" lon="-0.47867">
        <ele>30.2</ele>
        <time>2021-03-27T10:51:25Z</time>
      </trkpt>
      <trkpt lat="46.22049" lon="-0.47869">
        <ele>30.2</ele>
        <time>2021-03-27T10:51:26Z</time>
      </trkpt>
      <trkpt lat="46.22052" lon="-0.47872">
        <ele>30.2</ele>
        <time>2021-03-27T10:51:27Z</time>
      </trkpt>
      <trkpt lat="46.22072" lon="-0.4789">
        <ele>30.2</ele>
        <time>2021-03-27T10:51:33Z</time>
      </trkpt>
      <trkpt lat="46.22075" lon="-0.47893">
        <ele>30.2</ele>
        <time>2021-03-27T10:51:34Z</time>
      </trkpt>
      <trkpt lat="46.22098" lon="-0.47913">
        <ele>30</ele>
        <time>2021-03-27T10:51:41Z</time>
      </trkpt>
      <trkpt lat="46.22101" lon="-0.47916">
        <ele>30</ele>
        <time>2021-03-27T10:51:42Z</time>
      </trkpt>
      <trkpt lat="46.22114" lon="-0.47924">
        <ele>30</ele>
        <time>2021-03-27T10:51:46Z</time>
      </trkpt>
      <trkpt lat="46.22117" lon="-0.47927">
        <ele>29.8</ele>
        <time>2021-03-27T10:51:47Z</time>
      </trkpt>
      <trkpt lat="46.22119" lon="-0.4793">
        <ele>29.8</ele>
        <time>2021-03-27T10:51:48Z</time>
      </trkpt>
      <trkpt lat="46.22123" lon="-0.47933">
        <ele>29.8</ele>
        <time>2021-03-27T10:51:49Z</time>
      </trkpt>
      <trkpt lat="46.22126" lon="-0.47936">
        <ele>29.8</ele>
        <time>2021-03-27T10:51:50Z</time>
      </trkpt>
      <trkpt lat="46.22133" lon="-0.47945">
        <ele>29.6</ele>
        <time>2021-03-27T10:51:52Z</time>
      </trkpt>
      <trkpt lat="46.22139" lon="-0.47961">
        <ele>29.6</ele>
        <time>2021-03-27T10:51:55Z</time>
      </trkpt>
      <trkpt lat="46.22141" lon="-0.47967">
        <ele>29.6</ele>
        <time>2021-03-27T10:51:56Z</time>
      </trkpt>
      <trkpt lat="46.22143" lon="-0.47972">
        <ele>29.6</ele>
        <time>2021-03-27T10:51:57Z</time>
      </trkpt>
      <trkpt lat="46.22145" lon="-0.47978">
        <ele>29.6</ele>
        <time>2021-03-27T10:51:58Z</time>
      </trkpt>
      <trkpt lat="46.22153" lon="-0.48007">
        <ele>29.4</ele>
        <time>2021-03-27T10:52:03Z</time>
      </trkpt>
      <trkpt lat="46.22155" lon="-0.48013">
        <ele>29.4</ele>
        <time>2021-03-27T10:52:04Z</time>
      </trkpt>
      <trkpt lat="46.22159" lon="-0.48032">
        <ele>29</ele>
        <time>2021-03-27T10:52:07Z</time>
      </trkpt>
      <trkpt lat="46.22165" lon="-0.48047">
        <ele>28.8</ele>
        <time>2021-03-27T10:52:10Z</time>
      </trkpt>
      <trkpt lat="46.22166" lon="-0.48054">
        <ele>28.8</ele>
        <time>2021-03-27T10:52:11Z</time>
      </trkpt>
      <trkpt lat="46.22166" lon="-0.4806">
        <ele>28.6</ele>
        <time>2021-03-27T10:52:12Z</time>
      </trkpt>
      <trkpt lat="46.22167" lon="-0.48066">
        <ele>28.6</ele>
        <time>2021-03-27T10:52:13Z</time>
      </trkpt>
      <trkpt lat="46.22167" lon="-0.4808">
        <ele>28.6</ele>
        <time>2021-03-27T10:52:15Z</time>
      </trkpt>
      <trkpt lat="46.22167" lon="-0.48086">
        <ele>28.6</ele>
        <time>2021-03-27T10:52:16Z</time>
      </trkpt>
      <trkpt lat="46.22167" lon="-0.48092">
        <ele>28.6</ele>
        <time>2021-03-27T10:52:17Z</time>
      </trkpt>
      <trkpt lat="46.22166" lon="-0.48097">
        <ele>28.6</ele>
        <time>2021-03-27T10:52:18Z</time>
      </trkpt>
      <trkpt lat="46.22167" lon="-0.48103">
        <ele>28.6</ele>
        <time>2021-03-27T10:52:19Z</time>
      </trkpt>
      <trkpt lat="46.22166" lon="-0.48127">
        <ele>28.4</ele>
        <time>2021-03-27T10:52:23Z</time>
      </trkpt>
      <trkpt lat="46.22165" lon="-0.48138">
        <ele>28.4</ele>
        <time>2021-03-27T10:52:25Z</time>
      </trkpt>
      <trkpt lat="46.22165" lon="-0.48143">
        <ele>28.4</ele>
        <time>2021-03-27T10:52:26Z</time>
      </trkpt>
      <trkpt lat="46.22165" lon="-0.48148">
        <ele>28.4</ele>
        <time>2021-03-27T10:52:27Z</time>
      </trkpt>
      <trkpt lat="46.22164" lon="-0.48153">
        <ele>28.4</ele>
        <time>2021-03-27T10:52:28Z</time>
      </trkpt>
      <trkpt lat="46.22164" lon="-0.48158">
        <ele>28.4</ele>
        <time>2021-03-27T10:52:29Z</time>
      </trkpt>
      <trkpt lat="46.22163" lon="-0.48168">
        <ele>28.4</ele>
        <time>2021-03-27T10:52:31Z</time>
      </trkpt>
      <trkpt lat="46.22163" lon="-0.48172">
        <ele>28.4</ele>
        <time>2021-03-27T10:52:32Z</time>
      </trkpt>
      <trkpt lat="46.22162" lon="-0.48176">
        <ele>28.4</ele>
        <time>2021-03-27T10:52:33Z</time>
      </trkpt>
      <trkpt lat="46.22161" lon="-0.48179">
        <ele>28.6</ele>
        <time>2021-03-27T10:52:34Z</time>
      </trkpt>
      <trkpt lat="46.22162" lon="-0.48182">
        <ele>28.6</ele>
        <time>2021-03-27T10:52:35Z</time>
      </trkpt>
      <trkpt lat="46.22163" lon="-0.48185">
        <ele>28.6</ele>
        <time>2021-03-27T10:52:36Z</time>
      </trkpt>
      <trkpt lat="46.22164" lon="-0.48188">
        <ele>28.6</ele>
        <time>2021-03-27T10:52:37Z</time>
      </trkpt>
      <trkpt lat="46.22167" lon="-0.48192">
        <ele>28.6</ele>
        <time>2021-03-27T10:52:39Z</time>
      </trkpt>
      <trkpt lat="46.22168" lon="-0.48196">
        <ele>28.6</ele>
        <time>2021-03-27T10:52:40Z</time>
      </trkpt>
      <trkpt lat="46.22169" lon="-0.48199">
        <ele>28.6</ele>
        <time>2021-03-27T10:52:41Z</time>
      </trkpt>
      <trkpt lat="46.2217" lon="-0.48203">
        <ele>28.6</ele>
        <time>2021-03-27T10:52:42Z</time>
      </trkpt>
      <trkpt lat="46.22179" lon="-0.48229">
        <ele>28.6</ele>
        <time>2021-03-27T10:52:48Z</time>
      </trkpt>
      <trkpt lat="46.22184" lon="-0.4825">
        <ele>28.6</ele>
        <time>2021-03-27T10:52:52Z</time>
      </trkpt>
      <trkpt lat="46.22184" lon="-0.48262">
        <ele>28.6</ele>
        <time>2021-03-27T10:52:54Z</time>
      </trkpt>
      <trkpt lat="46.22183" lon="-0.48267">
        <ele>28.6</ele>
        <time>2021-03-27T10:52:55Z</time>
      </trkpt>
      <trkpt lat="46.2218" lon="-0.48302">
        <ele>28.8</ele>
        <time>2021-03-27T10:53:02Z</time>
      </trkpt>
      <trkpt lat="46.22179" lon="-0.48305">
        <ele>28.8</ele>
        <time>2021-03-27T10:53:03Z</time>
      </trkpt>
      <trkpt lat="46.22178" lon="-0.48308">
        <ele>29</ele>
        <time>2021-03-27T10:53:04Z</time>
      </trkpt>
      <trkpt lat="46.22176" lon="-0.4831">
        <ele>29</ele>
        <time>2021-03-27T10:53:05Z</time>
      </trkpt>
      <trkpt lat="46.22174" lon="-0.48311">
        <ele>29</ele>
        <time>2021-03-27T10:53:06Z</time>
      </trkpt>
      <trkpt lat="46.22173" lon="-0.48312">
        <ele>29</ele>
        <time>2021-03-27T10:53:07Z</time>
      </trkpt>
      <trkpt lat="46.22172" lon="-0.48312">
        <ele>29.2</ele>
        <time>2021-03-27T10:53:08Z</time>
      </trkpt>
      <trkpt lat="46.22172" lon="-0.48312">
        <ele>29.2</ele>
        <time>2021-03-27T10:53:09Z</time>
      </trkpt>
      <trkpt lat="46.22172" lon="-0.48312">
        <ele>29.2</ele>
        <time>2021-03-27T10:53:10Z</time>
      </trkpt>
      <trkpt lat="46.22166" lon="-0.48315">
        <ele>29.4</ele>
        <time>2021-03-27T10:53:19Z</time>
      </trkpt>
      <trkpt lat="46.2216" lon="-0.48315">
        <ele>29.4</ele>
        <time>2021-03-27T10:53:21Z</time>
      </trkpt>
      <trkpt lat="46.22157" lon="-0.48315">
        <ele>29.4</ele>
        <time>2021-03-27T10:53:22Z</time>
      </trkpt>
      <trkpt lat="46.22148" lon="-0.48315">
        <ele>29.4</ele>
        <time>2021-03-27T10:53:25Z</time>
      </trkpt>
      <trkpt lat="46.22144" lon="-0.48316">
        <ele>29.4</ele>
        <time>2021-03-27T10:53:27Z</time>
      </trkpt>
      <trkpt lat="46.22142" lon="-0.48319">
        <ele>29.2</ele>
        <time>2021-03-27T10:53:28Z</time>
      </trkpt>
      <trkpt lat="46.22141" lon="-0.48322">
        <ele>29.2</ele>
        <time>2021-03-27T10:53:29Z</time>
      </trkpt>
      <trkpt lat="46.22141" lon="-0.48327">
        <ele>29</ele>
        <time>2021-03-27T10:53:30Z</time>
      </trkpt>
      <trkpt lat="46.22142" lon="-0.48331">
        <ele>29</ele>
        <time>2021-03-27T10:53:31Z</time>
      </trkpt>
      <trkpt lat="46.22146" lon="-0.48342">
        <ele>29</ele>
        <time>2021-03-27T10:53:34Z</time>
      </trkpt>
      <trkpt lat="46.22148" lon="-0.48346">
        <ele>29</ele>
        <time>2021-03-27T10:53:35Z</time>
      </trkpt>
      <trkpt lat="46.2215" lon="-0.48351">
        <ele>28.8</ele>
        <time>2021-03-27T10:53:36Z</time>
      </trkpt>
      <trkpt lat="46.2216" lon="-0.48377">
        <ele>28.8</ele>
        <time>2021-03-27T10:53:41Z</time>
      </trkpt>
      <trkpt lat="46.22161" lon="-0.48383">
        <ele>28.6</ele>
        <time>2021-03-27T10:53:42Z</time>
      </trkpt>
      <trkpt lat="46.22165" lon="-0.48426">
        <ele>28.6</ele>
        <time>2021-03-27T10:53:49Z</time>
      </trkpt>
      <trkpt lat="46.22165" lon="-0.48436">
        <ele>28.6</ele>
        <time>2021-03-27T10:53:51Z</time>
      </trkpt>
      <trkpt lat="46.22165" lon="-0.4844">
        <ele>28.6</ele>
        <time>2021-03-27T10:53:52Z</time>
      </trkpt>
      <trkpt lat="46.22165" lon="-0.48445">
        <ele>28.6</ele>
        <time>2021-03-27T10:53:53Z</time>
      </trkpt>
      <trkpt lat="46.22165" lon="-0.48448">
        <ele>28.6</ele>
        <time>2021-03-27T10:53:54Z</time>
      </trkpt>
      <trkpt lat="46.22165" lon="-0.48452">
        <ele>28.6</ele>
        <time>2021-03-27T10:53:55Z</time>
      </trkpt>
      <trkpt lat="46.22164" lon="-0.48454">
        <ele>28.6</ele>
        <time>2021-03-27T10:53:56Z</time>
      </trkpt>
      <trkpt lat="46.22162" lon="-0.48457">
        <ele>28.6</ele>
        <time>2021-03-27T10:53:57Z</time>
      </trkpt>
      <trkpt lat="46.22159" lon="-0.4846">
        <ele>28.6</ele>
        <time>2021-03-27T10:53:58Z</time>
      </trkpt>
      <trkpt lat="46.22157" lon="-0.48463">
        <ele>28.8</ele>
        <time>2021-03-27T10:53:59Z</time>
      </trkpt>
      <trkpt lat="46.22154" lon="-0.48465">
        <ele>28.8</ele>
        <time>2021-03-27T10:54:00Z</time>
      </trkpt>
      <trkpt lat="46.22151" lon="-0.48467">
        <ele>28.8</ele>
        <time>2021-03-27T10:54:01Z</time>
      </trkpt>
      <trkpt lat="46.22149" lon="-0.48469">
        <ele>29</ele>
        <time>2021-03-27T10:54:02Z</time>
      </trkpt>
      <trkpt lat="46.22136" lon="-0.48479">
        <ele>29</ele>
        <time>2021-03-27T10:54:06Z</time>
      </trkpt>
      <trkpt lat="46.22129" lon="-0.48485">
        <ele>29</ele>
        <time>2021-03-27T10:54:08Z</time>
      </trkpt>
      <trkpt lat="46.22122" lon="-0.48491">
        <ele>29</ele>
        <time>2021-03-27T10:54:10Z</time>
      </trkpt>
      <trkpt lat="46.22119" lon="-0.48494">
        <ele>29</ele>
        <time>2021-03-27T10:54:11Z</time>
      </trkpt>
      <trkpt lat="46.22108" lon="-0.48503">
        <ele>29</ele>
        <time>2021-03-27T10:54:14Z</time>
      </trkpt>
      <trkpt lat="46.22096" lon="-0.48511">
        <ele>29</ele>
        <time>2021-03-27T10:54:17Z</time>
      </trkpt>
      <trkpt lat="46.22092" lon="-0.48512">
        <ele>29</ele>
        <time>2021-03-27T10:54:18Z</time>
      </trkpt>
      <trkpt lat="46.22088" lon="-0.48514">
        <ele>29</ele>
        <time>2021-03-27T10:54:19Z</time>
      </trkpt>
      <trkpt lat="46.22085" lon="-0.48516">
        <ele>29</ele>
        <time>2021-03-27T10:54:20Z</time>
      </trkpt>
      <trkpt lat="46.22082" lon="-0.48518">
        <ele>29</ele>
        <time>2021-03-27T10:54:21Z</time>
      </trkpt>
      <trkpt lat="46.2208" lon="-0.48519">
        <ele>29</ele>
        <time>2021-03-27T10:54:22Z</time>
      </trkpt>
      <trkpt lat="46.22078" lon="-0.48521">
        <ele>29</ele>
        <time>2021-03-27T10:54:23Z</time>
      </trkpt>
      <trkpt lat="46.22075" lon="-0.48524">
        <ele>29</ele>
        <time>2021-03-27T10:54:24Z</time>
      </trkpt>
      <trkpt lat="46.22058" lon="-0.48533">
        <ele>29.4</ele>
        <time>2021-03-27T10:54:29Z</time>
      </trkpt>
      <trkpt lat="46.22056" lon="-0.48535">
        <ele>29.6</ele>
        <time>2021-03-27T10:54:30Z</time>
      </trkpt>
      <trkpt lat="46.22053" lon="-0.48536">
        <ele>29.8</ele>
        <time>2021-03-27T10:54:31Z</time>
      </trkpt>
      <trkpt lat="46.22051" lon="-0.48538">
        <ele>30</ele>
        <time>2021-03-27T10:54:32Z</time>
      </trkpt>
      <trkpt lat="46.22048" lon="-0.48539">
        <ele>30</ele>
        <time>2021-03-27T10:54:33Z</time>
      </trkpt>
      <trkpt lat="46.22046" lon="-0.4854">
        <ele>30.2</ele>
        <time>2021-03-27T10:54:34Z</time>
      </trkpt>
      <trkpt lat="46.2204" lon="-0.48543">
        <ele>30.4</ele>
        <time>2021-03-27T10:54:36Z</time>
      </trkpt>
      <trkpt lat="46.22016" lon="-0.48557">
        <ele>30.6</ele>
        <time>2021-03-27T10:54:42Z</time>
      </trkpt>
      <trkpt lat="46.21984" lon="-0.48576">
        <ele>30.6</ele>
        <time>2021-03-27T10:54:49Z</time>
      </trkpt>
      <trkpt lat="46.2198" lon="-0.4858">
        <ele>30.8</ele>
        <time>2021-03-27T10:54:50Z</time>
      </trkpt>
      <trkpt lat="46.21954" lon="-0.48598">
        <ele>30.8</ele>
        <time>2021-03-27T10:54:56Z</time>
      </trkpt>
      <trkpt lat="46.21949" lon="-0.48601">
        <ele>30.8</ele>
        <time>2021-03-27T10:54:57Z</time>
      </trkpt>
      <trkpt lat="46.21944" lon="-0.48604">
        <ele>31</ele>
        <time>2021-03-27T10:54:58Z</time>
      </trkpt>
      <trkpt lat="46.21935" lon="-0.4861">
        <ele>31</ele>
        <time>2021-03-27T10:55:00Z</time>
      </trkpt>
      <trkpt lat="46.21925" lon="-0.48615">
        <ele>31.2</ele>
        <time>2021-03-27T10:55:02Z</time>
      </trkpt>
      <trkpt lat="46.21915" lon="-0.48622">
        <ele>31.6</ele>
        <time>2021-03-27T10:55:04Z</time>
      </trkpt>
      <trkpt lat="46.21903" lon="-0.4863">
        <ele>32</ele>
        <time>2021-03-27T10:55:07Z</time>
      </trkpt>
      <trkpt lat="46.21898" lon="-0.48633">
        <ele>32</ele>
        <time>2021-03-27T10:55:08Z</time>
      </trkpt>
      <trkpt lat="46.21876" lon="-0.48649">
        <ele>32.6</ele>
        <time>2021-03-27T10:55:13Z</time>
      </trkpt>
      <trkpt lat="46.21862" lon="-0.48657">
        <ele>32.8</ele>
        <time>2021-03-27T10:55:16Z</time>
      </trkpt>
      <trkpt lat="46.21859" lon="-0.48659">
        <ele>32.8</ele>
        <time>2021-03-27T10:55:17Z</time>
      </trkpt>
      <trkpt lat="46.21856" lon="-0.48662">
        <ele>33</ele>
        <time>2021-03-27T10:55:18Z</time>
      </trkpt>
      <trkpt lat="46.21854" lon="-0.48664">
        <ele>33</ele>
        <time>2021-03-27T10:55:19Z</time>
      </trkpt>
      <trkpt lat="46.21852" lon="-0.48666">
        <ele>33.2</ele>
        <time>2021-03-27T10:55:20Z</time>
      </trkpt>
      <trkpt lat="46.21849" lon="-0.48667">
        <ele>33.2</ele>
        <time>2021-03-27T10:55:21Z</time>
      </trkpt>
      <trkpt lat="46.21846" lon="-0.48669">
        <ele>33.2</ele>
        <time>2021-03-27T10:55:22Z</time>
      </trkpt>
      <trkpt lat="46.21838" lon="-0.48673">
        <ele>33.8</ele>
        <time>2021-03-27T10:55:25Z</time>
      </trkpt>
      <trkpt lat="46.21835" lon="-0.48674">
        <ele>34</ele>
        <time>2021-03-27T10:55:26Z</time>
      </trkpt>
      <trkpt lat="46.21833" lon="-0.48676">
        <ele>34.2</ele>
        <time>2021-03-27T10:55:27Z</time>
      </trkpt>
      <trkpt lat="46.21831" lon="-0.48677">
        <ele>34.2</ele>
        <time>2021-03-27T10:55:28Z</time>
      </trkpt>
      <trkpt lat="46.21829" lon="-0.48677">
        <ele>34.4</ele>
        <time>2021-03-27T10:55:29Z</time>
      </trkpt>
      <trkpt lat="46.21826" lon="-0.48679">
        <ele>34.4</ele>
        <time>2021-03-27T10:55:30Z</time>
      </trkpt>
      <trkpt lat="46.21823" lon="-0.4868">
        <ele>34.6</ele>
        <time>2021-03-27T10:55:31Z</time>
      </trkpt>
      <trkpt lat="46.2182" lon="-0.48682">
        <ele>34.6</ele>
        <time>2021-03-27T10:55:32Z</time>
      </trkpt>
      <trkpt lat="46.21817" lon="-0.48683">
        <ele>34.6</ele>
        <time>2021-03-27T10:55:33Z</time>
      </trkpt>
      <trkpt lat="46.21814" lon="-0.48685">
        <ele>34.6</ele>
        <time>2021-03-27T10:55:34Z</time>
      </trkpt>
      <trkpt lat="46.21811" lon="-0.48687">
        <ele>34.6</ele>
        <time>2021-03-27T10:55:35Z</time>
      </trkpt>
      <trkpt lat="46.21808" lon="-0.48689">
        <ele>34.6</ele>
        <time>2021-03-27T10:55:36Z</time>
      </trkpt>
      <trkpt lat="46.21805" lon="-0.48691">
        <ele>34.6</ele>
        <time>2021-03-27T10:55:37Z</time>
      </trkpt>
      <trkpt lat="46.21801" lon="-0.48693">
        <ele>34.6</ele>
        <time>2021-03-27T10:55:38Z</time>
      </trkpt>
      <trkpt lat="46.21793" lon="-0.48698">
        <ele>34.6</ele>
        <time>2021-03-27T10:55:40Z</time>
      </trkpt>
      <trkpt lat="46.21768" lon="-0.48714">
        <ele>34.4</ele>
        <time>2021-03-27T10:55:46Z</time>
      </trkpt>
      <trkpt lat="46.2176" lon="-0.48718">
        <ele>34.4</ele>
        <time>2021-03-27T10:55:48Z</time>
      </trkpt>
      <trkpt lat="46.2174" lon="-0.48729">
        <ele>34.4</ele>
        <time>2021-03-27T10:55:52Z</time>
      </trkpt>
      <trkpt lat="46.21701" lon="-0.48754">
        <ele>34.2</ele>
        <time>2021-03-27T10:56:00Z</time>
      </trkpt>
      <trkpt lat="46.21692" lon="-0.4876">
        <ele>34.2</ele>
        <time>2021-03-27T10:56:02Z</time>
      </trkpt>
      <trkpt lat="46.21687" lon="-0.48764">
        <ele>34.2</ele>
        <time>2021-03-27T10:56:03Z</time>
      </trkpt>
      <trkpt lat="46.21664" lon="-0.4878">
        <ele>33.8</ele>
        <time>2021-03-27T10:56:08Z</time>
      </trkpt>
      <trkpt lat="46.21659" lon="-0.48783">
        <ele>33.8</ele>
        <time>2021-03-27T10:56:09Z</time>
      </trkpt>
      <trkpt lat="46.21656" lon="-0.48786">
        <ele>33.8</ele>
        <time>2021-03-27T10:56:10Z</time>
      </trkpt>
      <trkpt lat="46.21652" lon="-0.48789">
        <ele>33.8</ele>
        <time>2021-03-27T10:56:11Z</time>
      </trkpt>
      <trkpt lat="46.21648" lon="-0.48793">
        <ele>33.8</ele>
        <time>2021-03-27T10:56:12Z</time>
      </trkpt>
      <trkpt lat="46.21627" lon="-0.48809">
        <ele>33.8</ele>
        <time>2021-03-27T10:56:17Z</time>
      </trkpt>
      <trkpt lat="46.21602" lon="-0.48827">
        <ele>33.8</ele>
        <time>2021-03-27T10:56:22Z</time>
      </trkpt>
      <trkpt lat="46.21592" lon="-0.48832">
        <ele>33.6</ele>
        <time>2021-03-27T10:56:24Z</time>
      </trkpt>
      <trkpt lat="46.21587" lon="-0.48834">
        <ele>33.6</ele>
        <time>2021-03-27T10:56:25Z</time>
      </trkpt>
      <trkpt lat="46.21583" lon="-0.48836">
        <ele>33.6</ele>
        <time>2021-03-27T10:56:26Z</time>
      </trkpt>
      <trkpt lat="46.21579" lon="-0.48839">
        <ele>33.6</ele>
        <time>2021-03-27T10:56:27Z</time>
      </trkpt>
      <trkpt lat="46.21574" lon="-0.48841">
        <ele>33.4</ele>
        <time>2021-03-27T10:56:28Z</time>
      </trkpt>
      <trkpt lat="46.21538" lon="-0.48856">
        <ele>33.2</ele>
        <time>2021-03-27T10:56:35Z</time>
      </trkpt>
      <trkpt lat="46.21498" lon="-0.48872">
        <ele>33.2</ele>
        <time>2021-03-27T10:56:43Z</time>
      </trkpt>
      <trkpt lat="46.21485" lon="-0.4888">
        <ele>33.4</ele>
        <time>2021-03-27T10:56:46Z</time>
      </trkpt>
      <trkpt lat="46.21481" lon="-0.48883">
        <ele>33.4</ele>
        <time>2021-03-27T10:56:47Z</time>
      </trkpt>
      <trkpt lat="46.21478" lon="-0.48887">
        <ele>33.6</ele>
        <time>2021-03-27T10:56:48Z</time>
      </trkpt>
      <trkpt lat="46.21474" lon="-0.4889">
        <ele>33.6</ele>
        <time>2021-03-27T10:56:49Z</time>
      </trkpt>
      <trkpt lat="46.2147" lon="-0.48894">
        <ele>33.6</ele>
        <time>2021-03-27T10:56:50Z</time>
      </trkpt>
      <trkpt lat="46.21467" lon="-0.48897">
        <ele>33.8</ele>
        <time>2021-03-27T10:56:51Z</time>
      </trkpt>
      <trkpt lat="46.21464" lon="-0.489">
        <ele>33.8</ele>
        <time>2021-03-27T10:56:52Z</time>
      </trkpt>
      <trkpt lat="46.21461" lon="-0.48903">
        <ele>34</ele>
        <time>2021-03-27T10:56:53Z</time>
      </trkpt>
      <trkpt lat="46.21458" lon="-0.48906">
        <ele>34</ele>
        <time>2021-03-27T10:56:54Z</time>
      </trkpt>
      <trkpt lat="46.21455" lon="-0.48909">
        <ele>34.2</ele>
        <time>2021-03-27T10:56:55Z</time>
      </trkpt>
      <trkpt lat="46.21451" lon="-0.48911">
        <ele>34.2</ele>
        <time>2021-03-27T10:56:56Z</time>
      </trkpt>
      <trkpt lat="46.21428" lon="-0.48929">
        <ele>34.2</ele>
        <time>2021-03-27T10:57:02Z</time>
      </trkpt>
      <trkpt lat="46.214" lon="-0.4895">
        <ele>33.8</ele>
        <time>2021-03-27T10:57:09Z</time>
      </trkpt>
      <trkpt lat="46.21362" lon="-0.48977">
        <ele>32.8</ele>
        <time>2021-03-27T10:57:18Z</time>
      </trkpt>
      <trkpt lat="46.21357" lon="-0.4898">
        <ele>32.8</ele>
        <time>2021-03-27T10:57:19Z</time>
      </trkpt>
      <trkpt lat="46.21349" lon="-0.48987">
        <ele>32.8</ele>
        <time>2021-03-27T10:57:21Z</time>
      </trkpt>
      <trkpt lat="46.21319" lon="-0.49008">
        <ele>32.4</ele>
        <time>2021-03-27T10:57:27Z</time>
      </trkpt>
      <trkpt lat="46.2131" lon="-0.49015">
        <ele>32.4</ele>
        <time>2021-03-27T10:57:29Z</time>
      </trkpt>
      <trkpt lat="46.2129" lon="-0.49028">
        <ele>32.4</ele>
        <time>2021-03-27T10:57:33Z</time>
      </trkpt>
      <trkpt lat="46.21277" lon="-0.49039">
        <ele>32.8</ele>
        <time>2021-03-27T10:57:36Z</time>
      </trkpt>
      <trkpt lat="46.21272" lon="-0.49042">
        <ele>32.8</ele>
        <time>2021-03-27T10:57:37Z</time>
      </trkpt>
      <trkpt lat="46.21267" lon="-0.49045">
        <ele>33</ele>
        <time>2021-03-27T10:57:38Z</time>
      </trkpt>
      <trkpt lat="46.21262" lon="-0.49049">
        <ele>33.2</ele>
        <time>2021-03-27T10:57:39Z</time>
      </trkpt>
      <trkpt lat="46.21258" lon="-0.49052">
        <ele>33.4</ele>
        <time>2021-03-27T10:57:40Z</time>
      </trkpt>
      <trkpt lat="46.21242" lon="-0.49063">
        <ele>34</ele>
        <time>2021-03-27T10:57:43Z</time>
      </trkpt>
      <trkpt lat="46.21225" lon="-0.49074">
        <ele>34.6</ele>
        <time>2021-03-27T10:57:46Z</time>
      </trkpt>
      <trkpt lat="46.21209" lon="-0.49084">
        <ele>35</ele>
        <time>2021-03-27T10:57:49Z</time>
      </trkpt>
      <trkpt lat="46.21199" lon="-0.49091">
        <ele>35.4</ele>
        <time>2021-03-27T10:57:51Z</time>
      </trkpt>
      <trkpt lat="46.21184" lon="-0.491">
        <ele>36</ele>
        <time>2021-03-27T10:57:54Z</time>
      </trkpt>
      <trkpt lat="46.2118" lon="-0.49103">
        <ele>36.6</ele>
        <time>2021-03-27T10:57:55Z</time>
      </trkpt>
      <trkpt lat="46.21175" lon="-0.49105">
        <ele>37.2</ele>
        <time>2021-03-27T10:57:56Z</time>
      </trkpt>
      <trkpt lat="46.21171" lon="-0.49106">
        <ele>37.6</ele>
        <time>2021-03-27T10:57:57Z</time>
      </trkpt>
      <trkpt lat="46.21167" lon="-0.49108">
        <ele>37.8</ele>
        <time>2021-03-27T10:57:58Z</time>
      </trkpt>
      <trkpt lat="46.21162" lon="-0.49109">
        <ele>38</ele>
        <time>2021-03-27T10:57:59Z</time>
      </trkpt>
      <trkpt lat="46.21158" lon="-0.49111">
        <ele>38.2</ele>
        <time>2021-03-27T10:58:00Z</time>
      </trkpt>
      <trkpt lat="46.21153" lon="-0.49112">
        <ele>38.4</ele>
        <time>2021-03-27T10:58:01Z</time>
      </trkpt>
      <trkpt lat="46.21149" lon="-0.49113">
        <ele>38.6</ele>
        <time>2021-03-27T10:58:02Z</time>
      </trkpt>
      <trkpt lat="46.21146" lon="-0.49116">
        <ele>39</ele>
        <time>2021-03-27T10:58:03Z</time>
      </trkpt>
      <trkpt lat="46.21144" lon="-0.4912">
        <ele>39</ele>
        <time>2021-03-27T10:58:04Z</time>
      </trkpt>
      <trkpt lat="46.21143" lon="-0.49126">
        <ele>39.2</ele>
        <time>2021-03-27T10:58:05Z</time>
      </trkpt>
      <trkpt lat="46.21142" lon="-0.49133">
        <ele>39.6</ele>
        <time>2021-03-27T10:58:06Z</time>
      </trkpt>
      <trkpt lat="46.21141" lon="-0.4914">
        <ele>39.8</ele>
        <time>2021-03-27T10:58:07Z</time>
      </trkpt>
      <trkpt lat="46.21141" lon="-0.49147">
        <ele>40</ele>
        <time>2021-03-27T10:58:08Z</time>
      </trkpt>
      <trkpt lat="46.21141" lon="-0.49153">
        <ele>40.2</ele>
        <time>2021-03-27T10:58:09Z</time>
      </trkpt>
      <trkpt lat="46.21141" lon="-0.49158">
        <ele>40.4</ele>
        <time>2021-03-27T10:58:10Z</time>
      </trkpt>
      <trkpt lat="46.21142" lon="-0.49163">
        <ele>40.6</ele>
        <time>2021-03-27T10:58:11Z</time>
      </trkpt>
      <trkpt lat="46.21143" lon="-0.49168">
        <ele>40.8</ele>
        <time>2021-03-27T10:58:12Z</time>
      </trkpt>
      <trkpt lat="46.21144" lon="-0.49173">
        <ele>41</ele>
        <time>2021-03-27T10:58:13Z</time>
      </trkpt>
      <trkpt lat="46.21145" lon="-0.4918">
        <ele>41.2</ele>
        <time>2021-03-27T10:58:14Z</time>
      </trkpt>
      <trkpt lat="46.21146" lon="-0.49187">
        <ele>41.2</ele>
        <time>2021-03-27T10:58:15Z</time>
      </trkpt>
      <trkpt lat="46.21147" lon="-0.49195">
        <ele>41.2</ele>
        <time>2021-03-27T10:58:16Z</time>
      </trkpt>
      <trkpt lat="46.21149" lon="-0.49202">
        <ele>41.2</ele>
        <time>2021-03-27T10:58:17Z</time>
      </trkpt>
      <trkpt lat="46.2115" lon="-0.49209">
        <ele>41.2</ele>
        <time>2021-03-27T10:58:18Z</time>
      </trkpt>
      <trkpt lat="46.21152" lon="-0.49216">
        <ele>41.2</ele>
        <time>2021-03-27T10:58:19Z</time>
      </trkpt>
      <trkpt lat="46.21153" lon="-0.49222">
        <ele>41.2</ele>
        <time>2021-03-27T10:58:20Z</time>
      </trkpt>
      <trkpt lat="46.21154" lon="-0.49229">
        <ele>41.2</ele>
        <time>2021-03-27T10:58:21Z</time>
      </trkpt>
      <trkpt lat="46.21156" lon="-0.49234">
        <ele>41.4</ele>
        <time>2021-03-27T10:58:22Z</time>
      </trkpt>
      <trkpt lat="46.21157" lon="-0.4924">
        <ele>41.4</ele>
        <time>2021-03-27T10:58:23Z</time>
      </trkpt>
      <trkpt lat="46.21158" lon="-0.49245">
        <ele>41.4</ele>
        <time>2021-03-27T10:58:24Z</time>
      </trkpt>
      <trkpt lat="46.21158" lon="-0.49249">
        <ele>41.4</ele>
        <time>2021-03-27T10:58:25Z</time>
      </trkpt>
      <trkpt lat="46.21156" lon="-0.49253">
        <ele>41.4</ele>
        <time>2021-03-27T10:58:26Z</time>
      </trkpt>
      <trkpt lat="46.21154" lon="-0.49255">
        <ele>41.4</ele>
        <time>2021-03-27T10:58:27Z</time>
      </trkpt>
      <trkpt lat="46.21151" lon="-0.49256">
        <ele>41.2</ele>
        <time>2021-03-27T10:58:28Z</time>
      </trkpt>
      <trkpt lat="46.21148" lon="-0.49257">
        <ele>41.2</ele>
        <time>2021-03-27T10:58:29Z</time>
      </trkpt>
      <trkpt lat="46.21144" lon="-0.49258">
        <ele>41.2</ele>
        <time>2021-03-27T10:58:30Z</time>
      </trkpt>
      <trkpt lat="46.21141" lon="-0.4926">
        <ele>41.2</ele>
        <time>2021-03-27T10:58:31Z</time>
      </trkpt>
      <trkpt lat="46.21138" lon="-0.49261">
        <ele>41.2</ele>
        <time>2021-03-27T10:58:32Z</time>
      </trkpt>
      <trkpt lat="46.21117" lon="-0.49271">
        <ele>41.2</ele>
        <time>2021-03-27T10:58:38Z</time>
      </trkpt>
      <trkpt lat="46.211" lon="-0.49281">
        <ele>41.4</ele>
        <time>2021-03-27T10:58:43Z</time>
      </trkpt>
      <trkpt lat="46.21092" lon="-0.49286">
        <ele>41.8</ele>
        <time>2021-03-27T10:58:45Z</time>
      </trkpt>
      <trkpt lat="46.21081" lon="-0.49296">
        <ele>42.4</ele>
        <time>2021-03-27T10:58:48Z</time>
      </trkpt>
      <trkpt lat="46.21072" lon="-0.49303">
        <ele>42.4</ele>
        <time>2021-03-27T10:58:50Z</time>
      </trkpt>
      <trkpt lat="46.21067" lon="-0.49307">
        <ele>42.4</ele>
        <time>2021-03-27T10:58:51Z</time>
      </trkpt>
      <trkpt lat="46.21042" lon="-0.49329">
        <ele>42.6</ele>
        <time>2021-03-27T10:58:56Z</time>
      </trkpt>
      <trkpt lat="46.21038" lon="-0.49333">
        <ele>42.6</ele>
        <time>2021-03-27T10:58:57Z</time>
      </trkpt>
      <trkpt lat="46.21034" lon="-0.49337">
        <ele>42.8</ele>
        <time>2021-03-27T10:58:58Z</time>
      </trkpt>
      <trkpt lat="46.21016" lon="-0.49351">
        <ele>42.8</ele>
        <time>2021-03-27T10:59:02Z</time>
      </trkpt>
      <trkpt lat="46.21012" lon="-0.49354">
        <ele>42.8</ele>
        <time>2021-03-27T10:59:03Z</time>
      </trkpt>
      <trkpt lat="46.21007" lon="-0.49358">
        <ele>42.8</ele>
        <time>2021-03-27T10:59:04Z</time>
      </trkpt>
      <trkpt lat="46.21003" lon="-0.49361">
        <ele>43</ele>
        <time>2021-03-27T10:59:05Z</time>
      </trkpt>
      <trkpt lat="46.20998" lon="-0.49364">
        <ele>43.4</ele>
        <time>2021-03-27T10:59:06Z</time>
      </trkpt>
      <trkpt lat="46.20993" lon="-0.49368">
        <ele>43.8</ele>
        <time>2021-03-27T10:59:07Z</time>
      </trkpt>
      <trkpt lat="46.2098" lon="-0.4938">
        <ele>44.2</ele>
        <time>2021-03-27T10:59:10Z</time>
      </trkpt>
      <trkpt lat="46.20976" lon="-0.49383">
        <ele>44.4</ele>
        <time>2021-03-27T10:59:11Z</time>
      </trkpt>
      <trkpt lat="46.20971" lon="-0.49387">
        <ele>44.4</ele>
        <time>2021-03-27T10:59:12Z</time>
      </trkpt>
      <trkpt lat="46.20958" lon="-0.494">
        <ele>44.8</ele>
        <time>2021-03-27T10:59:15Z</time>
      </trkpt>
      <trkpt lat="46.20949" lon="-0.49408">
        <ele>45</ele>
        <time>2021-03-27T10:59:17Z</time>
      </trkpt>
      <trkpt lat="46.20944" lon="-0.49412">
        <ele>45.4</ele>
        <time>2021-03-27T10:59:18Z</time>
      </trkpt>
      <trkpt lat="46.20939" lon="-0.49416">
        <ele>45.8</ele>
        <time>2021-03-27T10:59:19Z</time>
      </trkpt>
      <trkpt lat="46.20935" lon="-0.4942">
        <ele>46.2</ele>
        <time>2021-03-27T10:59:20Z</time>
      </trkpt>
      <trkpt lat="46.2093" lon="-0.49423">
        <ele>46.4</ele>
        <time>2021-03-27T10:59:21Z</time>
      </trkpt>
      <trkpt lat="46.20926" lon="-0.49427">
        <ele>46.6</ele>
        <time>2021-03-27T10:59:22Z</time>
      </trkpt>
      <trkpt lat="46.20922" lon="-0.4943">
        <ele>46.8</ele>
        <time>2021-03-27T10:59:23Z</time>
      </trkpt>
      <trkpt lat="46.20918" lon="-0.49434">
        <ele>47</ele>
        <time>2021-03-27T10:59:24Z</time>
      </trkpt>
      <trkpt lat="46.20915" lon="-0.49436">
        <ele>47</ele>
        <time>2021-03-27T10:59:25Z</time>
      </trkpt>
      <trkpt lat="46.20912" lon="-0.49438">
        <ele>47.2</ele>
        <time>2021-03-27T10:59:26Z</time>
      </trkpt>
      <trkpt lat="46.2091" lon="-0.4944">
        <ele>47.2</ele>
        <time>2021-03-27T10:59:27Z</time>
      </trkpt>
      <trkpt lat="46.20909" lon="-0.49441">
        <ele>47.4</ele>
        <time>2021-03-27T10:59:28Z</time>
      </trkpt>
      <trkpt lat="46.20909" lon="-0.49442">
        <ele>47.6</ele>
        <time>2021-03-27T10:59:29Z</time>
      </trkpt>
      <trkpt lat="46.20909" lon="-0.49442">
        <ele>47.6</ele>
        <time>2021-03-27T10:59:30Z</time>
      </trkpt>
      <trkpt lat="46.20909" lon="-0.49442">
        <ele>47.8</ele>
        <time>2021-03-27T10:59:31Z</time>
      </trkpt>
      <trkpt lat="46.20914" lon="-0.49438">
        <ele>50.8</ele>
        <time>2021-03-27T10:59:44Z</time>
      </trkpt>
      <trkpt lat="46.20916" lon="-0.49436">
        <ele>50.8</ele>
        <time>2021-03-27T10:59:45Z</time>
      </trkpt>
      <trkpt lat="46.20919" lon="-0.49434">
        <ele>50.8</ele>
        <time>2021-03-27T10:59:46Z</time>
      </trkpt>
      <trkpt lat="46.20923" lon="-0.49431">
        <ele>50.8</ele>
        <time>2021-03-27T10:59:47Z</time>
      </trkpt>
      <trkpt lat="46.20926" lon="-0.49428">
        <ele>50.8</ele>
        <time>2021-03-27T10:59:48Z</time>
      </trkpt>
      <trkpt lat="46.2093" lon="-0.49425">
        <ele>50.8</ele>
        <time>2021-03-27T10:59:49Z</time>
      </trkpt>
      <trkpt lat="46.20934" lon="-0.49422">
        <ele>50.8</ele>
        <time>2021-03-27T10:59:50Z</time>
      </trkpt>
      <trkpt lat="46.20938" lon="-0.49418">
        <ele>50.8</ele>
        <time>2021-03-27T10:59:51Z</time>
      </trkpt>
      <trkpt lat="46.20943" lon="-0.49414">
        <ele>50.6</ele>
        <time>2021-03-27T10:59:52Z</time>
      </trkpt>
      <trkpt lat="46.20948" lon="-0.4941">
        <ele>50.6</ele>
        <time>2021-03-27T10:59:53Z</time>
      </trkpt>
      <trkpt lat="46.20952" lon="-0.49407">
        <ele>50.6</ele>
        <time>2021-03-27T10:59:54Z</time>
      </trkpt>
      <trkpt lat="46.20957" lon="-0.49403">
        <ele>50.4</ele>
        <time>2021-03-27T10:59:55Z</time>
      </trkpt>
      <trkpt lat="46.20961" lon="-0.49399">
        <ele>50.2</ele>
        <time>2021-03-27T10:59:56Z</time>
      </trkpt>
      <trkpt lat="46.20965" lon="-0.49395">
        <ele>50</ele>
        <time>2021-03-27T10:59:57Z</time>
      </trkpt>
      <trkpt lat="46.2097" lon="-0.49391">
        <ele>50</ele>
        <time>2021-03-27T10:59:58Z</time>
      </trkpt>
      <trkpt lat="46.20974" lon="-0.49388">
        <ele>49.8</ele>
        <time>2021-03-27T10:59:59Z</time>
      </trkpt>
      <trkpt lat="46.20991" lon="-0.49373">
        <ele>48.4</ele>
        <time>2021-03-27T11:00:03Z</time>
      </trkpt>
      <trkpt lat="46.20996" lon="-0.49369">
        <ele>48.2</ele>
        <time>2021-03-27T11:00:04Z</time>
      </trkpt>
      <trkpt lat="46.2102" lon="-0.4935">
        <ele>47.4</ele>
        <time>2021-03-27T11:00:09Z</time>
      </trkpt>
      <trkpt lat="46.21028" lon="-0.49343">
        <ele>47</ele>
        <time>2021-03-27T11:00:11Z</time>
      </trkpt>
      <trkpt lat="46.21031" lon="-0.49339">
        <ele>46.6</ele>
        <time>2021-03-27T11:00:12Z</time>
      </trkpt>
      <trkpt lat="46.21033" lon="-0.49334">
        <ele>46.4</ele>
        <time>2021-03-27T11:00:13Z</time>
      </trkpt>
      <trkpt lat="46.21032" lon="-0.4933">
        <ele>46.2</ele>
        <time>2021-03-27T11:00:14Z</time>
      </trkpt>
      <trkpt lat="46.21031" lon="-0.49327">
        <ele>46</ele>
        <time>2021-03-27T11:00:15Z</time>
      </trkpt>
      <trkpt lat="46.21029" lon="-0.49325">
        <ele>45.8</ele>
        <time>2021-03-27T11:00:16Z</time>
      </trkpt>
      <trkpt lat="46.21026" lon="-0.49322">
        <ele>45.6</ele>
        <time>2021-03-27T11:00:17Z</time>
      </trkpt>
      <trkpt lat="46.21016" lon="-0.49309">
        <ele>45.4</ele>
        <time>2021-03-27T11:00:21Z</time>
      </trkpt>
      <trkpt lat="46.21" lon="-0.49282">
        <ele>45.6</ele>
        <time>2021-03-27T11:00:28Z</time>
      </trkpt>
      <trkpt lat="46.20974" lon="-0.4924">
        <ele>45.8</ele>
        <time>2021-03-27T11:00:38Z</time>
      </trkpt>
      <trkpt lat="46.20961" lon="-0.49231">
        <ele>45.8</ele>
        <time>2021-03-27T11:00:42Z</time>
      </trkpt>
      <trkpt lat="46.20958" lon="-0.4923">
        <ele>45.8</ele>
        <time>2021-03-27T11:00:43Z</time>
      </trkpt>
      <trkpt lat="46.20955" lon="-0.4923">
        <ele>45.8</ele>
        <time>2021-03-27T11:00:44Z</time>
      </trkpt>
      <trkpt lat="46.20951" lon="-0.49231">
        <ele>45.8</ele>
        <time>2021-03-27T11:00:45Z</time>
      </trkpt>
      <trkpt lat="46.20947" lon="-0.49232">
        <ele>45.8</ele>
        <time>2021-03-27T11:00:46Z</time>
      </trkpt>
      <trkpt lat="46.20944" lon="-0.49235">
        <ele>45.8</ele>
        <time>2021-03-27T11:00:47Z</time>
      </trkpt>
      <trkpt lat="46.2094" lon="-0.49238">
        <ele>45.8</ele>
        <time>2021-03-27T11:00:48Z</time>
      </trkpt>
      <trkpt lat="46.20937" lon="-0.4924">
        <ele>45.8</ele>
        <time>2021-03-27T11:00:49Z</time>
      </trkpt>
      <trkpt lat="46.20912" lon="-0.49261">
        <ele>45.8</ele>
        <time>2021-03-27T11:00:57Z</time>
      </trkpt>
      <trkpt lat="46.20893" lon="-0.49274">
        <ele>46.2</ele>
        <time>2021-03-27T11:01:03Z</time>
      </trkpt>
      <trkpt lat="46.2089" lon="-0.49275">
        <ele>46.4</ele>
        <time>2021-03-27T11:01:04Z</time>
      </trkpt>
      <trkpt lat="46.20886" lon="-0.49276">
        <ele>46.8</ele>
        <time>2021-03-27T11:01:05Z</time>
      </trkpt>
      <trkpt lat="46.20883" lon="-0.49277">
        <ele>46.8</ele>
        <time>2021-03-27T11:01:06Z</time>
      </trkpt>
      <trkpt lat="46.20878" lon="-0.49277">
        <ele>47</ele>
        <time>2021-03-27T11:01:07Z</time>
      </trkpt>
      <trkpt lat="46.20867" lon="-0.49282">
        <ele>47.2</ele>
        <time>2021-03-27T11:01:10Z</time>
      </trkpt>
      <trkpt lat="46.20863" lon="-0.49285">
        <ele>47.2</ele>
        <time>2021-03-27T11:01:11Z</time>
      </trkpt>
      <trkpt lat="46.20834" lon="-0.49307">
        <ele>47.8</ele>
        <time>2021-03-27T11:01:18Z</time>
      </trkpt>
      <trkpt lat="46.20799" lon="-0.49337">
        <ele>48.4</ele>
        <time>2021-03-27T11:01:27Z</time>
      </trkpt>
      <trkpt lat="46.2079" lon="-0.49343">
        <ele>48.4</ele>
        <time>2021-03-27T11:01:29Z</time>
      </trkpt>
      <trkpt lat="46.2077" lon="-0.49359">
        <ele>48.6</ele>
        <time>2021-03-27T11:01:34Z</time>
      </trkpt>
      <trkpt lat="46.20766" lon="-0.49361">
        <ele>48.6</ele>
        <time>2021-03-27T11:01:35Z</time>
      </trkpt>
      <trkpt lat="46.20762" lon="-0.49363">
        <ele>48.6</ele>
        <time>2021-03-27T11:01:36Z</time>
      </trkpt>
      <trkpt lat="46.20754" lon="-0.49359">
        <ele>48.6</ele>
        <time>2021-03-27T11:01:38Z</time>
      </trkpt>
      <trkpt lat="46.20751" lon="-0.49356">
        <ele>48.6</ele>
        <time>2021-03-27T11:01:39Z</time>
      </trkpt>
      <trkpt lat="46.20747" lon="-0.49352">
        <ele>48.6</ele>
        <time>2021-03-27T11:01:40Z</time>
      </trkpt>
      <trkpt lat="46.20744" lon="-0.49349">
        <ele>48.8</ele>
        <time>2021-03-27T11:01:41Z</time>
      </trkpt>
      <trkpt lat="46.2074" lon="-0.49347">
        <ele>48.8</ele>
        <time>2021-03-27T11:01:42Z</time>
      </trkpt>
      <trkpt lat="46.20736" lon="-0.49347">
        <ele>48.8</ele>
        <time>2021-03-27T11:01:43Z</time>
      </trkpt>
      <trkpt lat="46.20732" lon="-0.49348">
        <ele>48.8</ele>
        <time>2021-03-27T11:01:44Z</time>
      </trkpt>
      <trkpt lat="46.20728" lon="-0.4935">
        <ele>49</ele>
        <time>2021-03-27T11:01:45Z</time>
      </trkpt>
      <trkpt lat="46.20724" lon="-0.49353">
        <ele>49</ele>
        <time>2021-03-27T11:01:46Z</time>
      </trkpt>
      <trkpt lat="46.20721" lon="-0.49356">
        <ele>49</ele>
        <time>2021-03-27T11:01:47Z</time>
      </trkpt>
      <trkpt lat="46.20717" lon="-0.49359">
        <ele>49</ele>
        <time>2021-03-27T11:01:48Z</time>
      </trkpt>
      <trkpt lat="46.20707" lon="-0.49368">
        <ele>49</ele>
        <time>2021-03-27T11:01:51Z</time>
      </trkpt>
      <trkpt lat="46.20704" lon="-0.49371">
        <ele>49</ele>
        <time>2021-03-27T11:01:52Z</time>
      </trkpt>
      <trkpt lat="46.20701" lon="-0.49373">
        <ele>49</ele>
        <time>2021-03-27T11:01:53Z</time>
      </trkpt>
      <trkpt lat="46.20695" lon="-0.49379">
        <ele>49</ele>
        <time>2021-03-27T11:01:55Z</time>
      </trkpt>
      <trkpt lat="46.20692" lon="-0.49382">
        <ele>49</ele>
        <time>2021-03-27T11:01:56Z</time>
      </trkpt>
      <trkpt lat="46.20688" lon="-0.49385">
        <ele>49</ele>
        <time>2021-03-27T11:01:57Z</time>
      </trkpt>
      <trkpt lat="46.20685" lon="-0.49389">
        <ele>49</ele>
        <time>2021-03-27T11:01:58Z</time>
      </trkpt>
      <trkpt lat="46.20682" lon="-0.49392">
        <ele>49</ele>
        <time>2021-03-27T11:01:59Z</time>
      </trkpt>
      <trkpt lat="46.20679" lon="-0.49394">
        <ele>49</ele>
        <time>2021-03-27T11:02:00Z</time>
      </trkpt>
      <trkpt lat="46.20677" lon="-0.49397">
        <ele>49</ele>
        <time>2021-03-27T11:02:01Z</time>
      </trkpt>
      <trkpt lat="46.20674" lon="-0.49401">
        <ele>49</ele>
        <time>2021-03-27T11:02:02Z</time>
      </trkpt>
      <trkpt lat="46.20671" lon="-0.49404">
        <ele>49</ele>
        <time>2021-03-27T11:02:03Z</time>
      </trkpt>
      <trkpt lat="46.20665" lon="-0.49411">
        <ele>49</ele>
        <time>2021-03-27T11:02:05Z</time>
      </trkpt>
      <trkpt lat="46.20642" lon="-0.49432">
        <ele>49</ele>
        <time>2021-03-27T11:02:12Z</time>
      </trkpt>
      <trkpt lat="46.20613" lon="-0.49457">
        <ele>48.8</ele>
        <time>2021-03-27T11:02:20Z</time>
      </trkpt>
      <trkpt lat="46.2057" lon="-0.49494">
        <ele>48.8</ele>
        <time>2021-03-27T11:02:31Z</time>
      </trkpt>
      <trkpt lat="46.20531" lon="-0.49526">
        <ele>48</ele>
        <time>2021-03-27T11:02:40Z</time>
      </trkpt>
      <trkpt lat="46.20493" lon="-0.49558">
        <ele>48.2</ele>
        <time>2021-03-27T11:02:49Z</time>
      </trkpt>
      <trkpt lat="46.20489" lon="-0.49562">
        <ele>48.4</ele>
        <time>2021-03-27T11:02:50Z</time>
      </trkpt>
      <trkpt lat="46.20485" lon="-0.49566">
        <ele>48.8</ele>
        <time>2021-03-27T11:02:51Z</time>
      </trkpt>
      <trkpt lat="46.20482" lon="-0.49569">
        <ele>48.8</ele>
        <time>2021-03-27T11:02:52Z</time>
      </trkpt>
      <trkpt lat="46.20478" lon="-0.49572">
        <ele>48.8</ele>
        <time>2021-03-27T11:02:53Z</time>
      </trkpt>
      <trkpt lat="46.20474" lon="-0.49575">
        <ele>49</ele>
        <time>2021-03-27T11:02:54Z</time>
      </trkpt>
      <trkpt lat="46.20472" lon="-0.49577">
        <ele>49.4</ele>
        <time>2021-03-27T11:02:55Z</time>
      </trkpt>
      <trkpt lat="46.20469" lon="-0.49579">
        <ele>49.6</ele>
        <time>2021-03-27T11:02:56Z</time>
      </trkpt>
      <trkpt lat="46.20466" lon="-0.49579">
        <ele>49.8</ele>
        <time>2021-03-27T11:02:57Z</time>
      </trkpt>
      <trkpt lat="46.20463" lon="-0.49578">
        <ele>50</ele>
        <time>2021-03-27T11:02:58Z</time>
      </trkpt>
      <trkpt lat="46.20461" lon="-0.49575">
        <ele>50.2</ele>
        <time>2021-03-27T11:02:59Z</time>
      </trkpt>
      <trkpt lat="46.20459" lon="-0.49571">
        <ele>50.4</ele>
        <time>2021-03-27T11:03:00Z</time>
      </trkpt>
      <trkpt lat="46.20455" lon="-0.49563">
        <ele>50.8</ele>
        <time>2021-03-27T11:03:02Z</time>
      </trkpt>
      <trkpt lat="46.20442" lon="-0.49534">
        <ele>50.8</ele>
        <time>2021-03-27T11:03:08Z</time>
      </trkpt>
      <trkpt lat="46.20439" lon="-0.49528">
        <ele>50.8</ele>
        <time>2021-03-27T11:03:09Z</time>
      </trkpt>
      <trkpt lat="46.20437" lon="-0.49523">
        <ele>50.8</ele>
        <time>2021-03-27T11:03:10Z</time>
      </trkpt>
      <trkpt lat="46.20434" lon="-0.49517">
        <ele>50.8</ele>
        <time>2021-03-27T11:03:11Z</time>
      </trkpt>
      <trkpt lat="46.20422" lon="-0.49492">
        <ele>49.8</ele>
        <time>2021-03-27T11:03:15Z</time>
      </trkpt>
      <trkpt lat="46.2042" lon="-0.49485">
        <ele>49.6</ele>
        <time>2021-03-27T11:03:16Z</time>
      </trkpt>
      <trkpt lat="46.20402" lon="-0.49446">
        <ele>48.2</ele>
        <time>2021-03-27T11:03:22Z</time>
      </trkpt>
      <trkpt lat="46.20399" lon="-0.4944">
        <ele>48</ele>
        <time>2021-03-27T11:03:23Z</time>
      </trkpt>
      <trkpt lat="46.20387" lon="-0.49413">
        <ele>47.2</ele>
        <time>2021-03-27T11:03:27Z</time>
      </trkpt>
      <trkpt lat="46.20371" lon="-0.49376">
        <ele>46.6</ele>
        <time>2021-03-27T11:03:32Z</time>
      </trkpt>
      <trkpt lat="46.20348" lon="-0.49329">
        <ele>46.2</ele>
        <time>2021-03-27T11:03:39Z</time>
      </trkpt>
      <trkpt lat="46.20345" lon="-0.49323">
        <ele>46.2</ele>
        <time>2021-03-27T11:03:40Z</time>
      </trkpt>
      <trkpt lat="46.20343" lon="-0.49317">
        <ele>46.2</ele>
        <time>2021-03-27T11:03:41Z</time>
      </trkpt>
      <trkpt lat="46.2034" lon="-0.49312">
        <ele>46.2</ele>
        <time>2021-03-27T11:03:42Z</time>
      </trkpt>
      <trkpt lat="46.20337" lon="-0.49307">
        <ele>46.4</ele>
        <time>2021-03-27T11:03:43Z</time>
      </trkpt>
      <trkpt lat="46.20335" lon="-0.49301">
        <ele>46.4</ele>
        <time>2021-03-27T11:03:44Z</time>
      </trkpt>
      <trkpt lat="46.2033" lon="-0.49291">
        <ele>46.6</ele>
        <time>2021-03-27T11:03:46Z</time>
      </trkpt>
      <trkpt lat="46.20328" lon="-0.49288">
        <ele>46.8</ele>
        <time>2021-03-27T11:03:47Z</time>
      </trkpt>
      <trkpt lat="46.20327" lon="-0.49285">
        <ele>46.8</ele>
        <time>2021-03-27T11:03:48Z</time>
      </trkpt>
      <trkpt lat="46.20326" lon="-0.49282">
        <ele>47</ele>
        <time>2021-03-27T11:03:49Z</time>
      </trkpt>
      <trkpt lat="46.20325" lon="-0.4928">
        <ele>47</ele>
        <time>2021-03-27T11:03:50Z</time>
      </trkpt>
      <trkpt lat="46.20325" lon="-0.49277">
        <ele>47.2</ele>
        <time>2021-03-27T11:03:51Z</time>
      </trkpt>
      <trkpt lat="46.20325" lon="-0.49274">
        <ele>47.2</ele>
        <time>2021-03-27T11:03:52Z</time>
      </trkpt>
      <trkpt lat="46.20327" lon="-0.4927">
        <ele>47.4</ele>
        <time>2021-03-27T11:03:53Z</time>
      </trkpt>
      <trkpt lat="46.20331" lon="-0.49266">
        <ele>47.4</ele>
        <time>2021-03-27T11:03:54Z</time>
      </trkpt>
      <trkpt lat="46.20343" lon="-0.49253">
        <ele>47.4</ele>
        <time>2021-03-27T11:03:57Z</time>
      </trkpt>
      <trkpt lat="46.20347" lon="-0.49248">
        <ele>47.4</ele>
        <time>2021-03-27T11:03:58Z</time>
      </trkpt>
      <trkpt lat="46.20352" lon="-0.49243">
        <ele>47.4</ele>
        <time>2021-03-27T11:03:59Z</time>
      </trkpt>
      <trkpt lat="46.20382" lon="-0.4921">
        <ele>46.6</ele>
        <time>2021-03-27T11:04:05Z</time>
      </trkpt>
      <trkpt lat="46.20387" lon="-0.49204">
        <ele>46</ele>
        <time>2021-03-27T11:04:06Z</time>
      </trkpt>
      <trkpt lat="46.20408" lon="-0.49181">
        <ele>45</ele>
        <time>2021-03-27T11:04:10Z</time>
      </trkpt>
      <trkpt lat="46.20419" lon="-0.4917">
        <ele>44.4</ele>
        <time>2021-03-27T11:04:12Z</time>
      </trkpt>
      <trkpt lat="46.20424" lon="-0.49164">
        <ele>44</ele>
        <time>2021-03-27T11:04:13Z</time>
      </trkpt>
      <trkpt lat="46.20439" lon="-0.49148">
        <ele>43</ele>
        <time>2021-03-27T11:04:16Z</time>
      </trkpt>
      <trkpt lat="46.20459" lon="-0.49126">
        <ele>42.2</ele>
        <time>2021-03-27T11:04:20Z</time>
      </trkpt>
      <trkpt lat="46.20464" lon="-0.49121">
        <ele>42</ele>
        <time>2021-03-27T11:04:21Z</time>
      </trkpt>
      <trkpt lat="46.20469" lon="-0.49115">
        <ele>41.8</ele>
        <time>2021-03-27T11:04:22Z</time>
      </trkpt>
      <trkpt lat="46.20478" lon="-0.49105">
        <ele>41.6</ele>
        <time>2021-03-27T11:04:24Z</time>
      </trkpt>
      <trkpt lat="46.20482" lon="-0.491">
        <ele>41.4</ele>
        <time>2021-03-27T11:04:25Z</time>
      </trkpt>
      <trkpt lat="46.20486" lon="-0.49096">
        <ele>41.4</ele>
        <time>2021-03-27T11:04:26Z</time>
      </trkpt>
      <trkpt lat="46.2049" lon="-0.49091">
        <ele>41.2</ele>
        <time>2021-03-27T11:04:27Z</time>
      </trkpt>
      <trkpt lat="46.20493" lon="-0.49086">
        <ele>41.2</ele>
        <time>2021-03-27T11:04:28Z</time>
      </trkpt>
      <trkpt lat="46.20494" lon="-0.49079">
        <ele>41</ele>
        <time>2021-03-27T11:04:29Z</time>
      </trkpt>
      <trkpt lat="46.20495" lon="-0.49072">
        <ele>41</ele>
        <time>2021-03-27T11:04:30Z</time>
      </trkpt>
      <trkpt lat="46.20493" lon="-0.49066">
        <ele>40.8</ele>
        <time>2021-03-27T11:04:31Z</time>
      </trkpt>
      <trkpt lat="46.2049" lon="-0.49061">
        <ele>40.6</ele>
        <time>2021-03-27T11:04:32Z</time>
      </trkpt>
      <trkpt lat="46.20459" lon="-0.49032">
        <ele>39.8</ele>
        <time>2021-03-27T11:04:39Z</time>
      </trkpt>
      <trkpt lat="46.20455" lon="-0.49028">
        <ele>39.8</ele>
        <time>2021-03-27T11:04:40Z</time>
      </trkpt>
      <trkpt lat="46.20414" lon="-0.48989">
        <ele>39.6</ele>
        <time>2021-03-27T11:04:49Z</time>
      </trkpt>
      <trkpt lat="46.20382" lon="-0.48964">
        <ele>40</ele>
        <time>2021-03-27T11:04:55Z</time>
      </trkpt>
      <trkpt lat="46.2036" lon="-0.48946">
        <ele>40.4</ele>
        <time>2021-03-27T11:04:59Z</time>
      </trkpt>
      <trkpt lat="46.20354" lon="-0.48941">
        <ele>40.4</ele>
        <time>2021-03-27T11:05:00Z</time>
      </trkpt>
      <trkpt lat="46.20337" lon="-0.48926">
        <ele>40.4</ele>
        <time>2021-03-27T11:05:03Z</time>
      </trkpt>
      <trkpt lat="46.20301" lon="-0.48885">
        <ele>40.2</ele>
        <time>2021-03-27T11:05:10Z</time>
      </trkpt>
      <trkpt lat="46.20259" lon="-0.48825">
        <ele>40.2</ele>
        <time>2021-03-27T11:05:19Z</time>
      </trkpt>
      <trkpt lat="46.20255" lon="-0.48818">
        <ele>40.4</ele>
        <time>2021-03-27T11:05:20Z</time>
      </trkpt>
      <trkpt lat="46.20251" lon="-0.4881">
        <ele>40.4</ele>
        <time>2021-03-27T11:05:21Z</time>
      </trkpt>
      <trkpt lat="46.20244" lon="-0.48795">
        <ele>40.8</ele>
        <time>2021-03-27T11:05:23Z</time>
      </trkpt>
      <trkpt lat="46.20238" lon="-0.48779">
        <ele>41.2</ele>
        <time>2021-03-27T11:05:25Z</time>
      </trkpt>
      <trkpt lat="46.20234" lon="-0.48772">
        <ele>41.2</ele>
        <time>2021-03-27T11:05:26Z</time>
      </trkpt>
      <trkpt lat="46.20231" lon="-0.48765">
        <ele>41.2</ele>
        <time>2021-03-27T11:05:27Z</time>
      </trkpt>
      <trkpt lat="46.20228" lon="-0.48759">
        <ele>41.4</ele>
        <time>2021-03-27T11:05:28Z</time>
      </trkpt>
      <trkpt lat="46.20225" lon="-0.48754">
        <ele>41.4</ele>
        <time>2021-03-27T11:05:29Z</time>
      </trkpt>
      <trkpt lat="46.20222" lon="-0.48749">
        <ele>41.4</ele>
        <time>2021-03-27T11:05:30Z</time>
      </trkpt>
      <trkpt lat="46.20219" lon="-0.48745">
        <ele>41.4</ele>
        <time>2021-03-27T11:05:31Z</time>
      </trkpt>
      <trkpt lat="46.20216" lon="-0.48741">
        <ele>41.6</ele>
        <time>2021-03-27T11:05:32Z</time>
      </trkpt>
      <trkpt lat="46.20213" lon="-0.48739">
        <ele>41.6</ele>
        <time>2021-03-27T11:05:33Z</time>
      </trkpt>
      <trkpt lat="46.20211" lon="-0.48736">
        <ele>41.8</ele>
        <time>2021-03-27T11:05:34Z</time>
      </trkpt>
      <trkpt lat="46.20207" lon="-0.48733">
        <ele>42</ele>
        <time>2021-03-27T11:05:35Z</time>
      </trkpt>
      <trkpt lat="46.20204" lon="-0.48729">
        <ele>42</ele>
        <time>2021-03-27T11:05:36Z</time>
      </trkpt>
      <trkpt lat="46.20194" lon="-0.48719">
        <ele>43</ele>
        <time>2021-03-27T11:05:39Z</time>
      </trkpt>
      <trkpt lat="46.20186" lon="-0.48711">
        <ele>43.6</ele>
        <time>2021-03-27T11:05:41Z</time>
      </trkpt>
      <trkpt lat="46.20182" lon="-0.48707">
        <ele>44</ele>
        <time>2021-03-27T11:05:42Z</time>
      </trkpt>
      <trkpt lat="46.20175" lon="-0.48699">
        <ele>44.4</ele>
        <time>2021-03-27T11:05:44Z</time>
      </trkpt>
      <trkpt lat="46.20172" lon="-0.48695">
        <ele>44.4</ele>
        <time>2021-03-27T11:05:45Z</time>
      </trkpt>
      <trkpt lat="46.2017" lon="-0.4869">
        <ele>44.6</ele>
        <time>2021-03-27T11:05:46Z</time>
      </trkpt>
      <trkpt lat="46.20168" lon="-0.48687">
        <ele>44.6</ele>
        <time>2021-03-27T11:05:47Z</time>
      </trkpt>
      <trkpt lat="46.20165" lon="-0.48684">
        <ele>44.6</ele>
        <time>2021-03-27T11:05:48Z</time>
      </trkpt>
      <trkpt lat="46.20161" lon="-0.48681">
        <ele>44.6</ele>
        <time>2021-03-27T11:05:49Z</time>
      </trkpt>
      <trkpt lat="46.20158" lon="-0.48677">
        <ele>44.8</ele>
        <time>2021-03-27T11:05:50Z</time>
      </trkpt>
      <trkpt lat="46.20155" lon="-0.48673">
        <ele>44.8</ele>
        <time>2021-03-27T11:05:51Z</time>
      </trkpt>
      <trkpt lat="46.20152" lon="-0.48668">
        <ele>44.8</ele>
        <time>2021-03-27T11:05:52Z</time>
      </trkpt>
      <trkpt lat="46.2015" lon="-0.48664">
        <ele>44.8</ele>
        <time>2021-03-27T11:05:53Z</time>
      </trkpt>
      <trkpt lat="46.20147" lon="-0.48659">
        <ele>44.8</ele>
        <time>2021-03-27T11:05:54Z</time>
      </trkpt>
      <trkpt lat="46.20143" lon="-0.48655">
        <ele>44.8</ele>
        <time>2021-03-27T11:05:55Z</time>
      </trkpt>
      <trkpt lat="46.2014" lon="-0.4865">
        <ele>44.8</ele>
        <time>2021-03-27T11:05:56Z</time>
      </trkpt>
      <trkpt lat="46.20137" lon="-0.48645">
        <ele>44.8</ele>
        <time>2021-03-27T11:05:57Z</time>
      </trkpt>
      <trkpt lat="46.20134" lon="-0.48641">
        <ele>44.8</ele>
        <time>2021-03-27T11:05:58Z</time>
      </trkpt>
      <trkpt lat="46.20132" lon="-0.48635">
        <ele>45</ele>
        <time>2021-03-27T11:05:59Z</time>
      </trkpt>
      <trkpt lat="46.2013" lon="-0.4863">
        <ele>45</ele>
        <time>2021-03-27T11:06:00Z</time>
      </trkpt>
      <trkpt lat="46.20127" lon="-0.48624">
        <ele>45</ele>
        <time>2021-03-27T11:06:01Z</time>
      </trkpt>
      <trkpt lat="46.20125" lon="-0.48618">
        <ele>45</ele>
        <time>2021-03-27T11:06:02Z</time>
      </trkpt>
      <trkpt lat="46.20122" lon="-0.48612">
        <ele>45</ele>
        <time>2021-03-27T11:06:03Z</time>
      </trkpt>
      <trkpt lat="46.20114" lon="-0.48596">
        <ele>45</ele>
        <time>2021-03-27T11:06:06Z</time>
      </trkpt>
      <trkpt lat="46.20112" lon="-0.4859">
        <ele>45</ele>
        <time>2021-03-27T11:06:07Z</time>
      </trkpt>
      <trkpt lat="46.20092" lon="-0.4855">
        <ele>44.4</ele>
        <time>2021-03-27T11:06:14Z</time>
      </trkpt>
      <trkpt lat="46.20088" lon="-0.48543">
        <ele>44.4</ele>
        <time>2021-03-27T11:06:15Z</time>
      </trkpt>
      <trkpt lat="46.2007" lon="-0.48502">
        <ele>43.6</ele>
        <time>2021-03-27T11:06:20Z</time>
      </trkpt>
      <trkpt lat="46.20056" lon="-0.48467">
        <ele>43</ele>
        <time>2021-03-27T11:06:24Z</time>
      </trkpt>
      <trkpt lat="46.20052" lon="-0.48459">
        <ele>43</ele>
        <time>2021-03-27T11:06:25Z</time>
      </trkpt>
      <trkpt lat="46.20048" lon="-0.48451">
        <ele>42.8</ele>
        <time>2021-03-27T11:06:26Z</time>
      </trkpt>
      <trkpt lat="46.20022" lon="-0.48407">
        <ele>42.8</ele>
        <time>2021-03-27T11:06:32Z</time>
      </trkpt>
      <trkpt lat="46.20017" lon="-0.484">
        <ele>42.8</ele>
        <time>2021-03-27T11:06:33Z</time>
      </trkpt>
      <trkpt lat="46.19981" lon="-0.48352">
        <ele>43</ele>
        <time>2021-03-27T11:06:40Z</time>
      </trkpt>
      <trkpt lat="46.19971" lon="-0.4834">
        <ele>43</ele>
        <time>2021-03-27T11:06:42Z</time>
      </trkpt>
      <trkpt lat="46.1996" lon="-0.4833">
        <ele>43.2</ele>
        <time>2021-03-27T11:06:44Z</time>
      </trkpt>
      <trkpt lat="46.19955" lon="-0.48323">
        <ele>43.2</ele>
        <time>2021-03-27T11:06:45Z</time>
      </trkpt>
      <trkpt lat="46.1995" lon="-0.48316">
        <ele>43.2</ele>
        <time>2021-03-27T11:06:46Z</time>
      </trkpt>
      <trkpt lat="46.19923" lon="-0.48271">
        <ele>43.6</ele>
        <time>2021-03-27T11:06:52Z</time>
      </trkpt>
      <trkpt lat="46.19914" lon="-0.48236">
        <ele>44</ele>
        <time>2021-03-27T11:06:56Z</time>
      </trkpt>
      <trkpt lat="46.19912" lon="-0.48226">
        <ele>44.2</ele>
        <time>2021-03-27T11:06:57Z</time>
      </trkpt>
      <trkpt lat="46.1991" lon="-0.48217">
        <ele>44.4</ele>
        <time>2021-03-27T11:06:58Z</time>
      </trkpt>
      <trkpt lat="46.19909" lon="-0.48208">
        <ele>44.6</ele>
        <time>2021-03-27T11:06:59Z</time>
      </trkpt>
      <trkpt lat="46.19907" lon="-0.482">
        <ele>44.8</ele>
        <time>2021-03-27T11:07:00Z</time>
      </trkpt>
      <trkpt lat="46.19906" lon="-0.48191">
        <ele>45.4</ele>
        <time>2021-03-27T11:07:01Z</time>
      </trkpt>
      <trkpt lat="46.19902" lon="-0.48163">
        <ele>46.8</ele>
        <time>2021-03-27T11:07:04Z</time>
      </trkpt>
      <trkpt lat="46.199" lon="-0.48154">
        <ele>47</ele>
        <time>2021-03-27T11:07:05Z</time>
      </trkpt>
      <trkpt lat="46.19898" lon="-0.48144">
        <ele>47.4</ele>
        <time>2021-03-27T11:07:06Z</time>
      </trkpt>
      <trkpt lat="46.19897" lon="-0.48135">
        <ele>47.8</ele>
        <time>2021-03-27T11:07:07Z</time>
      </trkpt>
      <trkpt lat="46.19895" lon="-0.48126">
        <ele>48.2</ele>
        <time>2021-03-27T11:07:08Z</time>
      </trkpt>
      <trkpt lat="46.19893" lon="-0.48116">
        <ele>48.4</ele>
        <time>2021-03-27T11:07:09Z</time>
      </trkpt>
      <trkpt lat="46.19891" lon="-0.48108">
        <ele>48.8</ele>
        <time>2021-03-27T11:07:10Z</time>
      </trkpt>
      <trkpt lat="46.19888" lon="-0.48099">
        <ele>49.2</ele>
        <time>2021-03-27T11:07:11Z</time>
      </trkpt>
      <trkpt lat="46.19885" lon="-0.48091">
        <ele>49.6</ele>
        <time>2021-03-27T11:07:12Z</time>
      </trkpt>
      <trkpt lat="46.19882" lon="-0.48083">
        <ele>50</ele>
        <time>2021-03-27T11:07:13Z</time>
      </trkpt>
      <trkpt lat="46.19878" lon="-0.48075">
        <ele>50</ele>
        <time>2021-03-27T11:07:14Z</time>
      </trkpt>
      <trkpt lat="46.19874" lon="-0.48067">
        <ele>50.4</ele>
        <time>2021-03-27T11:07:15Z</time>
      </trkpt>
      <trkpt lat="46.1987" lon="-0.4806">
        <ele>50.8</ele>
        <time>2021-03-27T11:07:16Z</time>
      </trkpt>
      <trkpt lat="46.19866" lon="-0.48053">
        <ele>51</ele>
        <time>2021-03-27T11:07:17Z</time>
      </trkpt>
      <trkpt lat="46.19862" lon="-0.48046">
        <ele>51.4</ele>
        <time>2021-03-27T11:07:18Z</time>
      </trkpt>
      <trkpt lat="46.19858" lon="-0.48039">
        <ele>51.4</ele>
        <time>2021-03-27T11:07:19Z</time>
      </trkpt>
      <trkpt lat="46.19854" lon="-0.48033">
        <ele>51.6</ele>
        <time>2021-03-27T11:07:20Z</time>
      </trkpt>
      <trkpt lat="46.1985" lon="-0.48026">
        <ele>52</ele>
        <time>2021-03-27T11:07:21Z</time>
      </trkpt>
      <trkpt lat="46.19846" lon="-0.4802">
        <ele>52</ele>
        <time>2021-03-27T11:07:22Z</time>
      </trkpt>
      <trkpt lat="46.19843" lon="-0.48015">
        <ele>52.4</ele>
        <time>2021-03-27T11:07:23Z</time>
      </trkpt>
      <trkpt lat="46.19839" lon="-0.48009">
        <ele>52.8</ele>
        <time>2021-03-27T11:07:24Z</time>
      </trkpt>
      <trkpt lat="46.19835" lon="-0.48003">
        <ele>53</ele>
        <time>2021-03-27T11:07:25Z</time>
      </trkpt>
      <trkpt lat="46.19831" lon="-0.47996">
        <ele>53.4</ele>
        <time>2021-03-27T11:07:26Z</time>
      </trkpt>
      <trkpt lat="46.19826" lon="-0.4799">
        <ele>53.4</ele>
        <time>2021-03-27T11:07:27Z</time>
      </trkpt>
      <trkpt lat="46.19822" lon="-0.47983">
        <ele>53.6</ele>
        <time>2021-03-27T11:07:28Z</time>
      </trkpt>
      <trkpt lat="46.19817" lon="-0.47977">
        <ele>53.6</ele>
        <time>2021-03-27T11:07:29Z</time>
      </trkpt>
      <trkpt lat="46.19813" lon="-0.4797">
        <ele>53.6</ele>
        <time>2021-03-27T11:07:30Z</time>
      </trkpt>
      <trkpt lat="46.19809" lon="-0.47963">
        <ele>53.6</ele>
        <time>2021-03-27T11:07:31Z</time>
      </trkpt>
      <trkpt lat="46.19805" lon="-0.47957">
        <ele>53.6</ele>
        <time>2021-03-27T11:07:32Z</time>
      </trkpt>
      <trkpt lat="46.19801" lon="-0.4795">
        <ele>53.6</ele>
        <time>2021-03-27T11:07:33Z</time>
      </trkpt>
      <trkpt lat="46.19797" lon="-0.47944">
        <ele>53.6</ele>
        <time>2021-03-27T11:07:34Z</time>
      </trkpt>
      <trkpt lat="46.19793" lon="-0.47938">
        <ele>53.6</ele>
        <time>2021-03-27T11:07:35Z</time>
      </trkpt>
      <trkpt lat="46.19788" lon="-0.47932">
        <ele>53.6</ele>
        <time>2021-03-27T11:07:36Z</time>
      </trkpt>
      <trkpt lat="46.19784" lon="-0.47926">
        <ele>53.6</ele>
        <time>2021-03-27T11:07:37Z</time>
      </trkpt>
      <trkpt lat="46.1978" lon="-0.4792">
        <ele>53.4</ele>
        <time>2021-03-27T11:07:38Z</time>
      </trkpt>
      <trkpt lat="46.19776" lon="-0.47914">
        <ele>53.4</ele>
        <time>2021-03-27T11:07:39Z</time>
      </trkpt>
      <trkpt lat="46.19771" lon="-0.47908">
        <ele>53.2</ele>
        <time>2021-03-27T11:07:40Z</time>
      </trkpt>
      <trkpt lat="46.19767" lon="-0.47903">
        <ele>53</ele>
        <time>2021-03-27T11:07:41Z</time>
      </trkpt>
      <trkpt lat="46.19763" lon="-0.47898">
        <ele>53</ele>
        <time>2021-03-27T11:07:42Z</time>
      </trkpt>
      <trkpt lat="46.19759" lon="-0.47893">
        <ele>52.8</ele>
        <time>2021-03-27T11:07:43Z</time>
      </trkpt>
      <trkpt lat="46.19755" lon="-0.47888">
        <ele>52.4</ele>
        <time>2021-03-27T11:07:44Z</time>
      </trkpt>
      <trkpt lat="46.19751" lon="-0.47883">
        <ele>52</ele>
        <time>2021-03-27T11:07:45Z</time>
      </trkpt>
      <trkpt lat="46.19747" lon="-0.47878">
        <ele>51.8</ele>
        <time>2021-03-27T11:07:46Z</time>
      </trkpt>
      <trkpt lat="46.19726" lon="-0.47855">
        <ele>51.6</ele>
        <time>2021-03-27T11:07:50Z</time>
      </trkpt>
      <trkpt lat="46.19711" lon="-0.47838">
        <ele>51.4</ele>
        <time>2021-03-27T11:07:53Z</time>
      </trkpt>
      <trkpt lat="46.19706" lon="-0.47833">
        <ele>51.4</ele>
        <time>2021-03-27T11:07:54Z</time>
      </trkpt>
      <trkpt lat="46.19702" lon="-0.47828">
        <ele>51.2</ele>
        <time>2021-03-27T11:07:55Z</time>
      </trkpt>
      <trkpt lat="46.19698" lon="-0.47824">
        <ele>51.2</ele>
        <time>2021-03-27T11:07:56Z</time>
      </trkpt>
      <trkpt lat="46.19693" lon="-0.47819">
        <ele>51.2</ele>
        <time>2021-03-27T11:07:57Z</time>
      </trkpt>
      <trkpt lat="46.19689" lon="-0.47814">
        <ele>51.2</ele>
        <time>2021-03-27T11:07:58Z</time>
      </trkpt>
      <trkpt lat="46.19668" lon="-0.47797">
        <ele>51</ele>
        <time>2021-03-27T11:08:02Z</time>
      </trkpt>
      <trkpt lat="46.19664" lon="-0.47795">
        <ele>51</ele>
        <time>2021-03-27T11:08:03Z</time>
      </trkpt>
      <trkpt lat="46.19658" lon="-0.47792">
        <ele>51</ele>
        <time>2021-03-27T11:08:04Z</time>
      </trkpt>
      <trkpt lat="46.19653" lon="-0.4779">
        <ele>50.8</ele>
        <time>2021-03-27T11:08:05Z</time>
      </trkpt>
      <trkpt lat="46.19648" lon="-0.47787">
        <ele>50.8</ele>
        <time>2021-03-27T11:08:06Z</time>
      </trkpt>
      <trkpt lat="46.19643" lon="-0.47785">
        <ele>50.8</ele>
        <time>2021-03-27T11:08:07Z</time>
      </trkpt>
      <trkpt lat="46.19637" lon="-0.47782">
        <ele>50.8</ele>
        <time>2021-03-27T11:08:08Z</time>
      </trkpt>
      <trkpt lat="46.19608" lon="-0.47769">
        <ele>50.6</ele>
        <time>2021-03-27T11:08:13Z</time>
      </trkpt>
      <trkpt lat="46.19595" lon="-0.47764">
        <ele>50.6</ele>
        <time>2021-03-27T11:08:15Z</time>
      </trkpt>
      <trkpt lat="46.19589" lon="-0.47761">
        <ele>50.4</ele>
        <time>2021-03-27T11:08:16Z</time>
      </trkpt>
      <trkpt lat="46.19584" lon="-0.47759">
        <ele>50.4</ele>
        <time>2021-03-27T11:08:17Z</time>
      </trkpt>
      <trkpt lat="46.19572" lon="-0.47756">
        <ele>50.4</ele>
        <time>2021-03-27T11:08:19Z</time>
      </trkpt>
      <trkpt lat="46.19566" lon="-0.47755">
        <ele>50.4</ele>
        <time>2021-03-27T11:08:20Z</time>
      </trkpt>
      <trkpt lat="46.19561" lon="-0.47753">
        <ele>50.4</ele>
        <time>2021-03-27T11:08:21Z</time>
      </trkpt>
      <trkpt lat="46.19555" lon="-0.47751">
        <ele>50.4</ele>
        <time>2021-03-27T11:08:22Z</time>
      </trkpt>
      <trkpt lat="46.19549" lon="-0.4775">
        <ele>50.4</ele>
        <time>2021-03-27T11:08:23Z</time>
      </trkpt>
      <trkpt lat="46.19543" lon="-0.47749">
        <ele>50.4</ele>
        <time>2021-03-27T11:08:24Z</time>
      </trkpt>
      <trkpt lat="46.19537" lon="-0.47747">
        <ele>50.4</ele>
        <time>2021-03-27T11:08:25Z</time>
      </trkpt>
      <trkpt lat="46.19515" lon="-0.4774">
        <ele>50.4</ele>
        <time>2021-03-27T11:08:29Z</time>
      </trkpt>
      <trkpt lat="46.19503" lon="-0.47737">
        <ele>50.6</ele>
        <time>2021-03-27T11:08:31Z</time>
      </trkpt>
      <trkpt lat="46.19498" lon="-0.47735">
        <ele>50.6</ele>
        <time>2021-03-27T11:08:32Z</time>
      </trkpt>
      <trkpt lat="46.19492" lon="-0.47732">
        <ele>50.6</ele>
        <time>2021-03-27T11:08:33Z</time>
      </trkpt>
      <trkpt lat="46.19487" lon="-0.4773">
        <ele>50.8</ele>
        <time>2021-03-27T11:08:34Z</time>
      </trkpt>
      <trkpt lat="46.19482" lon="-0.4773">
        <ele>50.8</ele>
        <time>2021-03-27T11:08:35Z</time>
      </trkpt>
      <trkpt lat="46.19477" lon="-0.47731">
        <ele>50.8</ele>
        <time>2021-03-27T11:08:36Z</time>
      </trkpt>
      <trkpt lat="46.19472" lon="-0.47734">
        <ele>50.8</ele>
        <time>2021-03-27T11:08:37Z</time>
      </trkpt>
      <trkpt lat="46.19466" lon="-0.47737">
        <ele>51</ele>
        <time>2021-03-27T11:08:38Z</time>
      </trkpt>
      <trkpt lat="46.19461" lon="-0.47741">
        <ele>51</ele>
        <time>2021-03-27T11:08:39Z</time>
      </trkpt>
      <trkpt lat="46.19456" lon="-0.47745">
        <ele>51</ele>
        <time>2021-03-27T11:08:40Z</time>
      </trkpt>
      <trkpt lat="46.19432" lon="-0.47759">
        <ele>51.6</ele>
        <time>2021-03-27T11:08:44Z</time>
      </trkpt>
      <trkpt lat="46.19426" lon="-0.47763">
        <ele>51.6</ele>
        <time>2021-03-27T11:08:45Z</time>
      </trkpt>
      <trkpt lat="46.19421" lon="-0.47767">
        <ele>51.8</ele>
        <time>2021-03-27T11:08:46Z</time>
      </trkpt>
      <trkpt lat="46.19415" lon="-0.47771">
        <ele>51.8</ele>
        <time>2021-03-27T11:08:47Z</time>
      </trkpt>
      <trkpt lat="46.1941" lon="-0.47774">
        <ele>51.8</ele>
        <time>2021-03-27T11:08:48Z</time>
      </trkpt>
      <trkpt lat="46.19399" lon="-0.47782">
        <ele>52</ele>
        <time>2021-03-27T11:08:50Z</time>
      </trkpt>
      <trkpt lat="46.19388" lon="-0.4779">
        <ele>52</ele>
        <time>2021-03-27T11:08:52Z</time>
      </trkpt>
      <trkpt lat="46.19383" lon="-0.47794">
        <ele>52</ele>
        <time>2021-03-27T11:08:53Z</time>
      </trkpt>
      <trkpt lat="46.19366" lon="-0.47803">
        <ele>51.8</ele>
        <time>2021-03-27T11:08:56Z</time>
      </trkpt>
      <trkpt lat="46.19361" lon="-0.47807">
        <ele>51.6</ele>
        <time>2021-03-27T11:08:57Z</time>
      </trkpt>
      <trkpt lat="46.19356" lon="-0.4781">
        <ele>51.6</ele>
        <time>2021-03-27T11:08:58Z</time>
      </trkpt>
      <trkpt lat="46.19349" lon="-0.47813">
        <ele>51.2</ele>
        <time>2021-03-27T11:08:59Z</time>
      </trkpt>
      <trkpt lat="46.19336" lon="-0.47815">
        <ele>50.4</ele>
        <time>2021-03-27T11:09:01Z</time>
      </trkpt>
      <trkpt lat="46.1933" lon="-0.47812">
        <ele>50</ele>
        <time>2021-03-27T11:09:02Z</time>
      </trkpt>
      <trkpt lat="46.19324" lon="-0.47808">
        <ele>49.8</ele>
        <time>2021-03-27T11:09:03Z</time>
      </trkpt>
      <trkpt lat="46.19319" lon="-0.47804">
        <ele>49.6</ele>
        <time>2021-03-27T11:09:04Z</time>
      </trkpt>
      <trkpt lat="46.19313" lon="-0.47799">
        <ele>49.2</ele>
        <time>2021-03-27T11:09:05Z</time>
      </trkpt>
      <trkpt lat="46.19308" lon="-0.47795">
        <ele>48.6</ele>
        <time>2021-03-27T11:09:06Z</time>
      </trkpt>
      <trkpt lat="46.19304" lon="-0.47792">
        <ele>47.8</ele>
        <time>2021-03-27T11:09:07Z</time>
      </trkpt>
      <trkpt lat="46.19299" lon="-0.47789">
        <ele>47.8</ele>
        <time>2021-03-27T11:09:08Z</time>
      </trkpt>
      <trkpt lat="46.19293" lon="-0.47787">
        <ele>47.2</ele>
        <time>2021-03-27T11:09:09Z</time>
      </trkpt>
      <trkpt lat="46.19288" lon="-0.47786">
        <ele>47</ele>
        <time>2021-03-27T11:09:10Z</time>
      </trkpt>
      <trkpt lat="46.19283" lon="-0.47785">
        <ele>46.8</ele>
        <time>2021-03-27T11:09:11Z</time>
      </trkpt>
      <trkpt lat="46.19279" lon="-0.47785">
        <ele>46.6</ele>
        <time>2021-03-27T11:09:12Z</time>
      </trkpt>
      <trkpt lat="46.19274" lon="-0.47785">
        <ele>46.6</ele>
        <time>2021-03-27T11:09:13Z</time>
      </trkpt>
      <trkpt lat="46.19269" lon="-0.47785">
        <ele>46.4</ele>
        <time>2021-03-27T11:09:14Z</time>
      </trkpt>
      <trkpt lat="46.19238" lon="-0.4779">
        <ele>46.4</ele>
        <time>2021-03-27T11:09:20Z</time>
      </trkpt>
      <trkpt lat="46.19228" lon="-0.47792">
        <ele>46.4</ele>
        <time>2021-03-27T11:09:22Z</time>
      </trkpt>
      <trkpt lat="46.19194" lon="-0.47804">
        <ele>46.4</ele>
        <time>2021-03-27T11:09:28Z</time>
      </trkpt>
      <trkpt lat="46.19169" lon="-0.47814">
        <ele>46.8</ele>
        <time>2021-03-27T11:09:32Z</time>
      </trkpt>
      <trkpt lat="46.19163" lon="-0.47816">
        <ele>47</ele>
        <time>2021-03-27T11:09:33Z</time>
      </trkpt>
      <trkpt lat="46.19158" lon="-0.47818">
        <ele>47</ele>
        <time>2021-03-27T11:09:34Z</time>
      </trkpt>
      <trkpt lat="46.19152" lon="-0.47819">
        <ele>47.2</ele>
        <time>2021-03-27T11:09:35Z</time>
      </trkpt>
      <trkpt lat="46.19141" lon="-0.47821">
        <ele>47.2</ele>
        <time>2021-03-27T11:09:37Z</time>
      </trkpt>
      <trkpt lat="46.19136" lon="-0.47823">
        <ele>47.2</ele>
        <time>2021-03-27T11:09:38Z</time>
      </trkpt>
      <trkpt lat="46.19131" lon="-0.47824">
        <ele>47.2</ele>
        <time>2021-03-27T11:09:39Z</time>
      </trkpt>
      <trkpt lat="46.19127" lon="-0.47825">
        <ele>47.2</ele>
        <time>2021-03-27T11:09:40Z</time>
      </trkpt>
      <trkpt lat="46.19122" lon="-0.47828">
        <ele>47.2</ele>
        <time>2021-03-27T11:09:41Z</time>
      </trkpt>
      <trkpt lat="46.19113" lon="-0.47835">
        <ele>47.2</ele>
        <time>2021-03-27T11:09:43Z</time>
      </trkpt>
      <trkpt lat="46.19105" lon="-0.47847">
        <ele>47.2</ele>
        <time>2021-03-27T11:09:45Z</time>
      </trkpt>
      <trkpt lat="46.19101" lon="-0.47852">
        <ele>47.4</ele>
        <time>2021-03-27T11:09:46Z</time>
      </trkpt>
      <trkpt lat="46.19088" lon="-0.4787">
        <ele>47.8</ele>
        <time>2021-03-27T11:09:49Z</time>
      </trkpt>
      <trkpt lat="46.19084" lon="-0.47875">
        <ele>47.8</ele>
        <time>2021-03-27T11:09:50Z</time>
      </trkpt>
      <trkpt lat="46.19068" lon="-0.47892">
        <ele>48.2</ele>
        <time>2021-03-27T11:09:54Z</time>
      </trkpt>
      <trkpt lat="46.19064" lon="-0.47896">
        <ele>48.2</ele>
        <time>2021-03-27T11:09:55Z</time>
      </trkpt>
      <trkpt lat="46.19061" lon="-0.479">
        <ele>48.2</ele>
        <time>2021-03-27T11:09:56Z</time>
      </trkpt>
      <trkpt lat="46.19058" lon="-0.47903">
        <ele>48.2</ele>
        <time>2021-03-27T11:09:57Z</time>
      </trkpt>
      <trkpt lat="46.19055" lon="-0.47907">
        <ele>48.2</ele>
        <time>2021-03-27T11:09:58Z</time>
      </trkpt>
      <trkpt lat="46.19052" lon="-0.4791">
        <ele>48.2</ele>
        <time>2021-03-27T11:09:59Z</time>
      </trkpt>
      <trkpt lat="46.19049" lon="-0.47914">
        <ele>48.4</ele>
        <time>2021-03-27T11:10:00Z</time>
      </trkpt>
      <trkpt lat="46.19046" lon="-0.47917">
        <ele>48.4</ele>
        <time>2021-03-27T11:10:01Z</time>
      </trkpt>
      <trkpt lat="46.19038" lon="-0.47924">
        <ele>48.4</ele>
        <time>2021-03-27T11:10:03Z</time>
      </trkpt>
      <trkpt lat="46.19033" lon="-0.47925">
        <ele>48.4</ele>
        <time>2021-03-27T11:10:04Z</time>
      </trkpt>
      <trkpt lat="46.19027" lon="-0.47926">
        <ele>48.4</ele>
        <time>2021-03-27T11:10:05Z</time>
      </trkpt>
      <trkpt lat="46.19021" lon="-0.47926">
        <ele>48.4</ele>
        <time>2021-03-27T11:10:06Z</time>
      </trkpt>
      <trkpt lat="46.19015" lon="-0.47926">
        <ele>48.4</ele>
        <time>2021-03-27T11:10:07Z</time>
      </trkpt>
      <trkpt lat="46.19008" lon="-0.47926">
        <ele>48.4</ele>
        <time>2021-03-27T11:10:08Z</time>
      </trkpt>
      <trkpt lat="46.19001" lon="-0.47926">
        <ele>48.4</ele>
        <time>2021-03-27T11:10:09Z</time>
      </trkpt>
      <trkpt lat="46.18963" lon="-0.47923">
        <ele>48.2</ele>
        <time>2021-03-27T11:10:14Z</time>
      </trkpt>
      <trkpt lat="46.18955" lon="-0.47919">
        <ele>48.2</ele>
        <time>2021-03-27T11:10:15Z</time>
      </trkpt>
      <trkpt lat="46.18948" lon="-0.47914">
        <ele>48.2</ele>
        <time>2021-03-27T11:10:16Z</time>
      </trkpt>
      <trkpt lat="46.18942" lon="-0.47909">
        <ele>48.2</ele>
        <time>2021-03-27T11:10:17Z</time>
      </trkpt>
      <trkpt lat="46.18917" lon="-0.47886">
        <ele>48.2</ele>
        <time>2021-03-27T11:10:21Z</time>
      </trkpt>
      <trkpt lat="46.18911" lon="-0.4788">
        <ele>48.4</ele>
        <time>2021-03-27T11:10:22Z</time>
      </trkpt>
      <trkpt lat="46.189" lon="-0.47866">
        <ele>48.8</ele>
        <time>2021-03-27T11:10:24Z</time>
      </trkpt>
      <trkpt lat="46.18896" lon="-0.47858">
        <ele>49.2</ele>
        <time>2021-03-27T11:10:25Z</time>
      </trkpt>
      <trkpt lat="46.18892" lon="-0.4785">
        <ele>49.8</ele>
        <time>2021-03-27T11:10:26Z</time>
      </trkpt>
      <trkpt lat="46.18888" lon="-0.47841">
        <ele>50.4</ele>
        <time>2021-03-27T11:10:27Z</time>
      </trkpt>
      <trkpt lat="46.18885" lon="-0.47833">
        <ele>51</ele>
        <time>2021-03-27T11:10:28Z</time>
      </trkpt>
      <trkpt lat="46.18883" lon="-0.47824">
        <ele>51.8</ele>
        <time>2021-03-27T11:10:29Z</time>
      </trkpt>
      <trkpt lat="46.18882" lon="-0.47815">
        <ele>52.6</ele>
        <time>2021-03-27T11:10:30Z</time>
      </trkpt>
      <trkpt lat="46.18881" lon="-0.47804">
        <ele>53</ele>
        <time>2021-03-27T11:10:31Z</time>
      </trkpt>
      <trkpt lat="46.1888" lon="-0.47795">
        <ele>53.6</ele>
        <time>2021-03-27T11:10:32Z</time>
      </trkpt>
      <trkpt lat="46.18879" lon="-0.47787">
        <ele>53.6</ele>
        <time>2021-03-27T11:10:33Z</time>
      </trkpt>
      <trkpt lat="46.18878" lon="-0.47779">
        <ele>54</ele>
        <time>2021-03-27T11:10:34Z</time>
      </trkpt>
      <trkpt lat="46.18877" lon="-0.4777">
        <ele>54.4</ele>
        <time>2021-03-27T11:10:35Z</time>
      </trkpt>
      <trkpt lat="46.18874" lon="-0.47764">
        <ele>54.8</ele>
        <time>2021-03-27T11:10:36Z</time>
      </trkpt>
      <trkpt lat="46.18869" lon="-0.47759">
        <ele>55.6</ele>
        <time>2021-03-27T11:10:37Z</time>
      </trkpt>
      <trkpt lat="46.18864" lon="-0.47757">
        <ele>56.2</ele>
        <time>2021-03-27T11:10:38Z</time>
      </trkpt>
      <trkpt lat="46.18858" lon="-0.47756">
        <ele>56.6</ele>
        <time>2021-03-27T11:10:39Z</time>
      </trkpt>
      <trkpt lat="46.18851" lon="-0.47756">
        <ele>57</ele>
        <time>2021-03-27T11:10:40Z</time>
      </trkpt>
      <trkpt lat="46.18846" lon="-0.47755">
        <ele>57.4</ele>
        <time>2021-03-27T11:10:41Z</time>
      </trkpt>
      <trkpt lat="46.18839" lon="-0.47755">
        <ele>57.8</ele>
        <time>2021-03-27T11:10:42Z</time>
      </trkpt>
      <trkpt lat="46.18834" lon="-0.47755">
        <ele>58.2</ele>
        <time>2021-03-27T11:10:43Z</time>
      </trkpt>
      <trkpt lat="46.1883" lon="-0.47755">
        <ele>58.6</ele>
        <time>2021-03-27T11:10:44Z</time>
      </trkpt>
      <trkpt lat="46.18825" lon="-0.47756">
        <ele>58.8</ele>
        <time>2021-03-27T11:10:45Z</time>
      </trkpt>
      <trkpt lat="46.1882" lon="-0.47757">
        <ele>59</ele>
        <time>2021-03-27T11:10:46Z</time>
      </trkpt>
      <trkpt lat="46.18816" lon="-0.47758">
        <ele>59</ele>
        <time>2021-03-27T11:10:47Z</time>
      </trkpt>
      <trkpt lat="46.18812" lon="-0.47759">
        <ele>59.2</ele>
        <time>2021-03-27T11:10:48Z</time>
      </trkpt>
      <trkpt lat="46.18808" lon="-0.47759">
        <ele>59.4</ele>
        <time>2021-03-27T11:10:49Z</time>
      </trkpt>
      <trkpt lat="46.18803" lon="-0.47758">
        <ele>59.8</ele>
        <time>2021-03-27T11:10:50Z</time>
      </trkpt>
      <trkpt lat="46.18797" lon="-0.47758">
        <ele>60.4</ele>
        <time>2021-03-27T11:10:51Z</time>
      </trkpt>
      <trkpt lat="46.1879" lon="-0.47758">
        <ele>60.6</ele>
        <time>2021-03-27T11:10:52Z</time>
      </trkpt>
      <trkpt lat="46.18784" lon="-0.47757">
        <ele>60.8</ele>
        <time>2021-03-27T11:10:53Z</time>
      </trkpt>
      <trkpt lat="46.18777" lon="-0.47758">
        <ele>61</ele>
        <time>2021-03-27T11:10:54Z</time>
      </trkpt>
      <trkpt lat="46.1877" lon="-0.47757">
        <ele>61.2</ele>
        <time>2021-03-27T11:10:55Z</time>
      </trkpt>
      <trkpt lat="46.18764" lon="-0.47758">
        <ele>61.2</ele>
        <time>2021-03-27T11:10:56Z</time>
      </trkpt>
      <trkpt lat="46.18759" lon="-0.4776">
        <ele>61.4</ele>
        <time>2021-03-27T11:10:57Z</time>
      </trkpt>
      <trkpt lat="46.18757" lon="-0.47763">
        <ele>61.4</ele>
        <time>2021-03-27T11:10:58Z</time>
      </trkpt>
      <trkpt lat="46.18756" lon="-0.47765">
        <ele>61.6</ele>
        <time>2021-03-27T11:10:59Z</time>
      </trkpt>
      <trkpt lat="46.18756" lon="-0.47765">
        <ele>61.6</ele>
        <time>2021-03-27T11:11:00Z</time>
      </trkpt>
      <trkpt lat="46.18756" lon="-0.47766">
        <ele>61.6</ele>
        <time>2021-03-27T11:11:01Z</time>
      </trkpt>
      <trkpt lat="46.18756" lon="-0.47766">
        <ele>61.6</ele>
        <time>2021-03-27T11:11:02Z</time>
      </trkpt>
      <trkpt lat="46.18756" lon="-0.47766">
        <ele>61.6</ele>
        <time>2021-03-27T11:11:03Z</time>
      </trkpt>
      <trkpt lat="46.18757" lon="-0.47775">
        <ele>63.4</ele>
        <time>2021-03-27T11:11:16Z</time>
      </trkpt>
      <trkpt lat="46.18757" lon="-0.47779">
        <ele>63.4</ele>
        <time>2021-03-27T11:11:17Z</time>
      </trkpt>
      <trkpt lat="46.18757" lon="-0.47783">
        <ele>63.4</ele>
        <time>2021-03-27T11:11:18Z</time>
      </trkpt>
      <trkpt lat="46.18758" lon="-0.47787">
        <ele>63.4</ele>
        <time>2021-03-27T11:11:19Z</time>
      </trkpt>
      <trkpt lat="46.18758" lon="-0.47791">
        <ele>63.4</ele>
        <time>2021-03-27T11:11:20Z</time>
      </trkpt>
      <trkpt lat="46.18758" lon="-0.47795">
        <ele>63.2</ele>
        <time>2021-03-27T11:11:21Z</time>
      </trkpt>
      <trkpt lat="46.18757" lon="-0.47799">
        <ele>63.2</ele>
        <time>2021-03-27T11:11:22Z</time>
      </trkpt>
      <trkpt lat="46.18757" lon="-0.478">
        <ele>63</ele>
        <time>2021-03-27T11:11:23Z</time>
      </trkpt>
      <trkpt lat="46.18757" lon="-0.478">
        <ele>63</ele>
        <time>2021-03-27T11:11:24Z</time>
      </trkpt>
      <trkpt lat="46.18757" lon="-0.478">
        <ele>63</ele>
        <time>2021-03-27T11:11:25Z</time>
      </trkpt>
      <trkpt lat="46.18757" lon="-0.478">
        <ele>63</ele>
        <time>2021-03-27T11:11:26Z</time>
      </trkpt>
    </trkseg>
  </trk>
</gpx>